ftp/pub/palmer/observations_modified/2019/September/original_files/AR190903_BASE.txt

Download

Sample DateTime	Unit Id	WS Avg 2min	WD Avg 2min	WGS 10min	WGD 10min	Air Temp	Rel Humidity	Dew Point	Pyranometer	Quantum	Air Pressure	Snow Level	Rainfall	PW Current	Visibility	CBase 1	CBase 2	CBase 3	Vert Vis
2019/09/03 00:00:00	BASE	0.50	340	2.98	37	-4.6	73	-8.7	0	0	1017.0	NA	0.0000		9999	0	0	0	0
2019/09/03 00:01:00	BASE	0.38	358	2.98	37	-4.6	73	-8.7	0	0	1016.9	NA	0.0000		9999	0	0	0	0
2019/09/03 00:02:00	BASE	0.81	0	2.83	340	-4.6	73	-8.7	0	0	1016.9	NA	0.0000		9999	0	0	0	0
2019/09/03 00:03:00	BASE	1.40	16	2.83	340	-4.7	73	-8.8	0	0	1016.9	NA	0.0000		9999	0	0	0	0
2019/09/03 00:04:00	BASE	2.22	42	3.24	53	-4.7	73	-8.9	0	0	1017.0	NA	0.0000		9999	0	0	0	0
2019/09/03 00:05:00	BASE	2.87	46	3.96	50	-4.8	73	-9.0	0	0	1017.0	NA	0.0000		9999	0	0	0	0
2019/09/03 00:06:00	BASE	3.45	52	3.96	50	-4.9	73	-9.1	0	0	1017.0	NA	0.0000		9999	0	0	0	0
2019/09/03 00:07:00	BASE	3.49	57	3.96	50	-5.0	73	-9.2	0	0	1017.0	NA	0.0000		9999	0	0	0	0
2019/09/03 00:08:00	BASE	3.42	59	3.96	50	-5.1	73	-9.2	0	0	1017.0	NA	0.0000		9999	0	0	0	0
2019/09/03 00:09:00	BASE	3.42	58	3.96	50	-5.2	73	-9.2	0	0	1017.0	NA	0.0000		9999	0	0	0	0
2019/09/03 00:10:00	BASE	3.57	53	4.12	53	-5.2	73	-9.3	0	0	1017.0	NA	0.0000		9999	0	0	0	0
2019/09/03 00:11:00	BASE	3.60	48	4.12	53	-5.2	73	-9.3	0	0	1017.0	NA	0.0000		9999	0	0	0	0
2019/09/03 00:12:00	BASE	3.27	47	4.12	53	-5.3	74	-9.2	0	0	1017.0	NA	0.0000		9999	0	0	0	0
2019/09/03 00:13:00	BASE	3.14	48	4.12	53	-5.3	74	-9.2	0	0	1017.0	NA	0.0000		9999	0	0	0	0
2019/09/03 00:14:00	BASE	2.82	45	4.12	53	-5.3	74	-9.2	0	0	1017.0	NA	0.0000		9999	0	0	0	0
2019/09/03 00:15:00	BASE	2.44	40	4.12	53	-5.3	74	-9.2	0	0	1017.0	NA	0.0000		9999	0	0	0	0
2019/09/03 00:16:00	BASE	2.39	39	4.12	53	-5.2	74	-9.1	0	0	1017.0	NA	0.0000		9999	0	0	0	0
2019/09/03 00:17:00	BASE	2.39	39	4.12	53	-5.2	74	-9.1	0	0	1017.0	NA	0.0000		9999	0	0	0	0
2019/09/03 00:18:00	BASE	2.26	37	4.12	53	-5.2	74	-9.1	0	0	1017.0	NA	0.0000		9999	0	0	0	0
2019/09/03 00:19:00	BASE	2.11	38	4.12	53	-5.2	74	-9.1	0	0	1017.0	NA	0.0000		9999	0	0	0	0
2019/09/03 00:20:00	BASE	2.07	39	3.76	41	-5.1	74	-9.1	0	0	1017.0	NA	0.0000		9999	0	0	0	0
2019/09/03 00:21:00	BASE	2.14	39	3.45	49	-5.1	74	-9.1	0	0	1017.1	NA	0.0000		9999	0	0	0	0
2019/09/03 00:22:00	BASE	2.22	36	3.24	51	-5.1	74	-9.0	0	0	1017.1	NA	0.0000		9999	0	0	0	0
2019/09/03 00:23:00	BASE	2.39	36	2.88	44	-5.1	74	-9.1	0	0	1017.1	NA	0.0000		9999	0	0	0	0
2019/09/03 00:24:00	BASE	2.82	40	3.55	39	-5.1	74	-9.1	0	0	1017.1	NA	0.0000		9999	0	0	0	0
2019/09/03 00:25:00	BASE	3.48	41	4.22	44	-5.2	73	-9.2	0	0	1017.1	NA	0.0000		9999	0	0	0	0
2019/09/03 00:26:00	BASE	3.96	43	4.22	44	-5.3	73	-9.3	0	0	1017.2	NA	0.0000		9999	0	0	0	0
2019/09/03 00:27:00	BASE	4.15	43	4.48	45	-5.4	73	-9.5	0	0	1017.2	NA	0.0000		9999	0	0	0	0
2019/09/03 00:28:00	BASE	4.21	43	4.48	45	-5.6	73	-9.6	0	0	1017.2	NA	0.0000		9999	0	0	0	0
2019/09/03 00:29:00	BASE	4.15	43	4.48	45	-5.7	73	-9.7	0	0	1017.2	NA	0.0000		9999	0	0	0	0
2019/09/03 00:30:00	BASE	3.87	44	4.48	45	-5.8	74	-9.8	0	0	1017.2	NA	0.0000		9999	0	0	0	0
2019/09/03 00:31:00	BASE	3.32	44	4.48	45	-5.8	74	-9.7	0	0	1017.2	NA	0.0000		9999	0	0	0	0
2019/09/03 00:32:00	BASE	2.89	39	4.48	45	-5.8	74	-9.6	0	0	1017.2	NA	0.0000		9999	0	0	0	0
2019/09/03 00:33:00	BASE	2.65	39	4.48	45	-5.8	75	-9.6	0	0	1017.2	NA	0.0000		9999	0	0	0	0
2019/09/03 00:34:00	BASE	2.70	41	4.48	45	-5.7	75	-9.4	0	0	1017.2	NA	0.0000		9999	0	0	0	0
2019/09/03 00:35:00	BASE	2.88	41	4.48	45	-5.6	75	-9.4	0	0	1017.2	NA	0.0000		9999	0	0	0	0
2019/09/03 00:36:00	BASE	2.96	41	4.48	45	-5.6	75	-9.4	0	0	1017.2	NA	0.0000		9999	0	0	0	0
2019/09/03 00:37:00	BASE	2.89	40	4.42	40	-5.5	74	-9.4	0	0	1017.2	NA	0.0000		9999	0	0	0	0
2019/09/03 00:38:00	BASE	2.70	39	4.27	42	-5.5	74	-9.5	0	0	1017.2	NA	0.0000		9999	0	0	0	0
2019/09/03 00:39:00	BASE	2.47	36	4.12	54	-5.5	73	-9.5	0	0	1017.2	NA	0.0000		9999	0	0	0	0
2019/09/03 00:40:00	BASE	2.18	29	3.45	42	-5.5	73	-9.6	0	0	1017.2	NA	0.0000		9999	0	0	0	0
2019/09/03 00:41:00	BASE	2.31	27	3.45	42	-5.5	73	-9.6	0	0	1017.2	NA	0.0000		9999	0	0	0	0
2019/09/03 00:42:00	BASE	2.58	26	3.45	42	-5.5	73	-9.6	0	0	1017.2	NA	0.0000		9999	0	0	0	0
2019/09/03 00:43:00	BASE	2.46	24	3.45	42	-5.5	73	-9.6	0	0	1017.2	NA	0.0000		9999	0	0	0	0
2019/09/03 00:44:00	BASE	2.07	16	3.45	42	-5.5	73	-9.6	0	0	1017.2	NA	0.0000		9999	0	0	0	0
2019/09/03 00:45:00	BASE	1.86	10	3.34	32	-5.5	73	-9.6	0	0	1017.2	NA	0.0000		9999	0	0	0	0
2019/09/03 00:46:00	BASE	1.78	15	3.19	20	-5.6	73	-9.7	0	0	1017.2	NA	0.0000		9999	0	0	0	0
2019/09/03 00:47:00	BASE	1.52	12	3.19	20	-5.5	73	-9.6	0	0	1017.2	NA	0.0000		9999	0	0	0	0
2019/09/03 00:48:00	BASE	1.57	14	3.19	20	-5.5	73	-9.6	0	0	1017.2	NA	0.0000		9999	0	0	0	0
2019/09/03 00:49:00	BASE	2.08	25	3.19	20	-5.5	73	-9.6	0	0	1017.3	NA	0.0000		9999	0	0	0	0
2019/09/03 00:50:00	BASE	2.55	27	3.19	20	-5.5	73	-9.6	0	0	1017.3	NA	0.0000		9999	0	0	0	0
2019/09/03 00:51:00	BASE	2.84	23	3.14	14	-5.6	73	-9.7	0	0	1017.2	NA	0.0000		9999	0	0	0	0
2019/09/03 00:52:00	BASE	3.19	15	3.55	17	-5.6	73	-9.7	0	0	1017.3	NA	0.0000		9999	0	0	0	0
2019/09/03 00:53:00	BASE	3.49	11	3.81	5	-5.7	73	-9.8	0	0	1017.3	NA	0.0000		9999	0	0	0	0
2019/09/03 00:54:00	BASE	3.49	12	3.81	5	-5.8	73	-9.8	0	0	1017.3	NA	0.0000		9999	0	0	0	0
2019/09/03 00:55:00	BASE	3.47	13	4.42	7	-5.8	73	-9.8	0	0	1017.3	NA	0.0000		9999	0	0	0	0
2019/09/03 00:56:00	BASE	3.17	18	4.42	7	-5.8	73	-9.8	0	0	1017.3	NA	0.0000		9999	0	0	0	0
2019/09/03 00:57:00	BASE	2.65	24	4.42	7	-5.9	74	-9.9	0	0	1017.3	NA	0.0000		9999	0	0	0	0
2019/09/03 00:58:00	BASE	2.27	27	4.42	7	-5.9	74	-9.9	0	0	1017.3	NA	0.0000		9999	0	0	0	0
2019/09/03 00:59:00	BASE	1.98	34	4.42	7	-5.9	74	-9.9	0	0	1017.3	NA	0.0000		9999	0	0	0	0
2019/09/03 01:00:00	BASE	1.87	32	4.42	7	-5.9	74	-9.8	0	0	1017.3	NA	0.0000		9999	0	0	0	0
2019/09/03 01:01:00	BASE	1.81	25	4.42	7	-5.8	74	-9.7	0	0	1017.3	NA	0.0000		9999	0	0	0	0
2019/09/03 01:02:00	BASE	1.89	20	4.42	7	-5.7	74	-9.6	0	0	1017.3	NA	0.0000		9999	0	0	0	0
2019/09/03 01:03:00	BASE	2.04	13	4.42	7	-5.6	74	-9.5	0	0	1017.3	NA	0.0000		9999	0	0	0	0
2019/09/03 01:04:00	BASE	2.16	5	4.42	7	-5.5	73	-9.5	0	0	1017.3	NA	0.0000		9999	0	0	0	0
2019/09/03 01:05:00	BASE	2.37	355	3.24	24	-5.4	73	-9.5	0	0	1017.3	NA	0.0000		9999	0	0	0	0
2019/09/03 01:06:00	BASE	2.63	351	3.09	352	-5.4	72	-9.6	0	0	1017.3	NA	0.0000		9999	0	0	0	0
2019/09/03 01:07:00	BASE	2.91	355	3.19	354	-5.4	72	-9.7	0	0	1017.3	NA	0.0000		9999	0	0	0	0
2019/09/03 01:08:00	BASE	3.19	359	3.96	3	-5.4	71	-9.8	0	0	1017.3	NA	0.0000		9999	0	0	0	0
2019/09/03 01:09:00	BASE	3.00	11	3.96	3	-5.4	71	-9.8	0	0	1017.3	NA	0.0000		9999	0	0	0	0
2019/09/03 01:10:00	BASE	2.76	20	3.96	3	-5.5	71	-9.9	0	0	1017.3	NA	0.0000		9999	0	0	0	0
2019/09/03 01:11:00	BASE	2.78	15	3.96	3	-5.6	71	-10.0	0	0	1017.3	NA	0.0000		9999	0	0	0	0
2019/09/03 01:12:00	BASE	2.57	11	3.96	3	-5.7	71	-10.1	0	0	1017.3	NA	0.0000		9999	0	0	0	0
2019/09/03 01:13:00	BASE	2.33	6	3.96	3	-5.8	71	-10.2	0	0	1017.3	NA	0.0000		9999	0	0	0	0
2019/09/03 01:14:00	BASE	2.44	352	3.96	3	-5.8	71	-10.2	0	0	1017.3	NA	0.0000		9999	0	0	0	0
2019/09/03 01:15:00	BASE	2.66	337	3.96	3	-5.8	72	-10.1	0	0	1017.4	NA	0.0000		9999	0	0	0	0
2019/09/03 01:16:00	BASE	2.86	335	3.96	3	-5.8	72	-10.1	0	0	1017.5	NA	0.0000		9999	0	0	0	0
2019/09/03 01:17:00	BASE	3.28	331	4.22	330	-5.8	72	-10.1	0	0	1017.5	NA	0.0000		9999	0	0	0	0
2019/09/03 01:18:00	BASE	3.48	328	4.22	330	-5.7	71	-10.1	0	0	1017.5	NA	0.0000		9999	0	0	0	0
2019/09/03 01:19:00	BASE	3.10	331	4.22	330	-5.7	71	-10.1	0	0	1017.5	NA	0.0000		9999	0	0	0	0
2019/09/03 01:20:00	BASE	2.93	335	4.22	330	-5.8	71	-10.2	0	0	1017.5	NA	0.0000		9999	0	0	0	0
2019/09/03 01:21:00	BASE	3.56	337	5.09	339	-5.8	71	-10.2	0	0	1017.5	NA	0.0000		9999	0	0	0	0
2019/09/03 01:22:00	BASE	4.21	338	5.50	346	-5.9	71	-10.3	0	0	1017.5	NA	0.0000		9999	0	0	0	0
2019/09/03 01:23:00	BASE	4.65	348	5.56	351	-5.9	71	-10.3	0	0	1017.5	NA	0.0000		9999	0	0	0	0
2019/09/03 01:24:00	BASE	4.88	352	5.56	351	-5.9	71	-10.4	0	0	1017.5	NA	0.0000		9999	0	0	0	0
2019/09/03 01:25:00	BASE	5.25	349	7.05	352	-5.9	71	-10.4	0	0	1017.5	NA	0.0000		9999	0	0	0	0
2019/09/03 01:26:00	BASE	5.28	352	7.05	352	-5.9	70	-10.4	0	0	1017.5	NA	0.0000		9999	0	0	0	0
2019/09/03 01:27:00	BASE	4.93	353	7.05	352	-5.8	70	-10.5	0	0	1017.5	NA	0.0000		9999	0	0	0	0
2019/09/03 01:28:00	BASE	4.76	357	7.05	352	-5.8	69	-10.6	0	0	1017.6	NA	0.0000		9999	0	0	0	0
2019/09/03 01:29:00	BASE	4.30	12	7.05	352	-5.8	69	-10.7	0	0	1017.6	NA	0.0000		9999	0	0	0	0
2019/09/03 01:30:00	BASE	3.73	23	7.05	352	-5.9	68	-10.8	0	0	1017.6	NA	0.0000		9999	0	0	0	0
2019/09/03 01:31:00	BASE	3.67	27	7.05	352	-6.1	68	-11.0	0	0	1017.6	NA	0.0000		9999	0	0	0	0
2019/09/03 01:32:00	BASE	3.88	29	7.05	352	-6.2	69	-11.0	0	0	1017.6	NA	0.0000		9999	0	0	0	0
2019/09/03 01:33:00	BASE	4.32	28	7.05	352	-6.3	69	-11.0	0	0	1017.6	NA	0.0000		9999	0	0	0	0
2019/09/03 01:34:00	BASE	4.70	22	7.05	352	-6.3	70	-10.9	0	0	1017.5	NA	0.0000		9999	0	0	0	0
2019/09/03 01:35:00	BASE	4.78	15	5.71	352	-6.3	70	-10.9	0	0	1017.5	NA	0.0000		9999	0	0	0	0
2019/09/03 01:36:00	BASE	4.86	14	5.71	352	-6.2	69	-10.9	0	0	1017.6	NA	0.0000		9999	0	0	0	0
2019/09/03 01:37:00	BASE	4.76	16	5.61	24	-6.2	68	-11.0	0	0	1017.6	NA	0.0000		9999	0	0	0	0
2019/09/03 01:38:00	BASE	4.60	18	5.61	24	-6.1	67	-11.2	0	0	1017.6	NA	0.0000		9999	0	0	0	0
2019/09/03 01:39:00	BASE	4.28	19	5.61	24	-6.1	67	-11.3	0	0	1017.6	NA	0.0000		9999	0	0	0	0
2019/09/03 01:40:00	BASE	4.33	15	5.61	24	-6.1	66	-11.4	0	0	1017.6	NA	0.0000		9999	0	0	0	0
2019/09/03 01:41:00	BASE	4.66	8	5.61	24	-6.1	66	-11.5	0	0	1017.6	NA	0.0000		9999	0	0	0	0
2019/09/03 01:42:00	BASE	4.57	359	5.61	24	-6.0	65	-11.5	0	0	1017.7	NA	0.0000		9999	0	0	0	0
2019/09/03 01:43:00	BASE	4.27	349	5.40	7	-6.0	65	-11.5	0	0	1017.7	NA	0.0000		9999	0	0	0	0
2019/09/03 01:44:00	BASE	4.04	347	5.40	7	-5.9	65	-11.5	0	0	1017.6	NA	0.0000		9999	0	0	0	0
2019/09/03 01:45:00	BASE	3.88	351	5.35	353	-5.9	65	-11.5	0	0	1017.6	NA	0.0000		9999	0	0	0	0
2019/09/03 01:46:00	BASE	3.86	357	5.35	353	-5.9	65	-11.4	0	0	1017.6	NA	0.0000		9999	0	0	0	0
2019/09/03 01:47:00	BASE	3.89	2	5.35	353	-5.9	65	-11.4	0	0	1017.6	NA	0.0000		9999	0	0	0	0
2019/09/03 01:48:00	BASE	4.19	3	5.35	353	-5.9	66	-11.3	0	0	1017.6	NA	0.0000		9999	0	0	0	0
2019/09/03 01:49:00	BASE	4.13	6	5.35	353	-5.9	66	-11.2	0	0	1017.7	NA	0.0000		9999	0	0	0	0
2019/09/03 01:50:00	BASE	3.64	8	5.35	353	-5.9	67	-11.0	0	0	1017.6	NA	0.0000		9999	0	0	0	0
2019/09/03 01:51:00	BASE	3.28	10	5.35	353	-6.0	68	-11.0	0	0	1017.6	NA	0.0000		9999	0	0	0	0
2019/09/03 01:52:00	BASE	3.27	10	4.99	3	-5.9	69	-10.8	0	0	1017.6	NA	0.0000		9999	0	0	0	0
2019/09/03 01:53:00	BASE	3.43	14	4.99	3	-5.9	69	-10.6	0	0	1017.6	NA	0.0000		9999	0	0	0	0
2019/09/03 01:54:00	BASE	3.58	16	4.99	3	-5.9	70	-10.5	0	0	1017.6	NA	0.0000		9999	0	0	0	0
2019/09/03 01:55:00	BASE	3.72	16	4.99	3	-6.0	71	-10.4	0	0	1017.7	NA	0.0000		9999	0	0	0	0
2019/09/03 01:56:00	BASE	3.85	16	4.99	3	-6.0	71	-10.3	0	0	1017.7	NA	0.0000		9999	0	0	0	0
2019/09/03 01:57:00	BASE	4.15	20	4.99	3	-5.9	72	-10.2	0	0	1017.7	NA	0.0000		9999	0	0	0	0
2019/09/03 01:58:00	BASE	4.35	22	5.30	22	-6.0	72	-10.1	0	0	1017.7	NA	0.0000		9999	0	0	0	0
2019/09/03 01:59:00	BASE	4.37	19	5.30	22	-6.0	73	-10.1	0	0	1017.7	NA	0.0000		9999	0	0	0	0
2019/09/03 02:00:00	BASE	4.05	18	5.30	22	-6.0	73	-10.1	0	0	1017.7	NA	0.0000		9999	0	0	0	0
2019/09/03 02:01:00	BASE	3.92	17	5.30	22	-6.1	73	-10.0	0	0	1017.7	NA	0.0000		9999	0	0	0	0
2019/09/03 02:02:00	BASE	4.12	15	5.30	22	-6.1	74	-10.1	0	0	1017.7	NA	0.0000		9999	0	0	0	0
2019/09/03 02:03:00	BASE	4.06	18	5.30	22	-6.1	74	-10.0	0	0	1017.7	NA	0.0000		9999	0	0	0	0
2019/09/03 02:04:00	BASE	3.69	23	5.30	22	-6.0	75	-9.8	0	0	1017.7	NA	0.0000		9999	0	0	0	0
2019/09/03 02:05:00	BASE	3.04	16	5.30	22	-5.9	75	-9.6	0	0	1017.7	NA	0.0000		9999	0	0	0	0
2019/09/03 02:06:00	BASE	2.58	16	5.30	22	-5.8	75	-9.5	0	0	1017.7	NA	0.0000		9999	0	0	0	0
2019/09/03 02:07:00	BASE	2.58	22	5.30	22	-5.7	76	-9.3	0	0	1017.7	NA	0.0000		9999	0	0	0	0
2019/09/03 02:08:00	BASE	3.10	18	4.68	11	-5.6	76	-9.2	0	0	1017.7	NA	0.0000		9999	0	0	0	0
2019/09/03 02:09:00	BASE	3.50	6	4.68	11	-5.6	76	-9.1	0	0	1017.7	NA	0.0000		9999	0	0	0	0
2019/09/03 02:10:00	BASE	3.40	1	4.68	11	-5.5	76	-9.1	0	0	1017.8	NA	0.0000		9999	0	0	0	0
2019/09/03 02:11:00	BASE	3.12	5	4.68	11	-5.6	76	-9.1	0	0	1017.8	NA	0.0000		9999	0	0	0	0
2019/09/03 02:12:00	BASE	3.37	6	4.37	9	-5.6	76	-9.2	0	0	1017.8	NA	0.0000		9999	0	0	0	0
2019/09/03 02:13:00	BASE	4.05	8	4.58	11	-5.7	76	-9.2	0	0	1017.8	NA	0.0000		9999	0	0	0	0
2019/09/03 02:14:00	BASE	4.36	13	4.84	18	-5.8	76	-9.4	0	0	1017.8	NA	0.0000		9999	0	0	0	0
2019/09/03 02:15:00	BASE	4.19	19	4.84	18	-6.0	76	-9.5	0	0	1017.8	NA	0.0000		9999	0	0	0	0
2019/09/03 02:16:00	BASE	3.68	21	4.84	18	-6.1	76	-9.7	0	0	1017.8	NA	0.0000		9999	0	0	0	0
2019/09/03 02:17:00	BASE	3.25	21	4.84	18	-6.3	76	-9.9	0	0	1017.8	NA	0.0000		9999	0	0	0	0
2019/09/03 02:18:00	BASE	3.34	20	4.84	18	-6.4	76	-9.9	0	0	1017.8	NA	0.0000		9999	0	0	0	0
2019/09/03 02:19:00	BASE	3.56	17	4.84	18	-6.4	76	-9.8	0	0	1017.9	NA	0.0000		9999	0	0	0	0
2019/09/03 02:20:00	BASE	3.48	15	4.84	18	-6.3	77	-9.8	0	0	1017.8	NA	0.0000		9999	0	0	0	0
2019/09/03 02:21:00	BASE	3.55	9	4.84	18	-6.3	77	-9.7	0	0	1017.8	NA	0.0000		9999	0	0	0	0
2019/09/03 02:22:00	BASE	3.48	5	4.84	18	-6.2	77	-9.6	0	0	1017.8	NA	0.0000		9999	0	0	0	0
2019/09/03 02:23:00	BASE	3.35	359	4.84	18	-6.1	77	-9.5	0	0	1017.8	NA	0.0000		9999	0	0	0	0
2019/09/03 02:24:00	BASE	3.32	352	4.68	21	-6.1	77	-9.5	0	0	1017.8	NA	0.0000		9999	0	0	0	0
2019/09/03 02:25:00	BASE	3.08	352	4.32	12	-6.1	77	-9.4	0	0	1017.8	NA	0.0000		9999	0	0	0	0
2019/09/03 02:26:00	BASE	2.85	1	4.32	12	-6.1	78	-9.4	0	0	1017.8	NA	0.0000		9999	0	0	0	0
2019/09/03 02:27:00	BASE	2.76	5	4.32	12	-6.2	78	-9.4	0	0	1017.8	NA	0.0000		9999	0	0	0	0
2019/09/03 02:28:00	BASE	2.86	9	4.01	12	-6.2	78	-9.4	0	0	1017.9	NA	0.0000		9999	0	0	0	0
2019/09/03 02:29:00	BASE	3.30	21	4.01	12	-6.2	78	-9.4	0	0	1017.9	NA	0.0000		9999	0	0	0	0
2019/09/03 02:30:00	BASE	3.88	25	4.48	20	-6.2	78	-9.4	0	0	1017.9	NA	0.0000		9999	0	0	0	0
2019/09/03 02:31:00	BASE	4.48	20	5.56	3	-6.3	78	-9.5	0	0	1017.9	NA	0.0000		9999	0	0	0	0
2019/09/03 02:32:00	BASE	4.99	14	5.92	2	-6.3	78	-9.5	0	0	1017.9	NA	0.0000		9999	0	0	0	0
2019/09/03 02:33:00	BASE	4.94	11	5.92	2	-6.3	78	-9.5	0	0	1017.9	NA	0.0000		9999	0	0	0	0
2019/09/03 02:34:00	BASE	4.45	20	5.92	2	-6.4	78	-9.6	0	0	1017.9	NA	0.0000		9999	0	0	0	0
2019/09/03 02:35:00	BASE	4.08	26	5.92	2	-6.4	78	-9.6	0	0	1017.9	NA	0.0000		9999	0	0	0	0
2019/09/03 02:36:00	BASE	3.87	21	5.92	2	-6.4	78	-9.5	0	0	1017.9	NA	0.0000		9999	0	0	0	0
2019/09/03 02:37:00	BASE	3.15	10	5.92	2	-6.3	79	-9.5	0	0	1017.9	NA	0.0000		9999	0	0	0	0
2019/09/03 02:38:00	BASE	2.76	357	5.92	2	-6.3	79	-9.3	0	0	1017.9	NA	0.0000		9999	0	0	0	0
2019/09/03 02:39:00	BASE	2.87	339	5.92	2	-6.1	79	-9.1	0	0	1017.9	NA	0.0000		9999	0	0	0	0
2019/09/03 02:40:00	BASE	2.36	322	5.92	2	-6.0	80	-9.0	0	0	1017.9	NA	0.0000		9999	0	0	0	0
2019/09/03 02:41:00	BASE	2.69	313	5.92	2	-5.9	80	-8.9	0	0	1017.9	NA	0.0000		9999	0	0	0	0
2019/09/03 02:42:00	BASE	3.04	312	5.25	10	-5.9	80	-8.8	0	0	1017.9	NA	0.0000		9999	0	0	0	0
2019/09/03 02:43:00	BASE	3.13	320	4.89	29	-5.8	80	-8.7	0	0	1017.9	NA	0.0000		9999	0	0	0	0
2019/09/03 02:44:00	BASE	3.65	328	5.04	306	-5.8	80	-8.7	0	0	1017.9	NA	0.0000		9999	0	0	0	0
2019/09/03 02:45:00	BASE	3.13	332	5.04	306	-5.8	80	-8.7	0	0	1017.9	NA	0.0000		9999	0	0	0	0
2019/09/03 02:46:00	BASE	2.94	335	5.04	306	-5.8	80	-8.7	0	0	1017.9	NA	0.0000		9999	0	0	0	0
2019/09/03 02:47:00	BASE	3.68	336	5.14	348	-5.9	80	-8.8	0	0	1018.0	NA	0.0000		9999	0	0	0	0
2019/09/03 02:48:00	BASE	4.25	343	5.14	348	-6.0	80	-8.9	0	0	1018.0	NA	0.0000		9999	0	0	0	0
2019/09/03 02:49:00	BASE	4.43	346	5.14	348	-6.2	80	-9.1	0	0	1018.1	NA	0.0000		9999	0	0	0	0
2019/09/03 02:50:00	BASE	4.83	346	6.12	343	-6.3	80	-9.2	0	0	1018.1	NA	0.0000		9999	0	0	0	0
2019/09/03 02:51:00	BASE	5.21	344	6.12	343	-6.4	80	-9.2	0	0	1018.1	NA	0.0000		9999	0	0	0	0
2019/09/03 02:52:00	BASE	4.70	350	6.12	343	-6.4	81	-9.2	0	0	1018.1	NA	0.0000		9999	0	0	0	0
2019/09/03 02:53:00	BASE	4.27	1	6.12	343	-6.4	81	-9.1	0	0	1018.1	NA	0.0000		9999	0	0	0	0
2019/09/03 02:54:00	BASE	4.12	4	6.12	343	-6.3	81	-9.0	0	0	1018.0	NA	0.0000		9999	0	0	0	0
2019/09/03 02:55:00	BASE	4.10	357	6.12	343	-6.3	81	-9.0	0	0	1017.9	NA	0.0000		9999	0	0	0	0
2019/09/03 02:56:00	BASE	4.32	356	6.12	343	-6.2	81	-8.9	0	0	1017.9	NA	0.0000		9999	0	0	0	0
2019/09/03 02:57:00	BASE	4.27	2	6.12	343	-6.2	82	-8.8	0	0	1017.9	NA	0.0000		9999	0	0	0	0
2019/09/03 02:58:00	BASE	3.66	6	6.12	343	-6.1	82	-8.7	0	0	1018.0	NA	0.0000		9999	0	0	0	0
2019/09/03 02:59:00	BASE	3.16	9	6.12	343	-6.1	82	-8.6	0	0	1018.1	NA	0.0000		9999	0	0	0	0
2019/09/03 03:00:00	BASE	2.90	7	5.45	338	-6.1	83	-8.6	0	0	1018.1	NA	0.0000		9999	0	0	0	0
2019/09/03 03:01:00	BASE	2.77	11	4.99	317	-6.2	83	-8.6	0	0	1018.1	NA	0.0000		9999	0	0	0	0
2019/09/03 03:02:00	BASE	3.05	16	4.99	317	-6.2	83	-8.6	0	0	1018.2	NA	0.0000		9999	0	0	0	0
2019/09/03 03:03:00	BASE	3.30	15	4.99	317	-6.3	83	-8.7	0	0	1018.2	NA	0.0000		9999	0	0	0	0
2019/09/03 03:04:00	BASE	3.72	20	4.99	317	-6.4	84	-8.7	0	0	1018.1	NA	0.0000		9999	0	0	0	0
2019/09/03 03:05:00	BASE	4.86	27	6.12	33	-6.5	84	-8.7	0	0	1018.1	NA	0.0000		9999	0	0	0	0
2019/09/03 03:06:00	BASE	5.62	33	6.12	33	-6.5	85	-8.7	0	0	1018.1	NA	0.0000		9999	0	0	0	0
2019/09/03 03:07:00	BASE	5.21	45	6.12	33	-6.6	85	-8.6	0	0	1018.1	NA	0.0000		9999	0	0	0	0
2019/09/03 03:08:00	BASE	4.34	50	6.12	33	-6.6	86	-8.5	0	0	1018.1	NA	0.0000		9999	0	0	0	0
2019/09/03 03:09:00	BASE	3.68	51	6.12	33	-6.5	86	-8.4	0	0	1018.1	NA	0.0000		9999	0	0	0	0
2019/09/03 03:10:00	BASE	3.48	55	6.12	33	-6.3	87	-8.1	0	0	1017.9	NA	0.0000		9999	0	0	0	0
2019/09/03 03:11:00	BASE	3.26	54	6.12	33	-6.1	88	-7.8	0	0	1017.9	NA	0.0000		9999	0	0	0	0
2019/09/03 03:12:00	BASE	3.09	46	6.12	33	-5.9	88	-7.5	0	0	1017.9	NA	0.0000		9999	0	0	0	0
2019/09/03 03:13:00	BASE	3.12	30	6.12	33	-5.8	89	-7.4	0	0	1017.9	NA	0.0000		9999	0	0	0	0
2019/09/03 03:14:00	BASE	2.79	21	6.12	33	-5.7	89	-7.3	0	0	1017.9	NA	0.0000		9999	0	0	0	0
2019/09/03 03:15:00	BASE	2.38	14	6.02	35	-5.7	89	-7.3	0	0	1018.0	NA	0.0000		9999	0	0	0	0
2019/09/03 03:16:00	BASE	2.56	4	5.20	50	-5.7	89	-7.3	0	0	1018.1	NA	0.0000		9999	0	0	0	0
2019/09/03 03:17:00	BASE	2.35	7	4.32	54	-5.7	89	-7.2	0	0	1018.1	NA	0.0000		9999	0	0	0	0
2019/09/03 03:18:00	BASE	2.45	17	4.12	57	-5.6	89	-7.1	0	0	1018.1	NA	0.0000		9999	0	0	0	0
2019/09/03 03:19:00	BASE	2.95	24	4.12	57	-5.6	89	-7.2	0	0	1018.0	NA	0.0000		9999	0	0	0	0
2019/09/03 03:20:00	BASE	3.22	29	4.12	57	-5.6	89	-7.2	0	0	1017.9	NA	0.0000		9999	0	0	0	0
2019/09/03 03:21:00	BASE	3.60	37	4.17	51	-5.7	89	-7.3	0	0	1017.9	NA	0.0000		9999	0	0	0	0
2019/09/03 03:22:00	BASE	3.88	40	5.25	37	-5.8	88	-7.5	0	0	1017.9	NA	0.0000		9999	0	0	0	0
2019/09/03 03:23:00	BASE	4.11	39	5.25	37	-5.9	88	-7.6	0	0	1017.9	NA	0.0000		9999	0	0	0	0
2019/09/03 03:24:00	BASE	3.57	46	5.25	37	-6.0	88	-7.6	0	0	1017.9	NA	0.0000		9999	0	0	0	0
2019/09/03 03:25:00	BASE	3.30	53	5.25	37	-6.0	88	-7.6	0	0	1017.9	NA	0.0000		9999	0	0	0	0
2019/09/03 03:26:00	BASE	4.12	48	5.45	49	-5.9	88	-7.6	0	0	1017.9	NA	0.0000		9999	0	0	0	0
2019/09/03 03:27:00	BASE	4.62	45	5.45	49	-5.9	87	-7.7	0	0	1017.8	NA	0.0000		9999	0	0	0	0
2019/09/03 03:28:00	BASE	4.23	45	5.45	49	-5.9	87	-7.8	0	0	1017.8	NA	0.0000		9999	0	0	0	0
2019/09/03 03:29:00	BASE	4.04	40	5.45	49	-5.9	86	-7.9	0	0	1017.8	NA	0.0000		9999	0	0	0	0
2019/09/03 03:30:00	BASE	3.93	32	5.45	49	-6.0	85	-8.1	0	0	1017.8	NA	0.0000		9999	0	0	0	0
2019/09/03 03:31:00	BASE	3.47	27	5.45	49	-6.0	84	-8.2	0	0	1017.8	NA	0.0000		9999	0	0	0	0
2019/09/03 03:32:00	BASE	3.12	21	5.45	49	-5.9	84	-8.2	0	0	1017.8	NA	0.0000		9999	0	0	0	0
2019/09/03 03:33:00	BASE	2.95	20	5.45	49	-5.9	83	-8.3	0	0	1017.8	NA	0.0000		9999	0	0	0	0
2019/09/03 03:34:00	BASE	2.63	25	5.45	49	-5.9	83	-8.4	0	0	1017.8	NA	0.0000		9999	0	0	0	0
2019/09/03 03:35:00	BASE	2.38	31	5.45	49	-5.8	83	-8.3	0	0	1017.8	NA	0.0000		9999	0	0	0	0
2019/09/03 03:36:00	BASE	2.77	35	4.78	42	-5.8	82	-8.4	0	0	1017.8	NA	0.0000		9999	0	0	0	0
2019/09/03 03:37:00	BASE	3.16	36	4.53	36	-5.8	82	-8.4	0	0	1017.8	NA	0.0000		9999	0	0	0	0
2019/09/03 03:38:00	BASE	3.23	42	4.53	36	-5.8	81	-8.5	0	0	1017.8	NA	0.0000		9999	0	0	0	0
2019/09/03 03:39:00	BASE	3.54	48	4.27	52	-5.7	81	-8.5	0	0	1017.8	NA	0.0000		9999	0	0	0	0
2019/09/03 03:40:00	BASE	3.53	52	4.27	52	-5.7	80	-8.5	0	0	1017.8	NA	0.0000		9999	0	0	0	0
2019/09/03 03:41:00	BASE	3.55	54	4.32	48	-5.7	80	-8.6	0	0	1017.8	NA	0.0000		9999	0	0	0	0
2019/09/03 03:42:00	BASE	4.04	49	4.58	53	-5.7	80	-8.6	0	0	1017.8	NA	0.0000		9999	0	0	0	0
2019/09/03 03:43:00	BASE	4.23	43	4.73	42	-5.6	80	-8.5	0	0	1017.8	NA	0.0000		9999	0	0	0	0
2019/09/03 03:44:00	BASE	4.06	41	4.73	42	-5.6	80	-8.6	0	0	1017.8	NA	0.0000		9999	0	0	0	0
2019/09/03 03:45:00	BASE	3.61	41	4.73	42	-5.6	80	-8.6	0	0	1017.8	NA	0.0000		9999	0	0	0	0
2019/09/03 03:46:00	BASE	3.27	43	4.73	42	-5.6	79	-8.6	0	0	1017.8	NA	0.0000		9999	0	0	0	0
2019/09/03 03:47:00	BASE	3.29	45	4.73	42	-5.6	79	-8.7	0	0	1017.8	NA	0.0000		9999	0	0	0	0
2019/09/03 03:48:00	BASE	3.34	50	4.73	42	-5.7	79	-8.8	0	0	1017.8	NA	0.0000		9999	0	0	0	0
2019/09/03 03:49:00	BASE	3.43	54	4.73	42	-5.7	78	-8.9	0	0	1017.8	NA	0.0000		9999	0	0	0	0
2019/09/03 03:50:00	BASE	3.52	55	4.73	42	-5.7	78	-8.9	0	0	1017.8	NA	0.0000		9999	0	0	0	0
2019/09/03 03:51:00	BASE	3.35	54	4.73	42	-5.8	78	-8.9	0	0	1017.8	NA	0.0000		9999	0	0	0	0
2019/09/03 03:52:00	BASE	3.19	54	4.73	42	-5.8	78	-8.9	0	0	1017.8	NA	0.0000		9999	0	0	0	0
2019/09/03 03:53:00	BASE	3.31	50	4.17	42	-5.8	78	-8.9	0	0	1017.8	NA	0.0000		9999	0	0	0	0
2019/09/03 03:54:00	BASE	3.82	46	5.09	40	-5.8	78	-8.9	0	0	1017.8	NA	0.0000		9999	0	0	0	0
2019/09/03 03:55:00	BASE	3.93	50	5.09	40	-5.8	78	-9.0	0	0	1017.8	NA	0.0000		9999	0	0	0	0
2019/09/03 03:56:00	BASE	3.64	51	5.09	40	-5.8	79	-9.0	0	0	1017.8	NA	0.0000		9999	0	0	0	0
2019/09/03 03:57:00	BASE	3.63	48	5.09	40	-5.9	79	-9.0	0	0	1017.8	NA	0.0000		9999	0	0	0	0
2019/09/03 03:58:00	BASE	3.92	43	5.09	40	-5.9	79	-9.0	0	0	1017.8	NA	0.0000		9999	0	0	0	0
2019/09/03 03:59:00	BASE	4.20	40	5.09	40	-6.0	79	-9.0	0	0	1017.8	NA	0.0000		9999	0	0	0	0
2019/09/03 04:00:00	BASE	4.45	37	5.09	40	-6.0	79	-9.0	0	0	1017.8	NA	0.0000		9999	0	0	0	0
2019/09/03 04:01:00	BASE	4.57	39	5.50	40	-6.0	79	-9.0	0	0	1017.8	NA	0.0000		9999	0	0	0	0
2019/09/03 04:03:00	BASE	4.27	45	5.50	40	-6.0	80	-8.9	0	0	1017.8	NA	0.0000		9999	0	0	0	0
2019/09/03 04:04:00	BASE	3.90	48	5.50	40	-6.0	80	-8.9	0	0	1017.8	NA	0.0000		9999	0	0	0	0
2019/09/03 04:05:00	BASE	3.68	48	5.50	40	-6.0	80	-8.9	0	0	1017.8	NA	0.0000		9999	0	0	0	0
2019/09/03 04:06:00	BASE	3.35	54	5.50	40	-6.1	80	-9.0	0	0	1017.8	NA	0.0000		9999	0	0	0	0
2019/09/03 04:07:00	BASE	3.40	57	5.50	40	-6.1	80	-9.0	0	0	1017.8	NA	0.0000		9999	0	0	0	0
2019/09/03 04:08:00	BASE	3.48	54	5.50	40	-6.1	80	-9.0	0	0	1017.8	NA	0.0000		9999	0	0	0	0
2019/09/03 04:09:00	BASE	3.51	49	5.50	40	-6.1	80	-9.0	0	0	1017.8	NA	0.0000		9999	0	0	0	0
2019/09/03 04:10:00	BASE	3.59	45	5.50	40	-6.1	80	-9.0	0	0	1017.8	NA	0.0000		9999	0	0	0	0
2019/09/03 04:11:00	BASE	3.41	46	5.50	40	-6.1	80	-9.0	0	0	1017.8	NA	0.0000		9999	0	0	0	0
2019/09/03 04:12:00	BASE	3.59	45	4.53	44	-6.1	80	-9.0	0	0	1017.8	NA	0.0000		9999	0	0	0	0
2019/09/03 04:13:00	BASE	3.71	43	4.32	40	-6.1	80	-8.9	0	0	1017.8	NA	0.0000		9999	0	0	0	0
2019/09/03 04:14:00	BASE	3.62	42	4.32	40	-6.1	81	-8.9	0	0	1017.8	NA	0.0000		9999	0	0	0	0
2019/09/03 04:15:00	BASE	3.51	41	4.32	40	-6.0	81	-8.8	0	0	1017.8	NA	0.0000		9999	0	0	0	0
2019/09/03 04:16:00	BASE	3.34	44	4.32	40	-6.0	81	-8.8	0	0	1017.8	NA	0.0000		9999	0	0	0	0
2019/09/03 04:17:00	BASE	3.55	41	4.32	40	-6.1	81	-8.8	0	0	1017.8	NA	0.0000		9999	0	0	0	0
2019/09/03 04:18:00	BASE	3.68	39	4.32	40	-6.1	81	-8.8	0	0	1017.8	NA	0.0000		9999	0	0	0	0
2019/09/03 04:19:00	BASE	3.57	37	4.32	40	-6.1	81	-8.8	0	0	1017.8	NA	0.0000		9999	0	0	0	0
2019/09/03 04:20:00	BASE	3.44	35	4.32	40	-6.1	81	-8.8	0	0	1017.8	NA	0.0000		9999	0	0	0	0
2019/09/03 04:21:00	BASE	3.34	38	4.32	40	-6.1	81	-8.8	0	0	1017.8	NA	0.0000		9999	0	0	0	0
2019/09/03 04:22:00	BASE	3.60	37	4.27	42	-6.1	81	-8.8	0	0	1017.8	NA	0.0000		9999	0	0	0	0
2019/09/03 04:23:00	BASE	3.79	36	4.27	42	-6.1	81	-8.8	0	0	1017.8	NA	0.0000		9999	0	0	0	0
2019/09/03 04:24:00	BASE	3.76	39	4.22	33	-6.1	81	-8.8	0	0	1017.8	NA	0.0000		9999	0	0	0	0
2019/09/03 04:25:00	BASE	3.81	39	4.32	36	-6.1	81	-8.8	0	0	1017.8	NA	0.0000		9999	0	0	0	0
2019/09/03 04:26:00	BASE	4.05	38	4.89	27	-6.1	81	-8.8	0	0	1017.8	NA	0.0000		9999	0	0	0	0
2019/09/03 04:27:00	BASE	4.09	35	4.89	27	-6.1	81	-8.8	0	0	1017.8	NA	0.0000		9999	0	0	0	0
2019/09/03 04:28:00	BASE	3.85	39	4.89	27	-6.1	81	-8.7	0	0	1017.8	NA	0.0000		9999	0	0	0	0
2019/09/03 04:29:01	BASE	3.80	44	4.89	27	-6.0	81	-8.7	0	0	1017.8	NA	0.0000		9999	0	0	0	0
2019/09/03 04:30:00	BASE	3.94	38	4.89	36	-6.0	82	-8.6	0	0	1017.8	NA	0.0000		9999	0	0	0	0
2019/09/03 04:31:00	BASE	3.80	38	4.89	36	-6.0	81	-8.6	0	0	1017.8	NA	0.0000		9999	0	0	0	0
2019/09/03 04:32:00	BASE	3.54	44	4.89	36	-6.0	81	-8.6	0	0	1017.8	NA	0.0000		9999	1740	0	0	0
2019/09/03 04:33:00	BASE	3.55	44	4.89	36	-6.0	81	-8.7	0	0	1017.8	NA	0.0000		9999	1770	0	0	0
2019/09/03 04:34:00	BASE	3.40	39	4.89	36	-6.0	81	-8.7	0	0	1017.9	NA	0.0000		9999	1770	0	0	0
2019/09/03 04:35:00	BASE	3.25	38	4.89	36	-6.0	81	-8.7	0	0	1017.9	NA	0.0000		9999	1740	0	0	0
2019/09/03 04:36:00	BASE	3.09	34	4.89	36	-6.0	82	-8.6	0	0	1017.9	NA	0.0000		9999	1710	0	0	0
2019/09/03 04:37:00	BASE	2.85	26	4.89	36	-5.9	82	-8.5	0	0	1017.9	NA	0.0000		9999	1770	0	0	0
2019/09/03 04:38:00	BASE	2.75	24	4.89	36	-5.8	82	-8.4	0	0	1017.9	NA	0.0000		9999	1640	0	0	0
2019/09/03 04:39:00	BASE	2.76	20	4.89	36	-5.7	82	-8.4	0	0	1017.9	NA	0.0000		9999	1540	0	0	0
2019/09/03 04:40:00	BASE	2.84	12	4.27	49	-5.7	81	-8.4	0	0	1017.9	NA	0.0000		9999	1570	0	0	0
2019/09/03 04:41:00	BASE	2.73	7	4.27	49	-5.6	81	-8.3	0	0	1017.9	NA	0.0000		9999	1540	0	0	0
2019/09/03 04:42:00	BASE	2.54	10	4.27	49	-5.6	81	-8.3	0	0	1017.9	NA	0.0000		9999	1570	0	0	0
2019/09/03 04:43:00	BASE	2.45	13	4.01	51	-5.6	81	-8.4	0	0	1017.9	NA	0.0000		9999	1570	0	0	0
2019/09/03 04:44:00	BASE	2.16	11	4.01	51	-5.6	81	-8.4	0	0	1017.9	NA	0.0000		9999	1310	0	0	0
2019/09/03 04:45:00	BASE	2.75	355	4.89	336	-5.5	80	-8.4	0	0	1017.9	NA	0.0000		9999	1480	0	0	0
2019/09/03 04:46:00	BASE	3.02	328	4.89	336	-5.5	80	-8.3	0	0	1017.9	NA	0.0000		9999	1480	0	0	0
2019/09/03 04:47:00	BASE	2.53	318	4.89	336	-5.5	80	-8.3	0	0	1017.8	NA	0.0000		9999	1480	0	0	0
2019/09/03 04:48:00	BASE	2.01	343	4.89	336	-5.4	80	-8.2	0	0	1017.9	NA	0.0000		9999	1480	0	0	0
2019/09/03 04:49:00	BASE	1.22	3	4.89	336	-5.4	80	-8.2	0	0	1017.9	NA	0.0000		9999	1480	0	0	0
2019/09/03 04:50:00	BASE	1.69	345	4.89	336	-5.4	81	-8.2	0	0	1017.9	NA	0.0000		9999	1540	0	0	0
2019/09/03 04:51:00	BASE	2.04	324	4.89	336	-5.3	81	-8.1	0	0	1017.9	NA	0.0000		9999	1410	0	0	0
2019/09/03 04:52:00	BASE	1.61	344	4.89	336	-5.4	81	-8.2	0	0	1017.9	NA	0.0000		9999	1440	0	0	0
2019/09/03 04:53:00	BASE	1.44	7	4.89	336	-5.4	81	-8.2	0	0	1017.9	NA	0.0000		9999	1480	0	0	0
2019/09/03 04:54:00	BASE	1.44	359	4.89	336	-5.4	81	-8.2	0	0	1017.9	NA	0.0000		9999	1480	0	0	0
2019/09/03 04:55:00	BASE	1.63	348	2.98	301	-5.4	81	-8.2	0	0	1017.9	NA	0.0000		9999	1510	0	0	0
2019/09/03 04:56:00	BASE	1.92	344	2.98	301	-5.5	81	-8.2	0	0	1017.9	NA	0.0000		9999	1480	0	0	0
2019/09/03 04:57:00	BASE	2.12	341	2.88	319	-5.5	81	-8.2	0	0	1017.9	NA	0.0000		9999	1480	0	0	0
2019/09/03 04:58:00	BASE	2.40	335	3.04	335	-5.5	81	-8.2	0	0	1017.8	NA	0.0000		9999	1310	0	0	0
2019/09/03 04:59:00	BASE	2.69	336	3.09	330	-5.5	81	-8.2	0	0	1017.8	NA	0.0000		9999	1380	0	0	0
2019/09/03 05:00:00	BASE	2.99	341	3.60	344	-5.5	81	-8.2	0	0	1017.8	NA	0.0000		9999	1350	0	0	0
2019/09/03 05:01:00	BASE	3.35	341	3.86	341	-5.5	81	-8.2	0	0	1017.8	NA	0.0000		9999	1380	0	0	0
2019/09/03 05:02:00	BASE	3.26	344	3.86	341	-5.5	81	-8.2	0	0	1017.8	NA	0.0000		9999	1440	0	0	0
2019/09/03 05:03:00	BASE	2.92	354	3.86	341	-5.5	81	-8.2	0	0	1017.8	NA	0.0000		9999	1410	0	0	0
2019/09/03 05:04:00	BASE	3.00	2	3.86	341	-5.5	81	-8.2	0	0	1017.8	NA	0.0000		9999	1350	0	0	0
2019/09/03 05:05:00	BASE	3.66	4	4.37	2	-5.5	81	-8.1	0	0	1017.8	NA	0.0000		9999	1380	0	0	0
2019/09/03 05:06:00	BASE	3.71	3	4.37	2	-5.5	82	-8.1	0	0	1017.8	NA	0.0000		9999	1410	0	0	0
2019/09/03 05:07:00	BASE	3.10	4	4.37	2	-5.5	82	-8.1	0	0	1017.8	NA	0.0000		9999	1480	0	0	0
2019/09/03 05:08:00	BASE	2.69	8	4.37	2	-5.5	82	-8.0	0	0	1017.8	NA	0.0000		9999	1540	0	0	0
2019/09/03 05:09:00	BASE	2.39	18	4.37	2	-5.5	82	-8.1	0	0	1017.8	NA	0.0000		9999	1540	0	0	0
2019/09/03 05:10:00	BASE	2.35	22	4.37	2	-5.5	82	-8.1	0	0	1017.8	NA	0.0000		9999	1610	0	0	0
2019/09/03 05:11:00	BASE	2.31	18	4.37	2	-5.5	82	-8.1	0	0	1017.8	NA	0.0000		9999	1570	0	0	0
2019/09/03 05:12:00	BASE	2.24	25	4.37	2	-5.5	83	-8.0	0	0	1017.8	NA	0.0000		9999	1410	0	0	0
2019/09/03 05:13:00	BASE	2.30	41	4.37	2	-5.6	83	-8.0	0	0	1017.8	NA	0.0000		9999	1410	0	0	0
2019/09/03 05:14:00	BASE	2.66	43	4.37	2	-5.6	83	-8.0	0	0	1017.8	NA	0.0000		9999	1410	0	0	0
2019/09/03 05:15:00	BASE	2.56	28	3.96	347	-5.5	83	-7.9	0	0	1017.8	NA	0.0000		9999	1440	0	0	0
2019/09/03 05:16:00	BASE	2.77	17	4.01	28	-5.5	84	-7.9	0	0	1017.8	NA	0.0000		9999	1480	0	0	0
2019/09/03 05:17:00	BASE	3.32	10	4.01	28	-5.5	84	-7.8	0	0	1017.8	NA	0.0000		9999	1310	0	0	0
2019/09/03 05:18:00	BASE	3.12	6	4.01	28	-5.5	84	-7.8	0	0	1017.8	NA	0.0000		9999	1310	0	0	0
2019/09/03 05:19:00	BASE	3.05	4	4.01	28	-5.6	84	-7.8	0	0	1017.8	NA	0.0000		9999	1280	0	0	0
2019/09/03 05:20:00	BASE	3.20	1	4.01	28	-5.6	85	-7.7	0	0	1017.8	NA	0.0000		9999	1380	0	0	0
2019/09/03 05:21:00	BASE	3.56	2	4.27	1	-5.6	85	-7.7	0	0	1017.7	NA	0.0000		9999	1350	0	0	0
2019/09/03 05:22:00	BASE	4.10	3	4.48	1	-5.6	86	-7.6	0	0	1017.7	NA	0.0000		9999	1350	0	0	0
2019/09/03 05:23:00	BASE	4.46	357	5.04	355	-5.6	86	-7.5	0	0	1017.7	NA	0.0000		9999	1380	0	0	0
2019/09/03 05:24:00	BASE	4.15	352	5.04	355	-5.5	87	-7.3	0	0	1017.7	NA	0.0000		9999	1350	0	0	0
2019/09/03 05:25:00	BASE	3.46	357	5.04	355	-5.4	87	-7.3	0	0	1017.7	NA	0.0000		9999	1350	0	0	0
2019/09/03 05:26:00	BASE	3.37	0	5.04	355	-5.4	87	-7.2	0	0	1017.7	NA	0.0000		9999	1350	0	0	0
2019/09/03 05:27:00	BASE	3.75	353	5.04	355	-5.4	87	-7.2	0	0	1017.8	NA	0.0000		9999	1280	0	0	0
2019/09/03 05:28:00	BASE	4.19	351	5.04	355	-5.4	87	-7.2	0	0	1017.7	NA	0.0000		9999	1280	0	0	0
2019/09/03 05:29:00	BASE	4.34	354	5.04	355	-5.4	88	-7.1	0	0	1017.7	NA	0.0000		9999	1280	0	0	0
2019/09/03 05:30:00	BASE	4.17	357	5.04	355	-5.4	88	-7.1	0	0	1017.7	NA	0.0000		9999	1310	0	0	0
2019/09/03 05:31:00	BASE	3.75	356	5.04	355	-5.4	88	-7.0	0	0	1017.7	NA	0.0000		9999	1310	0	0	0
2019/09/03 05:32:00	BASE	3.54	349	5.04	355	-5.3	89	-6.9	0	0	1017.7	NA	0.0000		9999	1350	0	0	0
2019/09/03 05:33:00	BASE	3.37	348	4.89	352	-5.2	89	-6.8	0	0	1017.7	NA	0.0000		9999	1350	0	0	0
2019/09/03 05:34:00	BASE	3.09	349	4.89	352	-5.2	89	-6.7	0	0	1017.7	NA	0.0000		9999	1350	0	0	0
2019/09/03 05:35:00	BASE	3.90	344	4.99	340	-5.2	89	-6.7	0	0	1017.7	NA	0.0000		9999	1350	0	0	0
2019/09/03 05:36:00	BASE	4.69	341	5.04	343	-5.2	89	-6.7	0	0	1017.7	NA	0.0000		9999	1310	0	0	0
2019/09/03 05:37:00	BASE	4.41	337	5.04	343	-5.2	89	-6.6	0	0	1017.7	NA	0.0000		9999	1280	0	0	0
2019/09/03 05:38:00	BASE	3.87	336	5.04	343	-5.2	90	-6.6	0	0	1017.7	NA	0.0000		9999	1310	0	0	0
2019/09/03 05:39:00	BASE	4.22	337	5.04	343	-5.2	90	-6.6	0	0	1017.7	NA	0.0000		9999	1280	0	0	0
2019/09/03 05:40:00	BASE	4.67	338	5.04	343	-5.2	90	-6.5	0	0	1017.7	NA	0.0000		9999	1250	0	0	0
2019/09/03 05:41:00	BASE	4.25	338	5.04	343	-5.2	90	-6.5	0	0	1017.8	NA	0.0000		9999	1250	0	0	0
2019/09/03 05:42:00	BASE	3.97	332	5.04	343	-5.1	91	-6.4	0	0	1017.8	NA	0.0000		9999	1080	0	0	0
2019/09/03 05:43:00	BASE	3.67	331	5.04	343	-5.1	91	-6.4	0	0	1017.7	NA	0.0000		9999	980	0	0	0
2019/09/03 05:44:00	BASE	3.41	338	5.04	343	-5.2	91	-6.4	0	0	1017.7	NA	0.0000		9999	980	0	0	0
2019/09/03 05:45:00	BASE	3.99	347	5.04	343	-5.2	91	-6.4	0	0	1017.7	NA	0.0000		9999	980	0	0	0
2019/09/03 05:46:00	BASE	4.71	352	5.04	353	-5.2	91	-6.4	0	0	1017.7	NA	0.0000		9999	1020	0	0	0
2019/09/03 05:47:00	BASE	4.98	352	5.30	350	-5.2	91	-6.4	0	0	1017.7	NA	0.0000		9999	1150	0	0	0
2019/09/03 05:48:00	BASE	4.70	352	5.30	350	-5.3	92	-6.4	0	0	1017.7	NA	0.0000		9999	1020	0	0	0
2019/09/03 05:49:00	BASE	4.34	359	5.30	350	-5.3	92	-6.4	0	0	1017.7	NA	0.0000		9999	1120	0	0	0
2019/09/03 05:50:00	BASE	4.38	358	5.30	350	-5.3	92	-6.4	0	0	1017.7	NA	0.0000		9999	1080	0	0	0
2019/09/03 05:51:00	BASE	4.62	345	5.92	336	-5.3	92	-6.5	0	0	1017.7	NA	0.0000		9999	920	0	0	0
2019/09/03 05:52:00	BASE	4.89	339	5.92	336	-5.3	92	-6.5	0	0	1017.6	NA	0.0000		9999	950	0	0	0
2019/09/03 05:53:00	BASE	5.22	334	6.89	327	-5.3	92	-6.4	0	0	1017.6	NA	0.0000		9999	980	0	0	0
2019/09/03 05:54:00	BASE	5.11	315	7.41	310	-5.2	92	-6.3	0	0	1017.6	NA	0.0000		9999	890	0	0	0
2019/09/03 05:55:00	BASE	4.71	285	7.41	310	-5.2	93	-6.2	0	0	1017.6	NA	0.0000		9999	920	0	0	0
2019/09/03 05:56:00	BASE	5.19	273	7.41	310	-5.1	93	-6.0	0	0	1017.6	NA	0.0000		9999	850	0	0	0
2019/09/03 05:57:00	BASE	6.15	274	7.92	270	-5.1	94	-5.9	0	0	1017.5	NA	0.0000		9999	980	0	0	0
2019/09/03 05:58:00	BASE	7.23	274	8.64	278	-5.0	95	-5.8	0	0	1017.5	NA	0.0000		9999	950	0	0	0
2019/09/03 05:59:00	BASE	7.30	277	8.64	278	-5.0	95	-5.7	0	0	1017.5	NA	0.0000		9999	1050	0	0	0
2019/09/03 06:00:00	BASE	6.63	274	8.64	278	-5.1	96	-5.6	0	0	1017.5	NA	0.0000		9999	1050	0	0	0
2019/09/03 06:01:00	BASE	6.26	272	8.64	278	-5.1	97	-5.6	0	0	1017.5	NA	0.0000		9999	1080	0	0	0
2019/09/03 06:02:00	BASE	6.39	273	8.64	278	-5.1	97	-5.5	0	0	1017.5	NA	0.0000		9999	1080	0	0	0
2019/09/03 06:03:00	BASE	6.73	273	8.64	278	-5.1	98	-5.4	0	0	1017.5	NA	0.0000		9999	1080	0	0	0
2019/09/03 06:04:00	BASE	6.42	275	8.64	278	-5.2	98	-5.4	0	0	1017.4	NA	0.0000		9999	1080	0	0	0
2019/09/03 06:05:00	BASE	6.24	281	8.64	278	-5.2	99	-5.3	0	0	1017.5	NA	0.0000		9999	1120	0	0	0
2019/09/03 06:06:00	BASE	6.22	280	8.64	278	-5.2	99	-5.3	0	0	1017.5	NA	0.0000		9999	1150	0	0	0
2019/09/03 06:07:00	BASE	6.32	278	8.64	278	-5.2	100	-5.2	0	0	1017.5	NA	0.0000		9999	1050	0	0	0
2019/09/03 06:08:00	BASE	6.33	280	7.92	274	-5.2	100	-5.2	0	0	1017.5	NA	0.0000		9999	1120	0	0	0
2019/09/03 06:09:00	BASE	5.95	279	7.92	274	-5.2	100	-5.2	0	0	1017.5	NA	0.0000		9999	1150	0	0	0
2019/09/03 06:10:00	BASE	5.71	271	7.92	274	-5.2	100	-5.2	0	0	1017.6	NA	0.0000		9999	1050	0	0	0
2019/09/03 06:11:00	BASE	5.68	264	7.92	274	-5.2	100	-5.2	0	0	1017.6	NA	0.0000		9999	1120	0	0	0
2019/09/03 06:12:00	BASE	6.01	264	7.97	273	-5.2	100	-5.2	0	0	1017.5	NA	0.0000		9999	1150	0	0	0
2019/09/03 06:13:00	BASE	6.65	267	8.23	258	-5.2	100	-5.2	0	0	1017.5	NA	0.0000		9999	1050	0	0	0
2019/09/03 06:14:00	BASE	6.69	269	8.23	258	-5.2	100	-5.2	0	0	1017.5	NA	0.0000		9999	1080	0	0	0
2019/09/03 06:15:00	BASE	5.86	266	8.23	258	-5.2	100	-5.2	0	0	1017.5	NA	0.0000		9999	1050	0	0	0
2019/09/03 06:16:00	BASE	5.91	259	8.23	258	-5.2	100	-5.2	0	0	1017.4	NA	0.0000		9999	1080	0	0	0
2019/09/03 06:17:00	BASE	6.25	261	8.23	258	-5.3	100	-5.3	0	0	1017.3	NA	0.0000		9999	1120	0	0	0
2019/09/03 06:18:00	BASE	6.08	267	8.23	258	-5.3	100	-5.3	0	0	1017.3	NA	0.0000		9999	1120	0	0	0
2019/09/03 06:19:00	BASE	6.61	262	8.23	258	-5.3	100	-5.3	0	0	1017.3	NA	0.0000		9999	1120	0	0	0
2019/09/03 06:20:00	BASE	6.90	260	8.23	258	-5.3	100	-5.3	0	0	1017.3	NA	0.0000		9999	1020	0	0	0
2019/09/03 06:21:00	BASE	5.97	265	8.23	258	-5.3	100	-5.3	0	0	1017.3	NA	0.0000		9999	980	0	0	0
2019/09/03 06:22:00	BASE	5.66	267	8.23	258	-5.4	100	-5.4	0	0	1017.2	NA	0.0000		9999	1020	0	0	0
2019/09/03 06:23:00	BASE	5.82	265	7.92	264	-5.4	100	-5.4	0	0	1017.2	NA	0.0000		9999	750	0	0	0
2019/09/03 06:24:00	BASE	5.70	263	7.82	263	-5.4	100	-5.4	0	0	1017.2	NA	0.0000		9999	820	0	0	0
2019/09/03 06:25:00	BASE	6.20	260	7.82	263	-5.4	100	-5.4	0	0	1017.2	NA	0.0000		9999	820	0	0	0
2019/09/03 06:26:00	BASE	5.83	259	7.82	263	-5.4	100	-5.4	0	0	1017.2	NA	0.0000		9999	920	0	0	0
2019/09/03 06:27:00	BASE	5.56	256	7.82	263	-5.4	100	-5.4	0	0	1017.2	NA	0.0000		9999	1020	0	0	0
2019/09/03 06:28:00	BASE	5.90	253	7.82	263	-5.4	100	-5.4	0	0	1017.2	NA	0.0000		9999	1120	0	0	0
2019/09/03 06:29:00	BASE	5.92	254	7.77	264	-5.4	100	-5.4	0	0	1017.2	NA	0.0000		9999	980	0	0	0
2019/09/03 06:30:00	BASE	6.20	254	7.46	262	-5.4	100	-5.4	0	0	1017.2	NA	0.0000		9999	1020	0	0	0
2019/09/03 06:31:01	BASE	6.30	255	7.46	262	-5.4	100	-5.4	0	0	1017.2	NA	0.0000		9999	1120	0	0	0
2019/09/03 06:32:00	BASE	5.98	258	7.46	262	-5.5	100	-5.5	0	0	1017.2	NA	0.0000		9999	850	0	0	0
2019/09/03 06:33:00	BASE	5.65	261	7.46	262	-5.5	100	-5.5	0	0	1017.2	NA	0.0000		9999	1050	0	0	0
2019/09/03 06:34:00	BASE	5.78	258	7.46	262	-5.5	100	-5.5	0	0	1017.2	NA	0.0000		9999	1120	0	0	0
2019/09/03 06:35:00	BASE	6.82	254	7.97	250	-5.5	100	-5.5	0	0	1017.2	NA	0.0000		9999	1080	0	0	0
2019/09/03 06:36:00	BASE	6.82	255	7.97	250	-5.5	100	-5.5	0	0	1017.2	NA	0.0000		9999	1020	0	0	0
2019/09/03 06:37:00	BASE	6.42	256	7.97	250	-5.5	100	-5.5	0	0	1017.2	NA	0.0000		9999	1080	0	0	0
2019/09/03 06:38:00	BASE	6.96	252	7.97	250	-5.5	100	-5.5	0	0	1017.2	NA	0.0000		9999	980	0	0	0
2019/09/03 06:39:00	BASE	7.03	252	7.97	250	-5.5	100	-5.5	0	0	1017.2	NA	0.0000		9999	1050	0	0	0
2019/09/03 06:40:01	BASE	6.76	254	7.97	250	-5.5	100	-5.5	0	0	1017.2	NA	0.0000		9999	1080	0	0	0
2019/09/03 06:41:00	BASE	6.24	261	7.97	250	-5.5	100	-5.5	0	0	1017.2	NA	0.0000		9999	1020	0	0	0
2019/09/03 06:42:01	BASE	5.62	271	7.97	250	-5.5	100	-5.5	0	0	1017.2	NA	0.0000		9999	980	0	0	0
2019/09/03 06:43:00	BASE	4.73	272	7.97	250	-5.5	100	-5.5	0	0	1017.2	NA	0.0000		9999	1020	0	0	0
2019/09/03 06:44:00	BASE	4.42	263	7.97	250	-5.5	100	-5.5	0	0	1017.2	NA	0.0000		9999	1050	0	0	0
2019/09/03 06:45:00	BASE	4.62	260	7.77	257	-5.6	100	-5.6	0	0	1017.2	NA	0.0000		9999	1020	0	0	0
2019/09/03 06:46:00	BASE	4.59	266	7.77	257	-5.6	100	-5.6	0	0	1017.2	NA	0.0000		9999	1050	0	0	0
2019/09/03 06:47:00	BASE	5.23	267	7.77	257	-5.6	100	-5.6	0	0	1017.1	NA	0.0000		9999	1050	0	0	0
2019/09/03 06:48:00	BASE	5.45	265	7.77	257	-5.6	100	-5.6	0	0	1017.1	NA	0.0000		9999	1050	0	0	0
2019/09/03 06:49:00	BASE	4.69	264	7.77	257	-5.6	100	-5.6	0	0	1017.2	NA	0.0000		9999	1050	0	0	0
2019/09/03 06:50:00	BASE	4.34	262	7.46	254	-5.6	100	-5.6	0	0	1017.2	NA	0.0000		9999	950	0	0	0
2019/09/03 06:51:00	BASE	4.01	267	6.58	253	-5.6	100	-5.6	0	0	1017.1	NA	0.0000		9999	980	0	0	0
2019/09/03 06:52:00	BASE	3.47	271	6.58	253	-5.6	100	-5.6	0	0	1017.1	NA	0.0000		9999	980	0	0	0
2019/09/03 06:53:00	BASE	3.76	268	6.58	253	-5.6	100	-5.6	0	0	1017.1	NA	0.0000		9999	980	0	0	0
2019/09/03 06:54:00	BASE	4.75	263	6.48	261	-5.6	100	-5.6	0	0	1017.1	NA	0.0000		9999	980	0	0	0
2019/09/03 06:55:00	BASE	5.17	260	6.48	261	-5.6	100	-5.6	0	0	1017.1	NA	0.0000		9999	950	0	0	0
2019/09/03 06:56:00	BASE	4.97	263	6.48	261	-5.6	100	-5.6	0	0	1017.0	NA	0.0000		9999	950	0	0	0
2019/09/03 06:57:00	BASE	5.08	263	6.48	253	-5.6	100	-5.6	0	0	1017.0	NA	0.0000		9999	980	0	0	0
2019/09/03 06:58:01	BASE	5.18	261	6.48	253	-5.7	100	-5.7	0	0	1017.0	NA	0.0000		9999	980	0	0	0
2019/09/03 06:59:00	BASE	4.96	261	6.48	253	-5.7	100	-5.7	0	0	1017.0	NA	0.0000		9999	980	0	0	0
2019/09/03 07:00:00	BASE	5.19	269	6.48	253	-5.7	100	-5.7	0	0	1016.9	NA	0.0000		9999	980	0	0	0
2019/09/03 07:01:01	BASE	5.27	271	6.48	253	-5.7	100	-5.7	0	0	1016.9	NA	0.0000		9999	950	0	0	0
2019/09/03 07:02:00	BASE	5.01	270	6.48	253	-5.7	100	-5.7	0	0	1016.9	NA	0.0000		9999	980	0	0	0
2019/09/03 07:03:00	BASE	5.26	272	6.48	253	-5.7	100	-5.7	0	0	1016.9	NA	0.0000		9999	950	0	0	0
2019/09/03 07:04:00	BASE	5.44	269	6.84	270	-5.7	100	-5.7	0	0	1016.9	NA	0.0000		9999	950	0	0	0
2019/09/03 07:05:00	BASE	5.34	262	6.84	270	-5.8	100	-5.8	0	0	1016.9	NA	0.0000		9999	950	0	0	0
2019/09/03 07:06:00	BASE	5.26	256	6.84	270	-5.8	100	-5.8	0	0	1016.9	NA	0.0000		9999	950	0	0	0
2019/09/03 07:07:00	BASE	4.63	261	6.84	270	-5.8	100	-5.8	0	0	1016.9	NA	0.0000		9999	980	0	0	0
2019/09/03 07:08:00	BASE	3.90	273	6.84	270	-5.8	100	-5.8	0	0	1016.9	NA	0.0000		9999	980	0	0	0
2019/09/03 07:09:00	BASE	3.87	275	6.84	270	-5.8	100	-5.8	0	0	1016.9	NA	0.0000		9999	950	0	0	0
2019/09/03 07:10:00	BASE	4.19	274	6.84	270	-5.8	100	-5.8	0	0	1016.9	NA	0.0000		9999	980	0	0	0
2019/09/03 07:11:00	BASE	4.59	278	6.84	270	-5.8	100	-5.8	0	0	1016.9	NA	0.0000		9999	950	0	0	0
2019/09/03 07:12:00	BASE	4.58	280	6.84	270	-5.7	100	-5.7	0	0	1016.9	NA	0.0000		9999	980	0	0	0
2019/09/03 07:13:00	BASE	4.58	274	6.84	270	-5.7	100	-5.7	0	0	1016.9	NA	0.0000		9999	950	0	0	0
2019/09/03 07:14:00	BASE	4.84	263	6.02	267	-5.7	100	-5.7	0	0	1016.9	NA	0.0000		9999	950	0	0	0
2019/09/03 07:15:01	BASE	4.51	262	5.81	277	-5.7	100	-5.7	0	0	1016.9	NA	0.0000		9999	950	0	0	0
2019/09/03 07:16:01	BASE	4.73	266	5.81	277	-5.7	100	-5.7	0	0	1016.9	NA	0.0000		9999	950	0	0	0
2019/09/03 07:17:01	BASE	5.58	258	6.17	248	-5.8	100	-5.8	0	0	1016.9	NA	0.0000		9999	850	0	0	0
2019/09/03 07:18:00	BASE	5.55	250	6.17	248	-5.8	100	-5.8	0	0	1016.9	NA	0.0000		9999	850	0	0	0
2019/09/03 07:19:00	BASE	5.17	251	6.17	248	-5.8	100	-5.8	0	0	1016.9	NA	0.0000		9999	890	0	0	0
2019/09/03 07:20:00	BASE	4.94	248	6.17	248	-5.8	100	-5.8	0	0	1016.9	NA	0.0000		9999	920	0	0	0
2019/09/03 07:21:00	BASE	4.60	245	6.17	248	-5.9	100	-5.9	0	0	1016.9	NA	0.0000		9999	950	0	0	0
2019/09/03 07:22:00	BASE	3.75	251	6.17	248	-5.9	100	-5.9	0	0	1016.9	NA	0.0000		9999	950	0	0	0
2019/09/03 07:23:00	BASE	3.11	256	6.17	248	-5.9	100	-5.9	0	0	1016.9	NA	0.0000		9999	920	0	0	0
2019/09/03 07:24:00	BASE	3.41	258	6.17	248	-5.9	100	-5.9	0	0	1016.9	NA	0.0000		9999	850	0	0	0
2019/09/03 07:25:00	BASE	3.57	280	6.17	248	-5.9	100	-5.9	0	0	1016.9	NA	0.0000		9999	920	0	0	0
2019/09/03 07:26:00	BASE	3.32	283	6.17	248	-5.8	100	-5.8	0	0	1016.9	NA	0.0000		9999	920	0	0	0
2019/09/03 07:27:00	BASE	3.15	270	5.81	256	-5.8	100	-5.8	0	0	1017.0	NA	0.0000		9999	920	0	0	0
2019/09/03 07:28:00	BASE	3.08	266	5.81	256	-5.8	100	-5.8	0	0	1017.0	NA	0.0000		9999	920	0	0	0
2019/09/03 07:29:00	BASE	3.59	258	5.20	241	-5.8	100	-5.8	0	0	1017.0	NA	0.0000		9999	890	0	0	0
2019/09/03 07:30:00	BASE	3.68	262	5.14	258	-5.8	100	-5.8	0	0	1017.0	NA	0.0000		9999	890	0	0	0
2019/09/03 07:31:00	BASE	3.69	269	5.71	265	-5.8	100	-5.8	0	0	1017.0	NA	0.0000		9999	920	0	0	0
2019/09/03 07:32:00	BASE	4.60	273	5.71	265	-5.8	100	-5.8	0	0	1017.0	NA	0.0000		9999	920	0	0	0
2019/09/03 07:33:00	BASE	4.98	267	5.71	260	-5.8	100	-5.8	0	0	1017.0	NA	0.0000		9999	920	0	0	0
2019/09/03 07:34:00	BASE	5.03	262	5.81	273	-5.8	100	-5.8	0	0	1017.0	NA	0.0000		9999	920	0	0	0
2019/09/03 07:35:00	BASE	5.11	265	5.81	254	-5.8	100	-5.8	0	0	1017.0	NA	0.0000		9999	850	0	0	0
2019/09/03 07:36:00	BASE	4.89	270	5.81	254	-5.8	100	-5.8	0	0	1017.0	NA	0.0000		9999	850	0	0	0
2019/09/03 07:37:00	BASE	4.89	271	6.17	269	-5.8	100	-5.8	0	0	1017.0	NA	0.0000		9999	850	0	0	0
2019/09/03 07:38:00	BASE	5.23	270	6.17	277	-5.8	100	-5.8	0	0	1017.0	NA	0.0000		9999	920	0	0	0
2019/09/03 07:39:00	BASE	5.22	271	6.17	277	-5.9	100	-5.9	0	0	1017.0	NA	0.0000		9999	920	0	0	0
2019/09/03 07:40:00	BASE	5.29	269	6.53	269	-5.9	100	-5.9	0	0	1017.0	NA	0.0000		9999	850	0	0	0
2019/09/03 07:41:00	BASE	4.97	270	6.53	269	-5.9	100	-5.9	0	0	1017.0	NA	0.0000		9999	820	0	0	0
2019/09/03 07:42:00	BASE	4.34	271	6.53	269	-5.9	100	-5.9	0	0	1017.0	NA	0.0000		9999	890	0	0	0
2019/09/03 07:43:00	BASE	4.19	270	6.53	269	-5.9	100	-5.9	0	0	1017.0	NA	0.0000		9999	890	0	0	0
2019/09/03 07:44:00	BASE	4.13	260	6.53	269	-5.9	100	-5.9	0	0	1017.0	NA	0.0000		9999	890	0	0	0
2019/09/03 07:45:00	BASE	4.78	249	6.53	269	-5.9	100	-5.9	0	0	1017.0	NA	0.0000		9999	920	0	0	0
2019/09/03 07:46:00	BASE	5.12	250	6.53	269	-5.9	100	-5.9	0	0	1017.0	NA	0.0000		9999	890	0	0	0
2019/09/03 07:47:00	BASE	4.58	254	6.53	269	-5.9	100	-5.9	0	0	1017.0	NA	0.0000		9999	850	0	0	0
2019/09/03 07:48:00	BASE	4.24	257	6.53	269	-5.9	100	-5.9	0	0	1017.0	NA	0.0000		9999	890	0	0	0
2019/09/03 07:49:00	BASE	4.02	265	6.53	269	-5.9	100	-5.9	0	0	1017.0	NA	0.0000		9999	890	0	0	0
2019/09/03 07:50:00	BASE	3.52	271	6.02	247	-5.9	100	-5.9	0	0	1017.1	NA	0.0000		9999	890	0	0	0
2019/09/03 07:51:00	BASE	3.09	262	6.02	247	-5.9	100	-5.9	0	0	1017.1	NA	0.0000		9999	920	0	0	0
2019/09/03 07:52:00	BASE	3.74	259	6.02	247	-5.9	100	-5.9	0	0	1017.0	NA	0.0000		9999	920	0	0	0
2019/09/03 07:53:00	BASE	4.48	264	6.02	247	-5.9	100	-5.9	0	0	1017.0	NA	0.0000		9999	850	0	0	0
2019/09/03 07:54:00	BASE	4.06	261	6.02	247	-5.9	100	-5.9	0	0	1017.0	NA	0.0000		9999	890	0	0	0
2019/09/03 07:55:00	BASE	3.43	260	5.25	276	-5.9	100	-5.9	0	0	1017.0	NA	0.0000		9999	890	0	0	0
2019/09/03 07:56:00	BASE	3.73	259	5.25	276	-6.0	100	-6.0	0	0	1017.0	NA	0.0000		9999	920	0	0	0
2019/09/03 07:57:00	BASE	4.13	262	5.25	276	-6.0	100	-6.0	0	0	1017.0	NA	0.0000		9999	950	0	0	0
2019/09/03 07:58:00	BASE	3.71	283	5.25	276	-6.0	100	-6.0	0	0	1017.0	NA	0.0000		9999	950	0	0	0
2019/09/03 07:59:00	BASE	3.79	294	5.76	317	-6.0	100	-6.0	0	0	1017.0	NA	0.0000		9999	920	0	0	0
2019/09/03 08:00:00	BASE	4.90	302	6.38	315	-6.0	100	-6.0	0	0	1017.0	NA	0.0000		9999	950	0	0	0
2019/09/03 08:01:00	BASE	5.34	311	6.38	315	-6.0	100	-6.0	0	0	1017.0	NA	0.0000		9999	950	0	0	0
2019/09/03 08:02:01	BASE	5.58	321	6.69	328	-6.0	100	-6.0	0	0	1017.0	NA	0.0000		9999	950	0	0	0
2019/09/03 08:03:00	BASE	6.27	328	6.94	332	-6.0	100	-6.0	0	0	1016.9	NA	0.0000		9999	950	0	0	0
2019/09/03 08:04:00	BASE	5.95	322	6.94	332	-6.0	100	-6.0	0	0	1016.9	NA	0.0000		9999	950	0	0	0
2019/09/03 08:05:00	BASE	5.46	316	6.94	332	-6.1	100	-6.1	0	0	1017.0	NA	0.0000		9999	920	0	0	0
2019/09/03 08:06:00	BASE	5.00	316	6.94	332	-6.1	100	-6.1	0	0	1016.9	NA	0.0000		9999	950	0	0	0
2019/09/03 08:07:00	BASE	4.76	314	6.94	332	-6.1	100	-6.1	0	0	1016.9	NA	0.0000		9999	920	0	0	0
2019/09/03 08:08:00	BASE	4.94	313	6.94	332	-6.1	100	-6.1	0	0	1016.9	NA	0.0000		9999	950	0	0	0
2019/09/03 08:09:00	BASE	5.48	318	6.94	332	-6.1	100	-6.1	0	0	1016.9	NA	0.0000		9999	920	0	0	0
2019/09/03 08:10:00	BASE	5.64	323	6.94	332	-6.1	100	-6.1	0	0	1016.9	NA	0.0000		9999	950	0	0	0
2019/09/03 08:11:00	BASE	5.30	325	6.94	332	-6.1	100	-6.1	0	0	1016.9	NA	0.0000		9999	950	0	0	0
2019/09/03 08:12:01	BASE	4.79	320	6.94	332	-6.1	100	-6.1	0	0	1016.9	NA	0.0000		9999	950	0	0	0
2019/09/03 08:13:01	BASE	4.36	315	6.74	313	-6.1	100	-6.1	0	0	1016.9	NA	0.0000		9999	950	0	0	0
2019/09/03 08:14:01	BASE	4.82	318	6.74	313	-6.1	100	-6.1	0	0	1016.9	NA	0.0000		9999	950	0	0	0
2019/09/03 08:15:01	BASE	5.62	308	6.94	292	-6.1	100	-6.1	0	0	1016.9	NA	0.0000		9999	950	0	0	0
2019/09/03 08:16:01	BASE	5.80	300	6.94	292	-6.1	100	-6.1	0	0	1016.9	NA	0.0000		9999	890	0	0	0
2019/09/03 08:17:01	BASE	5.57	303	6.94	292	-6.1	100	-6.1	0	0	1016.9	NA	0.0000		9999	920	0	0	0
2019/09/03 08:18:01	BASE	5.75	303	6.94	292	-6.1	100	-6.1	0	0	1016.9	NA	0.0000		9999	920	0	0	0
2019/09/03 08:19:01	BASE	5.90	306	6.94	292	-6.1	100	-6.1	0	0	1016.9	NA	0.0000		9999	890	0	0	0
2019/09/03 08:20:01	BASE	6.07	312	6.94	292	-6.1	100	-6.1	0	0	1016.9	NA	0.0000		9999	890	0	0	0
2019/09/03 08:21:01	BASE	5.52	319	6.94	292	-6.1	100	-6.1	0	0	1016.9	NA	0.0000		9999	890	0	0	0
2019/09/03 08:22:01	BASE	4.72	324	6.94	292	-6.1	100	-6.1	0	0	1016.9	NA	0.0000		9999	920	0	0	0
2019/09/03 08:23:00	BASE	4.49	322	6.94	292	-6.1	100	-6.1	0	0	1016.8	NA	0.0000		9999	850	0	0	0
2019/09/03 08:24:01	BASE	4.09	315	6.94	292	-6.1	100	-6.1	0	0	1016.8	NA	0.0000		9999	920	0	0	0
2019/09/03 08:25:00	BASE	4.04	311	6.69	312	-6.1	100	-6.1	0	0	1016.7	NA	0.0000		9999	950	0	0	0
2019/09/03 08:26:01	BASE	3.79	317	6.69	312	-6.1	100	-6.1	0	0	1016.7	NA	0.0000		9999	980	0	0	0
2019/09/03 08:27:01	BASE	3.09	330	6.69	312	-6.2	100	-6.2	0	0	1016.7	NA	0.0000		9999	980	0	0	0
2019/09/03 08:28:01	BASE	2.78	337	6.69	312	-6.2	100	-6.2	0	0	1016.7	NA	0.0000		9999	1020	0	0	0
2019/09/03 08:29:00	BASE	3.00	337	6.69	312	-6.2	100	-6.2	0	0	1016.7	NA	0.0000		9999	920	0	0	0
2019/09/03 08:30:00	BASE	3.34	336	5.25	321	-6.2	100	-6.2	0	0	1016.7	NA	0.0000		9999	920	0	0	0
2019/09/03 08:31:00	BASE	4.02	331	5.45	315	-6.2	100	-6.2	0	0	1016.7	NA	0.0000		9999	950	0	0	0
2019/09/03 08:32:00	BASE	5.02	318	6.12	308	-6.2	100	-6.2	0	0	1016.7	NA	0.0000		9999	980	0	0	0
2019/09/03 08:33:00	BASE	5.31	303	6.12	308	-6.2	100	-6.2	0	0	1016.7	NA	0.0000		9999	980	0	0	0
2019/09/03 08:34:00	BASE	4.80	300	6.12	308	-6.2	100	-6.2	0	0	1016.7	NA	0.0000		9999	950	0	0	0
2019/09/03 08:35:00	BASE	4.05	310	6.12	308	-6.2	100	-6.2	0	0	1016.7	NA	0.0000		9999	1020	0	0	0
2019/09/03 08:36:00	BASE	3.43	313	6.12	308	-6.2	100	-6.2	0	0	1016.7	NA	0.0000		9999	1020	0	0	0
2019/09/03 08:37:00	BASE	3.29	307	6.12	308	-6.2	100	-6.2	0	0	1016.7	NA	0.0000		9999	1020	0	0	0
2019/09/03 08:38:00	BASE	3.20	297	6.12	308	-6.2	100	-6.2	0	0	1016.7	NA	0.0000		9999	980	0	0	0
2019/09/03 08:39:00	BASE	3.27	290	6.12	308	-6.2	100	-6.2	0	0	1016.7	NA	0.0000		9999	950	0	0	0
2019/09/03 08:40:00	BASE	3.30	291	6.12	308	-6.1	100	-6.1	0	0	1016.7	NA	0.0000		9999	950	0	0	0
2019/09/03 08:41:01	BASE	3.07	294	6.12	308	-6.1	100	-6.1	0	0	1016.7	NA	0.0000		9999	850	0	0	0
2019/09/03 08:42:01	BASE	3.28	300	5.61	285	-6.1	100	-6.1	0	0	1016.7	NA	0.0000		9999	850	0	0	0
2019/09/03 08:43:01	BASE	3.84	314	5.25	304	-6.1	100	-6.1	0	0	1016.6	NA	0.0000		9999	890	0	0	0
2019/09/03 08:44:01	BASE	3.84	333	4.42	326	-6.2	100	-6.2	0	0	1016.6	NA	0.0000		9999	950	0	0	0
2019/09/03 08:45:01	BASE	3.23	342	4.42	326	-6.2	100	-6.2	0	0	1016.6	NA	0.0000		9999	980	0	0	0
2019/09/03 08:46:01	BASE	2.99	343	4.42	326	-6.2	100	-6.2	0	0	1016.6	NA	0.0000		9999	980	0	0	0
2019/09/03 08:47:00	BASE	2.90	341	4.42	326	-6.2	100	-6.2	0	0	1016.6	NA	0.0000		9999	980	0	0	0
2019/09/03 08:48:00	BASE	2.79	332	4.42	326	-6.2	100	-6.2	0	0	1016.6	NA	0.0000		9999	980	0	0	0
2019/09/03 08:49:00	BASE	2.82	326	4.42	326	-6.2	100	-6.2	0	0	1016.5	NA	0.0000		9999	950	0	0	0
2019/09/03 08:50:00	BASE	3.12	325	4.42	326	-6.2	100	-6.2	0	0	1016.5	NA	0.0000		9999	980	0	0	0
2019/09/03 08:51:00	BASE	3.72	317	4.48	314	-6.2	100	-6.2	0	0	1016.5	NA	0.0000		9999	980	0	0	0
2019/09/03 08:52:00	BASE	4.21	309	4.78	308	-6.2	100	-6.2	0	0	1016.6	NA	0.0000		9999	1020	0	0	0
2019/09/03 08:53:00	BASE	4.33	310	4.78	308	-6.2	100	-6.2	0	0	1016.6	NA	0.0000		9999	950	0	0	0
2019/09/03 08:54:00	BASE	4.30	315	4.78	308	-6.2	100	-6.2	0	0	1016.6	NA	0.0000		9999	1020	0	0	0
2019/09/03 08:55:00	BASE	4.26	295	4.78	240	-6.2	100	-6.2	0	0	1016.6	NA	0.0000		9999	1020	0	0	0
2019/09/03 08:56:00	BASE	4.35	266	5.14	263	-6.2	100	-6.2	0	0	1016.6	NA	0.0000		9999	1050	0	0	0
2019/09/03 08:57:00	BASE	3.94	260	5.14	263	-6.2	100	-6.2	0	0	1016.6	NA	0.0000		9999	980	0	0	0
2019/09/03 08:58:00	BASE	2.91	268	5.14	263	-6.3	100	-6.3	0	0	1016.6	NA	0.0000		9999	950	0	0	0
2019/09/03 08:59:00	BASE	2.33	277	5.14	263	-6.3	100	-6.3	0	0	1016.6	NA	0.0000		9999	920	0	0	0
2019/09/03 09:00:00	BASE	2.21	285	5.14	263	-6.3	100	-6.3	0	0	1016.6	NA	0.0000		9999	920	0	0	0
2019/09/03 09:01:00	BASE	2.06	299	5.14	263	-6.3	100	-6.3	0	0	1016.6	NA	0.0000		9999	1020	0	0	0
2019/09/03 09:02:01	BASE	2.07	303	5.14	263	-6.3	100	-6.3	0	0	1016.6	NA	0.0000		9999	1020	0	0	0
2019/09/03 09:03:01	BASE	2.22	306	5.14	263	-6.2	100	-6.2	0	0	1016.6	NA	0.0000		9999	980	0	0	0
2019/09/03 09:04:00	BASE	2.13	314	5.14	263	-6.2	100	-6.2	0	0	1016.6	NA	0.0000		9999	980	0	0	0
2019/09/03 09:05:00	BASE	1.89	312	5.14	263	-6.2	100	-6.2	0	0	1016.6	NA	0.0000		9999	1020	0	0	0
2019/09/03 09:06:00	BASE	1.83	296	4.01	263	-6.2	100	-6.2	0	0	1016.6	NA	0.0000		9999	980	0	0	0
2019/09/03 09:07:00	BASE	2.88	273	7.00	258	-6.2	100	-6.2	0	0	1016.6	NA	0.0000		9999	950	0	0	0
2019/09/03 09:08:00	BASE	4.54	266	7.00	258	-6.2	100	-6.2	0	0	1016.6	NA	0.0000		9999	950	0	0	0
2019/09/03 09:09:00	BASE	5.00	273	7.00	258	-6.2	100	-6.2	0	0	1016.6	NA	0.0000		9999	950	0	0	0
2019/09/03 09:10:00	BASE	5.16	278	7.05	295	-6.2	100	-6.2	0	0	1016.5	NA	0.0000		9999	980	0	0	0
2019/09/03 09:11:00	BASE	6.07	282	7.51	281	-6.2	100	-6.2	0	0	1016.5	NA	0.0000		9999	950	0	0	0
2019/09/03 09:12:00	BASE	6.19	286	7.51	281	-6.2	100	-6.2	0	0	1016.5	NA	0.0000		9999	980	0	0	0
2019/09/03 09:13:00	BASE	5.95	279	7.51	281	-6.2	100	-6.2	0	0	1016.5	NA	0.0000		9999	980	0	0	0
2019/09/03 09:14:00	BASE	5.27	264	7.51	281	-6.2	100	-6.2	0	0	1016.5	NA	0.0000		9999	1020	0	0	0
2019/09/03 09:15:00	BASE	4.24	264	7.51	281	-6.2	100	-6.2	0	0	1016.5	NA	0.0000		9999	1020	0	0	0
2019/09/03 09:16:00	BASE	4.90	263	7.51	281	-6.2	100	-6.2	0	0	1016.5	NA	0.0000		9999	1050	0	0	0
2019/09/03 09:17:00	BASE	6.09	257	7.51	281	-6.2	100	-6.2	0	0	1016.5	NA	0.0000		9999	1050	0	0	0
2019/09/03 09:18:00	BASE	6.43	258	7.51	281	-6.2	100	-6.2	0	0	1016.5	NA	0.0000		9999	1020	0	0	0
2019/09/03 09:19:00	BASE	5.92	263	7.51	281	-6.3	100	-6.3	0	0	1016.6	NA	0.0000		9999	1020	0	0	0
2019/09/03 09:20:01	BASE	5.84	276	7.51	281	-6.3	100	-6.3	0	0	1016.6	NA	0.0000		9999	1020	0	0	0
2019/09/03 09:21:01	BASE	6.23	284	7.41	261	-6.3	100	-6.4	0	0	1016.6	NA	0.0000		9999	1050	0	0	0
2019/09/03 09:22:01	BASE	5.61	285	7.41	261	-6.4	100	-6.4	0	0	1016.6	NA	0.0000		9999	1180	0	0	0
2019/09/03 09:23:01	BASE	5.04	284	7.41	261	-6.4	100	-6.4	0	0	1016.6	NA	0.0000		9999	1250	0	0	0
2019/09/03 09:24:01	BASE	4.42	284	7.41	261	-6.4	100	-6.4	0	0	1016.7	NA	0.0000		9999	1180	0	0	0
2019/09/03 09:25:01	BASE	3.88	279	7.41	261	-6.3	100	-6.3	0	0	1016.7	NA	0.0000		9999	920	0	0	0
2019/09/03 09:26:01	BASE	3.36	282	7.41	261	-6.3	100	-6.3	0	0	1016.7	NA	0.0000		9999	890	0	0	0
2019/09/03 09:27:01	BASE	2.48	288	7.41	261	-6.3	100	-6.3	0	0	1016.7	NA	0.0000		9999	980	0	0	0
2019/09/03 09:28:01	BASE	2.24	292	6.89	285	-6.3	100	-6.3	0	0	1016.7	NA	0.0000		9999	980	0	0	0
2019/09/03 09:29:00	BASE	2.04	298	6.89	285	-6.4	100	-6.4	0	0	1016.7	NA	0.0000		9999	1020	0	0	0
2019/09/03 09:30:00	BASE	2.07	300	6.89	285	-6.4	100	-6.4	0	0	1016.7	NA	0.0000		9999	950	0	0	0
2019/09/03 09:31:00	BASE	2.74	295	5.97	283	-6.4	100	-6.4	0	0	1016.7	NA	0.0000		9999	980	0	0	0
2019/09/03 09:32:00	BASE	3.13	287	5.92	279	-6.3	100	-6.3	0	0	1016.7	NA	0.0000		9999	1020	0	0	0
2019/09/03 09:33:00	BASE	3.49	298	4.68	288	-6.3	100	-6.3	0	0	1016.7	NA	0.0000		9999	980	0	0	0
2019/09/03 09:34:01	BASE	3.57	310	4.37	274	-6.3	100	-6.3	0	0	1016.7	NA	0.0000		9999	920	0	0	0
2019/09/03 09:35:01	BASE	2.80	302	4.17	303	-6.3	100	-6.3	0	0	1016.7	NA	0.0000		9999	920	0	0	0
2019/09/03 09:36:01	BASE	2.82	306	4.17	303	-6.4	100	-6.4	0	0	1016.7	NA	0.0000		9999	890	0	0	0
2019/09/03 09:37:01	BASE	3.93	318	5.04	307	-6.4	100	-6.4	0	0	1016.6	NA	0.0000		9999	920	0	0	0
2019/09/03 09:38:00	BASE	4.78	315	5.35	322	-6.4	100	-6.4	0	0	1016.6	NA	0.0000		9999	950	0	0	0
2019/09/03 09:39:00	BASE	4.65	309	5.35	322	-6.4	100	-6.4	0	0	1016.6	NA	0.0000		9999	950	0	0	0
2019/09/03 09:40:00	BASE	3.58	312	5.35	322	-6.4	100	-6.4	0	0	1016.6	NA	0.0000		9999	920	0	0	0
2019/09/03 09:41:00	BASE	2.17	320	5.35	322	-6.4	100	-6.4	0	0	1016.6	NA	0.0000		9999	920	0	0	0
2019/09/03 09:42:00	BASE	1.75	319	5.35	322	-6.4	100	-6.4	0	0	1016.6	NA	0.0000		9999	920	0	0	0
2019/09/03 09:43:00	BASE	2.45	311	5.35	322	-6.4	100	-6.4	0	0	1016.5	NA	0.0000		9999	850	0	0	0
2019/09/03 09:44:00	BASE	2.88	303	5.35	322	-6.4	100	-6.4	0	0	1016.5	NA	0.0000		9999	850	0	0	0
2019/09/03 09:45:00	BASE	3.08	294	5.35	322	-6.4	100	-6.4	0	0	1016.5	NA	0.0000		9999	890	0	0	0
2019/09/03 09:46:00	BASE	2.73	294	5.35	322	-6.4	100	-6.4	0	0	1016.5	NA	0.0000		9999	920	0	0	0
2019/09/03 09:47:00	BASE	2.79	294	5.35	322	-6.4	100	-6.4	0	0	1016.4	NA	0.0000		9999	890	0	0	0
2019/09/03 09:48:00	BASE	3.43	293	5.04	308	-6.3	100	-6.3	0	0	1016.4	NA	0.0000		9999	920	0	0	0
2019/09/03 09:49:00	BASE	4.68	293	6.69	294	-6.3	100	-6.3	0	0	1016.4	NA	0.0000		9999	890	0	0	0
2019/09/03 09:50:00	BASE	5.44	284	6.69	294	-6.3	100	-6.3	0	0	1016.4	NA	0.0000		9999	890	0	0	0
2019/09/03 09:51:00	BASE	4.31	281	6.69	294	-6.3	100	-6.3	0	0	1016.4	NA	0.0000		9999	890	0	0	0
2019/09/03 09:52:00	BASE	3.92	273	6.69	294	-6.2	100	-6.2	0	0	1016.4	NA	0.0000		9999	920	0	0	0
2019/09/03 09:53:00	BASE	5.06	262	7.00	257	-6.2	100	-6.2	0	0	1016.3	NA	0.0000		9999	890	0	0	0
2019/09/03 09:54:00	BASE	5.87	256	7.15	256	-6.2	100	-6.2	0	0	1016.3	NA	0.0000		9999	850	0	0	0
2019/09/03 09:55:00	BASE	5.06	249	7.15	256	-6.3	100	-6.3	0	0	1016.3	NA	0.0000		9999	820	0	0	0
2019/09/03 09:56:00	BASE	4.45	250	7.15	256	-6.3	100	-6.3	0	0	1016.3	NA	0.0000		9999	820	0	0	0
2019/09/03 09:57:00	BASE	4.48	248	7.15	256	-6.4	100	-6.4	0	0	1016.3	NA	0.0000		9999	890	0	0	0
2019/09/03 09:58:00	BASE	4.23	240	7.15	256	-6.4	100	-6.4	0	0	1016.2	NA	0.0000		9999	890	0	0	0
2019/09/03 09:59:01	BASE	4.12	239	7.15	256	-6.4	100	-6.4	0	0	1016.1	NA	0.0000		9999	890	0	0	0
2019/09/03 10:00:01	BASE	4.00	245	7.15	256	-6.4	100	-6.4	0	0	1016.1	NA	0.0000		9999	850	0	0	0
2019/09/03 10:01:01	BASE	5.07	264	7.15	256	-6.4	100	-6.4	0	0	1016.1	NA	0.0000		9999	890	0	0	0
2019/09/03 10:02:01	BASE	5.15	275	7.15	256	-6.4	100	-6.4	0	0	1016.1	NA	0.0000		9999	850	0	0	0
2019/09/03 10:03:01	BASE	3.54	279	7.15	256	-6.4	100	-6.4	0	0	1015.9	NA	0.0000		9999	890	0	0	0
2019/09/03 10:04:01	BASE	3.51	288	6.79	274	-6.5	100	-6.5	0	0	1015.9	NA	0.0000		9999	920	0	0	0
2019/09/03 10:05:01	BASE	4.89	294	6.79	274	-6.5	100	-6.5	0	0	1015.9	NA	0.0000		9999	980	0	0	0
2019/09/03 10:06:01	BASE	5.72	295	6.79	274	-6.5	100	-6.5	0	0	1015.9	NA	0.0000		9999	1020	0	0	0
2019/09/03 10:07:01	BASE	5.43	292	6.79	274	-6.5	100	-6.5	0	0	1015.9	NA	0.0000		9999	1020	0	0	0
2019/09/03 10:08:01	BASE	5.16	289	6.79	274	-6.4	100	-6.4	0	0	1015.9	NA	0.0000		9999	950	0	0	0
2019/09/03 10:09:01	BASE	4.90	285	6.79	274	-6.4	100	-6.4	0	0	1015.9	NA	0.0000		9999	980	0	0	0
2019/09/03 10:10:00	BASE	4.26	283	6.79	274	-6.4	100	-6.4	0	0	1015.9	NA	0.0000		9999	1120	0	0	0
2019/09/03 10:11:00	BASE	3.63	282	6.12	297	-6.5	100	-6.5	0	0	1015.9	NA	0.0000		9999	890	0	0	0
2019/09/03 10:12:00	BASE	3.63	294	6.12	297	-6.5	100	-6.5	0	0	1015.9	NA	0.0000		9999	920	0	0	0
2019/09/03 10:13:00	BASE	3.87	311	6.12	297	-6.5	100	-6.5	0	0	1015.9	NA	0.0000		9999	850	0	0	0
2019/09/03 10:14:00	BASE	3.96	320	6.12	297	-6.5	100	-6.5	0	0	1015.9	NA	0.0000		9999	850	0	0	0
2019/09/03 10:15:00	BASE	4.49	321	6.12	297	-6.6	100	-6.6	0	0	1015.9	NA	0.0000		9999	890	0	0	0
2019/09/03 10:16:00	BASE	4.25	314	5.61	289	-6.6	100	-6.6	0	0	1015.9	NA	0.0000		9999	920	0	0	0
2019/09/03 10:17:00	BASE	3.39	314	5.61	289	-6.6	100	-6.6	0	0	1015.9	NA	0.0000		9999	950	0	0	0
2019/09/03 10:18:00	BASE	3.80	323	5.50	282	-6.6	100	-6.6	0	0	1015.9	NA	0.0000		9999	820	0	0	0
2019/09/03 10:19:00	BASE	4.23	324	5.45	315	-6.6	100	-6.6	0	0	1016.0	NA	0.0000		9999	820	0	0	0
2019/09/03 10:20:00	BASE	4.38	313	5.45	315	-6.6	100	-6.6	0	0	1016.1	NA	0.0000		9999	950	0	0	0
2019/09/03 10:21:00	BASE	4.13	295	6.02	293	-6.6	100	-6.6	0	0	1016.1	NA	0.0000		9999	750	0	0	0
2019/09/03 10:22:00	BASE	4.89	285	6.89	275	-6.5	100	-6.5	0	0	1016.1	NA	0.0000		9999	750	0	0	0
2019/09/03 10:23:00	BASE	5.07	277	6.89	275	-6.5	100	-6.5	0	0	1016.3	NA	0.0000		9999	660	0	0	0
2019/09/03 10:24:00	BASE	3.99	274	6.89	275	-6.5	100	-6.5	0	0	1016.3	NA	0.0000		9999	660	0	0	0
2019/09/03 10:25:00	BASE	4.40	278	6.89	275	-6.5	100	-6.5	0	0	1016.3	NA	0.0000		9999	690	0	0	0
2019/09/03 10:26:00	BASE	4.57	272	6.89	275	-6.5	100	-6.5	0	0	1016.2	NA	0.0000		9999	720	0	0	0
2019/09/03 10:27:00	BASE	5.89	264	8.39	268	-6.5	100	-6.5	0	0	1016.2	NA	0.0000		9999	660	0	0	0
2019/09/03 10:28:00	BASE	6.76	256	8.39	268	-6.5	100	-6.5	0	0	1016.2	NA	0.0000		9999	690	0	0	0
2019/09/03 10:29:00	BASE	6.28	251	8.39	268	-6.5	100	-6.5	0	0	1016.1	NA	0.0000		9999	690	0	0	0
2019/09/03 10:30:00	BASE	5.92	256	8.39	268	-6.6	100	-6.6	0	0	1016.1	NA	0.0000		9999	720	0	0	0
2019/09/03 10:31:00	BASE	5.85	268	8.39	268	-6.6	100	-6.6	0	0	1016.1	NA	0.0000		9999	720	0	0	0
2019/09/03 10:32:00	BASE	6.33	272	8.39	268	-6.6	100	-6.6	0	0	1016.1	NA	0.0000		9999	690	0	0	0
2019/09/03 10:33:00	BASE	5.87	272	8.39	268	-6.6	100	-6.6	0	0	1016.1	NA	0.0000		9999	690	0	0	0
2019/09/03 10:34:00	BASE	5.20	270	8.39	268	-6.6	100	-6.6	0	0	1016.2	NA	0.0000		9999	750	0	0	0
2019/09/03 10:35:00	BASE	5.75	258	8.39	268	-6.6	100	-6.6	0	0	1016.1	NA	0.0000		9999	750	0	0	0
2019/09/03 10:36:00	BASE	6.49	251	8.39	268	-6.7	100	-6.7	0	0	1016.1	NA	0.0000		9999	660	0	0	0
2019/09/03 10:37:00	BASE	5.93	252	7.92	270	-6.7	100	-6.7	0	0	1016.1	NA	0.0000		9999	660	0	0	0
2019/09/03 10:38:01	BASE	5.39	252	7.92	270	-6.7	100	-6.7	0	0	1016.1	NA	0.0000		9999	660	0	0	0
2019/09/03 10:39:01	BASE	4.74	251	7.92	270	-6.7	100	-6.7	0	0	1016.1	NA	0.0000		9999	660	0	0	0
2019/09/03 10:40:01	BASE	3.96	256	7.92	270	-6.8	100	-6.8	0	0	1016.1	NA	0.0000		9999	790	0	0	0
2019/09/03 10:41:01	BASE	3.66	278	7.77	246	-6.8	100	-6.8	0	0	1016.1	NA	0.0000		9999	820	0	0	0
2019/09/03 10:42:01	BASE	4.18	296	7.77	246	-6.8	100	-6.8	0	0	1016.1	NA	0.0000		9999	820	0	0	0
2019/09/03 10:43:00	BASE	5.36	293	7.77	246	-6.8	100	-6.8	0	0	1016.1	NA	0.0000		9999	820	0	0	0
2019/09/03 10:44:00	BASE	4.89	279	7.77	246	-6.8	100	-6.8	0	0	1016.1	NA	0.0000		9999	850	0	0	0
2019/09/03 10:45:00	BASE	3.58	265	7.61	244	-6.8	100	-6.8	0	0	1016.1	NA	0.0000		9999	850	0	0	0
2019/09/03 10:46:00	BASE	2.96	260	6.58	286	-6.8	100	-6.8	0	0	1016.1	NA	0.0000		9999	890	0	0	0
2019/09/03 10:47:00	BASE	2.83	275	6.58	286	-6.8	100	-6.8	0	0	1016.1	NA	0.0000		9999	850	0	0	0
2019/09/03 10:48:00	BASE	3.39	288	6.58	286	-6.8	100	-6.8	0	0	1016.1	NA	0.0000		9999	850	0	0	0
2019/09/03 10:49:00	BASE	4.03	284	6.58	286	-6.8	100	-6.8	0	0	1016.1	NA	0.0000		9999	850	0	0	0
2019/09/03 10:50:00	BASE	4.08	274	6.58	286	-6.8	100	-6.8	0	0	1016.1	NA	0.0000		9999	820	0	0	0
2019/09/03 10:51:00	BASE	4.45	264	6.58	286	-6.8	100	-6.8	0	0	1016.0	NA	0.0000		9999	890	0	0	0
2019/09/03 10:52:00	BASE	4.97	249	6.58	286	-6.8	100	-6.8	0	0	1016.0	NA	0.0000		9999	820	0	0	0
2019/09/03 10:53:00	BASE	4.59	233	6.53	256	-6.8	100	-6.8	0	0	1016.1	NA	0.0000		9999	750	0	0	0
2019/09/03 10:54:00	BASE	4.15	229	6.53	256	-6.9	100	-6.9	0	0	1016.1	NA	0.0000		9999	790	0	0	0
2019/09/03 10:55:00	BASE	2.69	227	6.53	256	-6.9	100	-6.9	0	0	1016.1	NA	0.0000		9999	750	0	0	0
2019/09/03 10:56:00	BASE	1.01	193	6.53	256	-6.9	100	-6.9	0	0	1016.1	NA	0.0000		9999	720	0	0	0
2019/09/03 10:57:00	BASE	1.16	173	6.53	256	-6.9	100	-6.9	0	0	1016.0	NA	0.0000		9999	690	0	0	0
2019/09/03 10:58:00	BASE	1.34	220	6.53	256	-7.0	100	-7.0	0	0	1015.9	NA	0.0000		9999	790	0	0	0
2019/09/03 10:59:00	BASE	1.34	277	6.53	256	-7.0	100	-7.0	0	0	1015.9	NA	0.0000		9999	890	0	0	0
2019/09/03 11:00:00	BASE	1.83	291	6.53	256	-7.0	100	-7.0	0	0	1015.9	NA	0.0000		9999	890	0	0	0
2019/09/03 11:01:00	BASE	2.15	305	5.76	258	-7.0	100	-7.0	0	0	1015.9	NA	0.0000		9999	850	0	0	0
2019/09/03 11:02:00	BASE	2.31	313	5.14	238	-7.0	100	-7.0	0	0	1015.9	NA	0.0000		9999	890	0	0	0
2019/09/03 11:03:00	BASE	1.99	310	5.14	238	-7.0	100	-7.0	0	0	1015.9	NA	0.0000		9999	890	0	0	0
2019/09/03 11:04:00	BASE	1.77	312	3.24	223	-7.0	100	-7.0	0	0	1015.9	NA	0.0000		9999	850	0	0	0
2019/09/03 11:05:00	BASE	1.83	314	2.78	318	-7.0	100	-7.0	1	0	1015.9	NA	0.0000		9999	790	0	0	0
2019/09/03 11:06:00	BASE	0.85	315	2.78	318	-7.0	100	-7.0	1	0	1015.9	NA	0.0000		9999	750	0	0	0
2019/09/03 11:07:00	BASE	0.00	330	2.78	318	-7.0	100	-7.0	1	0	1015.9	NA	0.0000		9999	850	0	0	0
2019/09/03 11:08:00	BASE	0.00	341	2.68	303	-7.0	100	-7.0	1	0	1015.9	NA	0.0000		9999	920	0	0	0
2019/09/03 11:09:00	BASE	0.00	325	2.68	303	-7.0	100	-7.0	1	0	1015.9	NA	0.0000		9999	790	0	0	0
2019/09/03 11:10:00	BASE	0.05	279	2.68	303	-7.0	100	-7.0	1	0	1015.8	NA	0.0000		9999	750	0	0	0
2019/09/03 11:11:00	BASE	0.26	261	2.68	303	-6.9	100	-6.9	1	0	1015.8	NA	0.0000		9999	750	0	0	0
2019/09/03 11:12:00	BASE	1.18	246	2.68	238	-6.9	100	-6.9	1	0	1015.8	NA	0.0000		9999	790	0	0	0
2019/09/03 11:13:00	BASE	2.25	218	4.01	228	-6.9	100	-6.9	1	0	1015.8	NA	0.0000		9999	790	0	0	0
2019/09/03 11:14:00	BASE	3.30	212	5.25	216	-6.9	100	-6.9	2	0	1015.8	NA	0.0000		9999	790	0	0	0
2019/09/03 11:15:00	BASE	3.99	209	5.25	216	-6.8	100	-6.8	2	0	1015.8	NA	0.0000		9999	720	0	0	0
2019/09/03 11:16:00	BASE	3.30	203	5.25	216	-6.8	100	-6.8	2	0	1015.8	NA	0.0000		9999	690	0	0	0
2019/09/03 11:17:00	BASE	2.05	211	5.25	216	-6.8	100	-6.8	2	0	1015.8	NA	0.0000		9999	790	0	0	0
2019/09/03 11:18:00	BASE	1.08	216	5.25	216	-6.9	100	-6.9	2	0	1015.8	NA	0.0000		9999	850	0	0	0
2019/09/03 11:19:00	BASE	0.79	222	5.25	216	-6.9	100	-6.9	3	0	1015.9	NA	0.0000		9999	720	0	0	0
2019/09/03 11:20:00	BASE	0.99	232	5.25	216	-6.9	100	-6.9	3	0	1015.9	NA	0.0000		9999	690	0	0	0
2019/09/03 11:21:00	BASE	1.72	239	5.25	216	-6.9	100	-6.9	3	0	1015.9	NA	0.0000		9999	790	0	0	0
2019/09/03 11:22:00	BASE	2.89	249	5.25	216	-6.9	100	-6.9	3	0	1015.8	NA	0.0000		9999	720	0	0	0
2019/09/03 11:23:00	BASE	3.24	251	5.25	216	-6.9	100	-6.9	4	0	1015.8	NA	0.0000		9999	690	0	0	0
2019/09/03 11:24:00	BASE	2.52	252	4.94	212	-6.9	100	-6.9	4	0	1015.8	NA	0.0000		9999	720	0	0	0
2019/09/03 11:25:00	BASE	1.81	258	4.12	245	-6.9	100	-6.9	4	0	1015.8	NA	0.0000		9999	790	0	0	0
2019/09/03 11:26:00	BASE	1.73	275	4.12	245	-6.9	100	-6.9	5	0	1015.8	NA	0.0000		9999	750	0	0	0
2019/09/03 11:27:00	BASE	1.09	289	4.12	245	-6.9	100	-6.9	5	0	1015.7	NA	0.0000		9999	750	0	0	0
2019/09/03 11:28:00	BASE	1.22	293	4.12	245	-6.9	100	-6.9	5	0	1015.7	NA	0.0000		9999	750	0	0	0
2019/09/03 11:29:00	BASE	2.76	280	4.12	258	-6.9	100	-6.9	6	0	1015.8	NA	0.0000		9999	790	0	0	0
2019/09/03 11:30:00	BASE	3.23	266	4.12	258	-6.9	100	-6.9	6	0	1015.8	NA	0.0000		9999	820	0	0	0
2019/09/03 11:31:00	BASE	3.47	269	4.78	276	-6.9	100	-6.9	6	0	1015.8	NA	0.0000		9999	790	0	0	0
2019/09/03 11:32:00	BASE	3.53	273	4.78	276	-6.9	100	-6.9	7	0	1015.7	NA	0.0000		9999	720	0	0	0
2019/09/03 11:33:00	BASE	2.98	271	4.78	276	-6.9	100	-6.9	7	0	1015.7	NA	0.0000		9999	750	0	0	0
2019/09/03 11:34:00	BASE	2.99	271	4.78	276	-6.9	100	-6.9	7	0	1015.7	NA	0.0000		9999	790	0	0	0
2019/09/03 11:35:00	BASE	3.90	281	5.30	289	-6.9	100	-6.9	8	0	1015.7	NA	0.0000		9999	790	0	0	0
2019/09/03 11:36:00	BASE	4.63	290	5.61	287	-6.9	100	-6.9	8	0	1015.7	NA	0.0000		9999	720	0	0	0
2019/09/03 11:37:00	BASE	4.60	280	5.61	287	-6.9	100	-6.9	9	0	1015.7	NA	0.0000		9999	790	0	0	0
2019/09/03 11:38:00	BASE	4.22	259	5.61	287	-6.9	100	-6.9	9	0	1015.7	NA	0.0000		9999	790	0	0	0
2019/09/03 11:39:00	BASE	4.24	251	5.61	287	-6.9	100	-6.9	9	0	1015.7	NA	0.0000		9999	820	0	0	0
2019/09/03 11:40:00	BASE	4.54	258	5.61	287	-6.9	100	-6.9	10	0	1015.7	NA	0.0000		9999	820	0	0	0
2019/09/03 11:41:00	BASE	4.14	269	5.61	287	-6.8	100	-6.8	10	0	1015.7	NA	0.0000		9999	820	0	0	0
2019/09/03 11:42:00	BASE	4.14	274	5.61	287	-6.8	100	-6.8	11	0	1015.6	NA	0.0000		9999	790	0	0	0
2019/09/03 11:43:00	BASE	4.50	274	5.61	287	-6.8	100	-6.8	11	0	1015.6	NA	0.0000		9999	750	0	0	0
2019/09/03 11:44:00	BASE	4.11	270	5.61	287	-6.8	100	-6.8	11	0	1015.6	NA	0.0000		9999	690	0	0	0
2019/09/03 11:45:00	BASE	3.70	268	5.61	287	-6.8	100	-6.8	12	0	1015.6	NA	0.0000		9999	690	0	0	0
2019/09/03 11:46:00	BASE	3.73	258	5.56	290	-6.8	100	-6.8	12	0	1015.6	NA	0.0000		9999	750	0	0	0
2019/09/03 11:47:00	BASE	3.41	249	5.56	290	-6.8	100	-6.8	12	0	1015.6	NA	0.0000		9999	720	0	0	0
2019/09/03 11:48:00	BASE	2.76	247	5.56	290	-6.9	100	-6.9	13	0	1015.6	NA	0.0000		9999	790	0	0	0
2019/09/03 11:49:00	BASE	2.14	246	5.56	290	-6.9	100	-6.9	14	0	1015.6	NA	0.0000		9999	820	0	0	0
2019/09/03 11:50:00	BASE	1.79	248	5.56	290	-6.9	100	-6.9	14	0	1015.5	NA	0.0000		9999	750	0	0	0
2019/09/03 11:51:00	BASE	1.78	253	5.56	290	-6.9	100	-6.9	14	0	1015.4	NA	0.0000		9999	690	0	0	0
2019/09/03 11:52:00	BASE	1.57	261	5.04	279	-6.9	100	-6.9	15	0	1015.4	NA	0.0000		9999	720	0	0	0
2019/09/03 11:53:00	BASE	1.34	263	4.32	261	-6.9	100	-6.9	15	0	1015.4	NA	0.0000		9999	750	0	0	0
2019/09/03 11:54:00	BASE	1.36	270	4.12	253	-6.9	100	-6.9	16	0	1015.4	NA	0.0000		9999	750	0	0	0
2019/09/03 11:55:00	BASE	1.47	285	4.12	253	-6.9	100	-6.9	16	0	1015.4	NA	0.0000		9999	750	0	0	0
2019/09/03 11:56:00	BASE	1.24	296	3.45	248	-6.9	100	-6.9	17	0	1015.4	NA	0.0000		9999	750	0	0	0
2019/09/03 11:57:00	BASE	0.45	305	2.83	245	-6.9	100	-6.9	17	0	1015.4	NA	0.0000		9999	750	0	0	0
2019/09/03 11:58:00	BASE	0.00	317	2.31	261	-6.9	100	-6.9	18	0	1015.4	NA	0.0000		9999	720	0	0	0
2019/09/03 11:59:00	BASE	0.05	338	2.31	261	-6.9	100	-6.9	19	0	1015.3	NA	0.0000		9999	720	0	0	0
2019/09/03 12:00:00	BASE	0.97	356	2.47	2	-6.9	100	-6.9	19	0	1015.3	NA	0.0000		9999	690	0	0	0
2019/09/03 12:01:00	BASE	1.95	8	3.09	12	-6.9	100	-6.9	20	0	1015.3	NA	0.0000		9999	690	0	0	0
2019/09/03 12:02:00	BASE	2.36	15	3.09	17	-6.9	100	-6.9	20	0	1015.3	NA	0.0000		9999	720	0	0	0
2019/09/03 12:03:00	BASE	2.39	17	3.09	17	-6.9	100	-6.9	21	0	1015.3	NA	0.0000		9999	690	0	0	0
2019/09/03 12:04:00	BASE	1.91	19	3.09	17	-6.9	100	-6.9	22	0	1015.3	NA	0.0000		9999	750	0	0	0
2019/09/03 12:05:00	BASE	1.55	21	3.09	17	-6.9	100	-6.9	23	0	1015.3	NA	0.0000		9999	750	0	0	0
2019/09/03 12:06:00	BASE	1.39	25	3.09	17	-6.9	100	-6.9	23	0	1015.2	NA	0.0000		9999	750	0	0	0
2019/09/03 12:07:00	BASE	1.82	33	3.09	17	-6.9	100	-6.9	23	0	1015.1	NA	0.0000		9999	820	0	0	0
2019/09/03 12:08:00	BASE	2.59	38	3.09	36	-6.9	100	-6.9	24	0	1015.1	NA	0.0000		9999	820	0	0	0
2019/09/03 12:09:00	BASE	2.77	32	3.09	36	-6.9	100	-6.9	25	0	1015.2	NA	0.0000		9999	850	0	0	0
2019/09/03 12:10:00	BASE	2.69	19	3.09	36	-6.9	100	-6.9	25	0	1015.2	NA	0.0000		9999	850	0	0	0
2019/09/03 12:11:00	BASE	2.79	11	3.09	36	-6.9	100	-6.9	26	0	1015.2	NA	0.0000		9999	820	0	0	0
2019/09/03 12:12:00	BASE	2.98	10	3.55	14	-6.9	100	-6.9	27	0	1015.1	NA	0.0000		9999	720	0	0	0
2019/09/03 12:13:00	BASE	3.27	12	3.76	11	-6.9	100	-6.9	27	0	1015.1	NA	0.0000		9999	750	0	0	0
2019/09/03 12:14:00	BASE	3.45	15	3.96	102	-6.9	100	-6.9	27	0	1015.1	NA	0.0000		9999	790	0	0	0
2019/09/03 12:15:00	BASE	4.02	4	5.09	354	-6.9	100	-6.9	27	0	1015.0	NA	0.0000		9999	750	0	0	0
2019/09/03 12:16:00	BASE	4.69	355	5.09	354	-6.9	100	-6.9	27	0	1015.0	NA	0.0000		9999	790	0	0	0
2019/09/03 12:17:00	BASE	4.61	358	5.09	354	-6.9	100	-6.9	28	0	1015.1	NA	0.0000		9999	790	0	0	0
2019/09/03 12:18:00	BASE	4.32	360	5.09	354	-6.9	100	-6.9	29	0	1015.0	NA	0.0000		9999	750	0	0	0
2019/09/03 12:19:00	BASE	4.28	2	5.09	354	-6.9	100	-6.9	30	0	1015.0	NA	0.0000		9999	750	22340	0	0
2019/09/03 12:20:00	BASE	4.64	4	5.35	2	-6.9	100	-6.9	31	0	1014.9	NA	0.0000		9999	790	0	0	0
2019/09/03 12:21:00	BASE	5.05	3	5.35	2	-6.9	100	-6.9	31	0	1014.9	NA	0.0000		9999	750	0	0	0
2019/09/03 12:22:00	BASE	5.35	5	5.86	6	-6.9	100	-6.9	32	0	1014.8	NA	0.0000		9999	750	0	0	0
2019/09/03 12:23:00	BASE	5.48	8	5.86	6	-6.9	100	-6.9	33	0	1014.8	NA	0.0000		9999	720	0	0	0
2019/09/03 12:24:00	BASE	5.32	9	5.86	6	-6.9	100	-6.9	33	0	1014.8	NA	0.0000		9999	720	0	0	0
2019/09/03 12:25:00	BASE	5.31	9	5.86	6	-6.9	100	-6.9	35	0	1014.8	NA	0.0000		9999	750	0	0	0
2019/09/03 12:26:00	BASE	5.40	14	5.86	6	-6.9	100	-6.9	36	0	1014.8	NA	0.0000		9999	790	0	0	0
2019/09/03 12:27:00	BASE	5.19	18	5.86	6	-6.9	100	-6.9	38	0	1014.8	NA	0.0000		9999	790	0	0	0
2019/09/03 12:28:00	BASE	5.12	20	5.86	6	-6.9	100	-6.9	39	0	1014.7	NA	0.0000		9999	790	0	0	0
2019/09/03 12:29:00	BASE	5.21	21	5.86	6	-6.9	100	-6.9	39	0	1014.8	NA	0.0000		9999	790	0	0	0
2019/09/03 12:30:00	BASE	5.17	23	5.86	6	-6.9	100	-6.9	40	0	1014.7	NA	0.0000		9999	850	0	0	0
2019/09/03 12:31:00	BASE	4.78	27	5.86	6	-6.9	100	-6.9	43	0	1014.8	NA	0.0000		9999	850	0	0	0
2019/09/03 12:32:00	BASE	4.43	27	5.66	10	-6.8	100	-6.8	45	0	1014.8	NA	0.0000		9999	820	0	0	0
2019/09/03 12:33:00	BASE	4.44	24	5.66	10	-6.8	100	-6.8	46	0	1014.8	NA	0.0000		9999	850	0	0	0
2019/09/03 12:34:00	BASE	4.27	21	5.61	11	-6.8	100	-6.8	47	0	1014.8	NA	0.0000		9999	1080	0	0	0
2019/09/03 12:35:00	BASE	3.86	17	5.56	28	-6.8	100	-6.8	47	0	1014.8	NA	0.0000		9999	1050	0	0	0
2019/09/03 12:36:00	BASE	3.41	12	5.56	28	-6.8	100	-6.8	48	0	1014.7	NA	0.0000		9999	1050	0	0	0
2019/09/03 12:37:00	BASE	2.69	2	5.56	28	-6.8	100	-6.8	49	0	1014.7	NA	0.0000		9999	1080	0	0	0
2019/09/03 12:38:00	BASE	2.04	357	5.56	28	-6.8	100	-6.8	50	0	1014.7	NA	0.0000		9999	1050	0	0	0
2019/09/03 12:39:00	BASE	2.39	355	5.56	28	-6.7	100	-6.7	50	0	1014.7	NA	0.0000		9999	1050	0	0	0
2019/09/03 12:40:00	BASE	3.21	344	5.30	30	-6.7	100	-6.7	50	0	1014.7	NA	0.0000		9999	1020	0	0	0
2019/09/03 12:41:00	BASE	3.82	330	4.89	16	-6.7	100	-6.7	50	0	1014.7	NA	0.0000		9999	1120	0	0	0
2019/09/03 12:42:00	BASE	3.54	318	4.89	16	-6.7	100	-6.7	51	0	1014.7	NA	0.0000		9999	1150	0	0	0
2019/09/03 12:43:00	BASE	2.44	324	4.78	328	-6.6	100	-6.6	52	0	1014.7	NA	0.0000		9999	1210	0	0	0
2019/09/03 12:44:01	BASE	2.56	343	4.78	328	-6.6	100	-6.6	52	0	1014.6	NA	0.0000		9999	1020	0	0	0
2019/09/03 12:45:01	BASE	3.70	353	5.04	349	-6.6	100	-6.6	53	0	1014.6	NA	0.0000		9999	980	0	0	0
2019/09/03 12:46:01	BASE	4.17	354	5.04	349	-6.6	100	-6.6	54	0	1014.6	NA	0.0000		9999	980	0	0	0
2019/09/03 12:47:01	BASE	4.42	347	5.25	339	-6.6	100	-6.6	55	0	1014.6	NA	0.0000		9999	1050	0	0	0
2019/09/03 12:48:01	BASE	4.14	343	5.25	339	-6.5	100	-6.5	55	0	1014.7	NA	0.0000		9999	1120	0	0	0
2019/09/03 12:49:01	BASE	3.76	347	5.25	339	-6.5	100	-6.5	56	0	1014.7	NA	0.0000		9999	1080	0	0	0
2019/09/03 12:50:01	BASE	3.41	349	5.25	339	-6.5	100	-6.5	57	0	1014.7	NA	0.0000		9999	1280	0	0	0
2019/09/03 12:51:01	BASE	2.64	350	5.25	339	-6.5	100	-6.5	57	0	1014.7	NA	0.0000		9999	1210	0	0	0
2019/09/03 12:52:01	BASE	2.92	353	5.25	339	-6.5	100	-6.5	56	0	1014.6	NA	0.0000		9999	1080	0	0	0
2019/09/03 12:53:01	BASE	3.61	355	5.25	339	-6.5	100	-6.5	56	0	1014.6	NA	0.0000		9999	1150	0	0	0
2019/09/03 12:54:01	BASE	3.44	356	5.25	339	-6.5	100	-6.5	56	0	1014.6	NA	0.0000		9999	1120	0	0	0
2019/09/03 12:55:01	BASE	3.17	1	5.25	339	-6.5	100	-6.5	56	0	1014.6	NA	0.0000		9999	1080	0	0	0
2019/09/03 12:56:01	BASE	3.08	4	5.25	339	-6.5	100	-6.5	56	0	1014.6	NA	0.0000		9999	1050	0	0	0
2019/09/03 12:57:01	BASE	3.06	2	4.32	352	-6.5	100	-6.5	56	0	1014.6	NA	0.0000		9999	1080	0	0	0
2019/09/03 12:58:01	BASE	3.18	3	4.32	352	-6.5	100	-6.5	55	0	1014.6	NA	0.0000		9999	1080	0	0	0
2019/09/03 12:59:01	BASE	3.30	359	4.12	353	-6.5	100	-6.5	55	0	1014.6	NA	0.0000		9999	1050	0	0	0
2019/09/03 13:00:00	BASE	3.39	3	4.12	353	-6.4	100	-6.4	56	0	1014.6	NA	0.0000		9999	1120	0	0	0
2019/09/03 13:01:00	BASE	3.46	12	4.12	353	-6.4	100	-6.4	57	0	1014.6	NA	0.0000		9999	1150	0	0	0
2019/09/03 13:02:00	BASE	3.22	7	4.12	353	-6.4	100	-6.4	58	0	1014.5	NA	0.0000		9999	1120	0	0	0
2019/09/03 13:03:00	BASE	2.82	4	4.06	354	-6.4	100	-6.4	59	0	1014.6	NA	0.0000		9999	1120	0	0	0
2019/09/03 13:04:00	BASE	2.74	355	4.06	354	-6.4	100	-6.4	61	0	1014.5	NA	0.0000		9999	1210	0	0	0
2019/09/03 13:05:00	BASE	2.68	346	4.06	354	-6.3	100	-6.3	64	0	1014.5	NA	0.0000		9999	1210	0	0	0
2019/09/03 13:06:00	BASE	2.39	334	4.06	354	-6.3	100	-6.3	66	0	1014.5	NA	0.0000		9999	1310	0	0	0
2019/09/03 13:07:00	BASE	1.56	305	4.06	354	-6.3	100	-6.3	65	0	1014.5	NA	0.0000		9999	1150	0	0	0
2019/09/03 13:08:00	BASE	0.46	258	4.06	354	-6.3	100	-6.3	63	0	1014.5	NA	0.0000		9999	1120	0	0	0
2019/09/03 13:09:00	BASE	0.00	232	4.01	13	-6.2	100	-6.2	62	0	1014.5	NA	0.0000		9999	1050	0	0	0
2019/09/03 13:10:00	BASE	0.00	336	3.86	141	-6.2	100	-6.2	62	0	1014.5	NA	0.0000		9999	1080	0	0	0
2019/09/03 13:11:00	BASE	0.46	351	3.19	348	-6.2	100	-6.2	62	0	1014.5	NA	0.0000		9999	1080	0	0	0
2019/09/03 13:12:00	BASE	0.83	321	3.19	348	-6.2	100	-6.2	62	0	1014.5	NA	0.0000		9999	1080	0	0	0
2019/09/03 13:13:00	BASE	1.13	271	2.98	349	-6.2	100	-6.2	62	0	1014.5	NA	0.0000		9999	1080	0	0	0
2019/09/03 13:14:00	BASE	1.77	236	2.78	352	-6.2	100	-6.2	61	0	1014.5	NA	0.0000		9999	1150	0	0	0
2019/09/03 13:15:00	BASE	2.19	236	2.73	321	-6.2	100	-6.2	60	0	1014.5	NA	0.0000		9999	1050	0	0	0
2019/09/03 13:16:00	BASE	1.96	237	2.57	243	-6.2	100	-6.2	60	0	1014.5	NA	0.0000		9999	1080	0	0	0
2019/09/03 13:17:00	BASE	2.15	239	4.53	233	-6.2	100	-6.2	61	0	1014.5	NA	0.0000		9999	1150	0	0	0
2019/09/03 13:18:00	BASE	3.15	246	4.53	253	-6.1	100	-6.1	63	0	1014.4	NA	0.0000		9999	1210	0	0	0
2019/09/03 13:19:00	BASE	3.69	249	4.68	245	-6.1	100	-6.1	65	0	1014.4	NA	0.0000		9999	1180	0	0	0
2019/09/03 13:20:00	BASE	4.25	250	6.02	230	-6.1	100	-6.1	66	0	1014.4	NA	0.0000		9999	1150	0	0	0
2019/09/03 13:21:00	BASE	4.98	240	6.58	227	-6.0	100	-6.0	68	0	1014.3	NA	0.0000		9999	1120	0	0	0
2019/09/03 13:22:00	BASE	6.55	231	8.54	237	-6.0	100	-6.0	70	0	1014.2	NA	0.0000		9999	1080	0	0	0
2019/09/03 13:23:00	BASE	8.28	225	9.36	223	-6.0	100	-6.0	72	0	1014.2	NA	0.0000		9999	1150	0	0	0
2019/09/03 13:24:00	BASE	7.96	221	9.36	223	-6.0	100	-6.0	74	0	1014.2	NA	0.0000		9999	1310	0	0	0
2019/09/03 13:25:00	BASE	7.21	216	9.36	223	-6.0	100	-6.0	74	0	1014.2	NA	0.0000		9999	1020	0	0	0
2019/09/03 13:26:00	BASE	6.88	216	9.36	223	-6.0	100	-6.0	74	0	1014.2	NA	0.0000		9999	1050	0	0	0
2019/09/03 13:27:00	BASE	6.05	222	9.36	223	-6.1	100	-6.1	74	0	1014.2	NA	0.0000		9999	1050	0	0	0
2019/09/03 13:28:00	BASE	5.55	241	9.36	223	-6.1	100	-6.1	75	0	1014.2	NA	0.0000		9999	1080	0	0	0
2019/09/03 13:29:00	BASE	5.76	257	9.36	223	-6.1	100	-6.1	77	0	1014.2	NA	0.0000		9999	1050	0	0	0
2019/09/03 13:30:00	BASE	6.13	251	9.36	223	-6.1	100	-6.1	78	0	1014.2	NA	0.0000		9999	1050	0	0	0
2019/09/03 13:31:00	BASE	5.78	234	9.36	223	-6.1	100	-6.1	78	0	1014.2	NA	0.0000		9999	1120	23330	0	0
2019/09/03 13:32:00	BASE	6.58	223	10.29	219	-6.1	100	-6.1	76	0	1014.2	NA	0.0000		9999	920	0	0	0
2019/09/03 13:33:00	BASE	9.30	225	11.83	228	-6.1	100	-6.1	75	0	1014.2	NA	0.0000		9999	1020	0	0	0
2019/09/03 13:34:00	BASE	10.24	229	11.83	228	-6.0	100	-6.0	74	0	1014.2	NA	0.0000		9999	850	0	0	0
2019/09/03 13:35:00	BASE	9.43	230	11.83	228	-6.0	100	-6.0	74	0	1014.2	NA	0.0000		9999	950	0	0	0
2019/09/03 13:36:00	BASE	9.51	233	11.83	228	-6.1	100	-6.1	74	0	1014.2	NA	0.0000		9999	720	0	0	0
2019/09/03 13:37:00	BASE	8.99	232	11.83	228	-6.1	100	-6.1	77	0	1014.2	NA	0.0000		9999	690	0	0	0
2019/09/03 13:38:00	BASE	7.93	235	11.83	228	-6.2	100	-6.2	79	0	1014.2	NA	0.0000		9999	790	0	0	0
2019/09/03 13:39:00	BASE	7.92	240	11.83	228	-6.2	100	-6.3	82	0	1014.2	NA	0.0000		9999	790	0	0	0
2019/09/03 13:40:00	BASE	8.35	238	11.83	228	-6.3	100	-6.3	87	0	1014.2	NA	0.0000		9999	720	0	0	0
2019/09/03 13:41:00	BASE	8.48	237	11.83	228	-6.3	100	-6.3	92	0	1014.2	NA	0.0000		9999	750	0	0	0
2019/09/03 13:42:00	BASE	7.87	242	11.83	228	-6.4	100	-6.4	96	0	1014.2	NA	0.0000		9999	920	0	0	0
2019/09/03 13:43:00	BASE	6.80	245	11.42	233	-6.4	100	-6.4	95	0	1014.2	NA	0.0000		9999	750	0	0	0
2019/09/03 13:44:00	BASE	6.07	241	11.16	236	-6.4	100	-6.4	91	0	1014.2	NA	0.0000		9999	790	0	0	0
2019/09/03 13:45:00	BASE	5.55	235	11.16	236	-6.5	100	-6.5	90	0	1014.2	NA	0.0000		9999	820	0	0	0
2019/09/03 13:46:00	BASE	5.78	233	9.36	240	-6.5	100	-6.5	91	0	1014.2	NA	0.0000		9999	850	0	0	0
2019/09/03 13:47:00	BASE	7.17	234	9.36	240	-6.5	100	-6.5	91	0	1014.2	NA	0.0000		9999	890	0	0	0
2019/09/03 13:48:00	BASE	7.58	234	9.36	240	-6.5	100	-6.5	95	0	1014.3	NA	0.0000		9999	890	0	0	0
2019/09/03 13:49:00	BASE	6.83	228	9.36	240	-6.5	100	-6.5	100	0	1014.4	NA	0.0000		9999	820	0	0	0
2019/09/03 13:50:00	BASE	6.52	216	9.11	239	-6.6	100	-6.6	105	0	1014.3	NA	0.0000		9999	950	0	0	0
2019/09/03 13:51:00	BASE	6.27	209	8.80	231	-6.6	100	-6.6	111	0	1014.4	NA	0.0000		9999	980	23260	0	0
2019/09/03 13:52:01	BASE	5.54	200	8.80	231	-6.6	100	-6.6	115	0	1014.4	NA	0.0000		9999	920	0	0	0
2019/09/03 13:53:01	BASE	5.18	196	8.80	231	-6.6	100	-6.6	110	0	1014.4	NA	0.0000		9999	890	0	0	0
2019/09/03 13:54:01	BASE	5.17	202	8.80	231	-6.6	100	-6.6	103	0	1014.4	NA	0.0000		9999	1020	21100	0	0
2019/09/03 13:55:01	BASE	5.89	199	8.80	231	-6.6	100	-6.6	97	0	1014.4	NA	0.0000		9999	950	0	0	0
2019/09/03 13:56:01	BASE	6.27	194	8.80	231	-6.6	100	-6.6	93	0	1014.4	NA	0.0000		9999	920	0	0	0
2019/09/03 13:57:01	BASE	5.36	192	7.87	237	-6.6	100	-6.6	89	0	1014.4	NA	0.0000		9999	850	0	0	0
2019/09/03 13:58:01	BASE	4.77	193	7.67	215	-6.6	100	-6.6	86	0	1014.4	NA	0.0000		9999	790	0	0	0
2019/09/03 13:59:01	BASE	4.93	194	7.67	215	-6.6	100	-6.6	85	0	1014.4	NA	0.0000		9999	690	0	0	0
2019/09/03 14:00:01	BASE	4.54	190	7.46	190	-6.6	100	-6.6	85	0	1014.4	NA	0.0000		9999	720	0	0	0
2019/09/03 14:01:01	BASE	3.95	187	7.46	190	-6.6	100	-6.6	84	0	1014.4	NA	0.0000		9999	690	0	0	0
2019/09/03 14:02:01	BASE	4.23	190	7.46	190	-6.6	100	-6.6	84	0	1014.4	NA	0.0000		9999	720	0	0	0
2019/09/03 14:03:01	BASE	4.97	198	7.46	190	-6.6	100	-6.6	83	0	1014.4	NA	0.0000		9999	750	0	0	0
2019/09/03 14:04:01	BASE	5.05	203	7.46	190	-6.6	100	-6.6	82	0	1014.4	NA	0.0000		9999	750	0	0	0
2019/09/03 14:05:01	BASE	4.42	211	6.28	194	-6.6	100	-6.6	81	0	1014.4	NA	0.0000		9999	750	0	0	0
2019/09/03 14:06:01	BASE	4.38	230	6.12	192	-6.6	100	-6.6	81	0	1014.4	NA	0.0000		9999	720	0	0	0
2019/09/03 14:07:01	BASE	4.39	241	6.12	192	-6.6	100	-6.6	81	0	1014.4	NA	0.0000		9999	820	0	0	0
2019/09/03 14:08:01	BASE	4.21	240	5.61	208	-6.6	100	-6.6	82	0	1014.4	NA	0.0000		9999	790	0	0	0
2019/09/03 14:09:00	BASE	5.60	228	8.28	224	-6.6	100	-6.6	83	0	1014.4	NA	0.0000		9999	820	0	0	0
2019/09/03 14:10:00	BASE	7.06	219	8.28	224	-6.6	100	-6.6	84	0	1014.5	NA	0.0000		9999	750	0	0	0
2019/09/03 14:11:00	BASE	7.32	218	8.28	224	-6.6	100	-6.6	87	0	1014.4	NA	0.0000		9999	750	0	0	0
2019/09/03 14:12:00	BASE	7.44	224	8.64	234	-6.6	100	-6.6	92	0	1014.4	NA	0.0000		9999	950	0	0	0
2019/09/03 14:13:00	BASE	6.31	232	8.64	234	-6.6	100	-6.6	96	0	1014.4	NA	0.0000		9999	920	0	0	0
2019/09/03 14:14:00	BASE	4.70	221	8.64	234	-6.6	100	-6.6	100	0	1014.4	NA	0.0000		9999	980	0	0	0
2019/09/03 14:15:00	BASE	4.40	211	8.64	234	-6.6	100	-6.6	99	0	1014.4	NA	0.0000		9999	1150	0	0	0
2019/09/03 14:16:00	BASE	3.90	214	8.64	234	-6.6	100	-6.6	95	0	1014.4	NA	0.0000		9999	1120	0	0	0
2019/09/03 14:17:00	BASE	3.66	226	8.64	234	-6.6	100	-6.6	91	0	1014.4	NA	0.0000		9999	980	0	0	0
2019/09/03 14:18:00	BASE	4.23	228	8.64	234	-6.6	100	-6.6	89	0	1014.4	NA	0.0000		9999	820	0	0	0
2019/09/03 14:19:00	BASE	4.00	224	8.64	234	-6.6	100	-6.6	87	0	1014.4	NA	0.0000		9999	820	0	0	0
2019/09/03 14:20:00	BASE	2.81	229	8.64	234	-6.6	100	-6.6	85	0	1014.4	NA	0.0000		9999	750	0	0	0
2019/09/03 14:21:00	BASE	2.07	231	8.64	234	-6.6	100	-6.6	85	0	1014.4	NA	0.0000		9999	750	0	0	0
2019/09/03 14:22:00	BASE	2.55	234	6.48	230	-6.6	100	-6.6	85	0	1014.4	NA	0.0000		9999	750	0	0	0
2019/09/03 14:23:00	BASE	3.63	242	5.14	209	-6.6	100	-6.6	85	0	1014.4	NA	0.0000		9999	790	0	0	0
2019/09/03 14:24:00	BASE	4.96	242	6.74	229	-6.6	100	-6.6	87	0	1014.4	NA	0.0000		9999	850	0	0	0
2019/09/03 14:25:00	BASE	6.86	237	9.67	233	-6.6	100	-6.6	87	0	1014.3	NA	0.0000		9999	890	0	0	0
2019/09/03 14:26:00	BASE	7.94	231	9.67	233	-6.6	100	-6.6	87	0	1014.3	NA	0.0000		9999	850	0	0	0
2019/09/03 14:27:00	BASE	8.16	228	9.67	233	-6.6	100	-6.6	88	0	1014.2	NA	0.0000		9999	850	0	0	0
2019/09/03 14:28:00	BASE	7.94	238	9.67	233	-6.5	100	-6.5	91	0	1014.2	NA	0.0000		9999	750	0	0	0
2019/09/03 14:29:00	BASE	7.10	246	9.67	233	-6.5	100	-6.5	94	0	1014.3	NA	0.0000		9999	750	0	0	0
2019/09/03 14:30:00	BASE	6.80	239	9.67	233	-6.6	100	-6.6	96	0	1014.3	NA	0.0000		9999	920	0	0	0
2019/09/03 14:31:00	BASE	7.38	233	9.67	233	-6.5	100	-6.5	96	0	1014.3	NA	0.0000		9999	980	0	0	0
2019/09/03 14:32:00	BASE	7.70	235	9.67	233	-6.6	100	-6.6	96	0	1014.4	NA	0.0000		9999	790	0	0	0
2019/09/03 14:33:00	BASE	6.21	239	9.67	233	-6.6	100	-6.6	96	0	1014.3	NA	0.0000		9999	790	0	0	0
2019/09/03 14:34:00	BASE	4.80	238	9.67	233	-6.6	100	-6.6	96	0	1014.3	NA	0.0000		9999	920	0	0	0
2019/09/03 14:35:00	BASE	5.58	227	9.26	225	-6.6	100	-6.6	96	0	1014.3	NA	0.0000		9999	750	0	0	0
2019/09/03 14:36:00	BASE	5.74	218	9.05	229	-6.6	100	-6.6	96	0	1014.4	NA	0.0000		9999	750	0	0	0
2019/09/03 14:37:00	BASE	4.58	220	8.95	230	-6.7	100	-6.7	98	0	1014.4	NA	0.0000		9999	790	0	0	0
2019/09/03 14:38:00	BASE	3.93	231	8.95	230	-6.7	100	-6.7	100	0	1014.4	NA	0.0000		9999	820	0	0	0
2019/09/03 14:39:00	BASE	3.69	243	8.95	230	-6.7	100	-6.7	100	0	1014.4	NA	0.0000		9999	850	0	0	0
2019/09/03 14:40:00	BASE	4.02	240	8.85	241	-6.7	100	-6.7	100	0	1014.4	NA	0.0000		9999	920	0	0	0
2019/09/03 14:41:00	BASE	4.71	226	8.64	233	-6.7	100	-6.7	99	0	1014.4	NA	0.0000		9999	890	0	0	0
2019/09/03 14:42:00	BASE	4.69	219	7.72	216	-6.7	100	-6.7	98	0	1014.4	NA	0.0000		9999	850	0	0	0
2019/09/03 14:43:00	BASE	4.21	217	7.72	216	-6.7	100	-6.7	98	0	1014.4	NA	0.0000		9999	850	0	0	0
2019/09/03 14:44:00	BASE	5.02	214	7.72	216	-6.6	100	-6.6	99	0	1014.2	NA	0.0000		9999	850	0	0	0
2019/09/03 14:45:00	BASE	6.19	218	7.41	225	-6.6	100	-6.6	99	0	1014.2	NA	0.0000		9999	920	0	0	0
2019/09/03 14:46:00	BASE	6.72	213	7.61	201	-6.6	100	-6.6	101	0	1014.2	NA	0.0000		9999	920	0	0	0
2019/09/03 14:47:00	BASE	6.70	204	7.61	201	-6.6	100	-6.6	104	0	1014.2	NA	0.0000		9999	920	0	0	0
2019/09/03 14:48:00	BASE	6.56	210	7.61	201	-6.6	100	-6.6	106	0	1014.2	NA	0.0000		9999	950	0	0	0
2019/09/03 14:49:00	BASE	7.37	213	9.16	205	-6.6	100	-6.6	107	0	1014.2	NA	0.0000		9999	890	0	0	0
2019/09/03 14:50:00	BASE	7.77	210	9.16	205	-6.6	100	-6.6	108	0	1014.2	NA	0.0000		9999	850	0	0	0
2019/09/03 14:51:00	BASE	6.71	209	9.16	205	-6.6	100	-6.6	109	0	1014.2	NA	0.0000		9999	890	0	0	0
2019/09/03 14:52:00	BASE	6.01	215	9.16	205	-6.6	100	-6.6	110	0	1014.2	NA	0.0000		9999	820	0	0	0
2019/09/03 14:53:00	BASE	5.58	220	9.16	205	-6.6	100	-6.6	113	0	1014.2	NA	0.0000		9999	850	0	0	0
2019/09/03 14:54:00	BASE	5.16	221	9.16	205	-6.6	100	-6.6	115	0	1014.2	NA	0.0000		9999	850	0	0	0
2019/09/03 14:55:00	BASE	5.74	218	9.16	205	-6.6	100	-6.6	115	0	1014.1	NA	0.0000		9999	890	0	0	0
2019/09/03 14:56:00	BASE	6.30	210	9.16	205	-6.6	100	-6.6	114	0	1014.1	NA	0.0000		9999	890	0	0	0
2019/09/03 14:57:00	BASE	5.91	209	9.16	205	-6.6	100	-6.6	113	0	1014.2	NA	0.0000		9999	920	0	0	0
2019/09/03 14:58:00	BASE	5.39	206	9.16	205	-6.6	100	-6.6	114	0	1014.1	NA	0.0000		9999	920	0	0	0
2019/09/03 14:59:00	BASE	5.48	212	8.03	206	-6.6	100	-6.6	117	0	1014.1	NA	0.0000		9999	790	0	0	0
2019/09/03 15:00:00	BASE	5.10	231	7.00	208	-6.6	100	-6.6	119	0	1014.1	NA	0.0000		9999	820	0	0	0
2019/09/03 15:01:00	BASE	3.89	236	7.00	208	-6.6	100	-6.6	118	0	1014.1	NA	0.0000		9999	1050	0	0	0
2019/09/03 15:02:00	BASE	3.40	223	7.00	208	-6.6	100	-6.6	122	0	1014.1	NA	0.0000		9999	950	20180	0	0
2019/09/03 15:03:01	BASE	4.04	215	7.00	208	-6.6	100	-6.6	129	0	1014.1	NA	0.0000		9999	1150	0	0	0
2019/09/03 15:04:01	BASE	4.07	221	7.00	208	-6.6	100	-6.6	133	0	1014.0	NA	0.0000		9999	1180	0	0	0
2019/09/03 15:05:01	BASE	3.44	222	7.00	208	-6.6	100	-6.6	132	0	1014.0	NA	0.0000		9999	1050	0	0	0
2019/09/03 15:06:01	BASE	4.34	222	6.74	221	-6.6	100	-6.6	129	0	1014.0	NA	0.0000		9999	980	0	0	0
2019/09/03 15:07:01	BASE	5.24	228	6.74	221	-6.6	100	-6.6	126	0	1014.0	NA	0.0000		9999	1050	0	0	0
2019/09/03 15:08:01	BASE	4.61	226	6.74	221	-6.6	100	-6.6	121	0	1014.0	NA	0.0000		9999	1020	0	0	0
2019/09/03 15:09:01	BASE	4.35	227	6.58	238	-6.6	100	-6.6	118	0	1014.0	NA	0.0000		9999	950	0	0	0
2019/09/03 15:10:01	BASE	3.98	235	6.38	231	-6.6	100	-6.6	116	0	1014.0	NA	0.0000		9999	850	0	0	0
2019/09/03 15:11:01	BASE	3.79	223	6.38	231	-6.6	100	-6.6	112	0	1014.0	NA	0.0000		9999	850	0	0	0
2019/09/03 15:12:01	BASE	4.27	212	6.38	231	-6.6	100	-6.6	110	0	1014.0	NA	0.0000		9999	820	0	0	0
2019/09/03 15:13:01	BASE	3.35	209	6.38	231	-6.6	100	-6.6	109	0	1014.0	NA	0.0000		9999	790	0	0	0
2019/09/03 15:14:01	BASE	1.65	221	6.38	231	-6.6	100	-6.6	110	0	1014.0	NA	0.0000		9999	850	0	0	0
2019/09/03 15:15:01	BASE	1.15	220	6.38	231	-6.6	100	-6.6	111	0	1014.0	NA	0.0000		9999	890	0	0	0
2019/09/03 15:16:00	BASE	1.84	199	5.81	234	-6.6	100	-6.6	111	0	1014.0	NA	0.0000		9999	950	0	0	0
2019/09/03 15:17:00	BASE	2.62	200	5.14	224	-6.6	100	-6.6	112	0	1014.0	NA	0.0000		9999	890	0	0	0
2019/09/03 15:18:00	BASE	3.72	208	5.56	212	-6.6	100	-6.6	115	0	1014.0	NA	0.0000		9999	920	0	0	0
2019/09/03 15:19:00	BASE	4.98	215	7.41	206	-6.6	100	-6.6	119	0	1014.0	NA	0.0000		9999	950	0	0	0
2019/09/03 15:20:00	BASE	6.71	213	8.49	213	-6.5	100	-6.5	121	0	1014.0	NA	0.0000		9999	950	0	0	0
2019/09/03 15:21:00	BASE	7.67	207	8.49	213	-6.5	100	-6.5	121	0	1014.0	NA	0.0000		9999	980	0	0	0
2019/09/03 15:22:00	BASE	7.42	202	8.49	213	-6.5	100	-6.5	118	0	1013.9	NA	0.0000		9999	950	0	0	0
2019/09/03 15:23:00	BASE	6.82	201	8.49	213	-6.5	100	-6.5	113	0	1014.0	NA	0.0000		9999	950	0	0	0
2019/09/03 15:24:00	BASE	5.80	201	8.49	213	-6.5	100	-6.5	107	0	1013.9	NA	0.0000		9999	820	0	0	0
2019/09/03 15:25:00	BASE	6.00	195	8.49	213	-6.5	100	-6.5	104	0	1013.8	NA	0.0000		9999	790	0	0	0
2019/09/03 15:26:00	BASE	6.48	201	8.49	213	-6.6	100	-6.6	103	0	1013.9	NA	0.0000		9999	790	0	0	0
2019/09/03 15:27:00	BASE	6.47	214	8.49	213	-6.6	100	-6.6	103	0	1013.9	NA	0.0000		9999	790	0	0	0
2019/09/03 15:28:00	BASE	7.13	212	8.49	213	-6.6	100	-6.6	104	0	1013.9	NA	0.0000		9999	850	0	0	0
2019/09/03 15:29:00	BASE	7.89	214	8.69	228	-6.6	100	-6.6	106	0	1013.9	NA	0.0000		9999	790	0	0	0
2019/09/03 15:30:00	BASE	8.10	221	9.00	225	-6.5	100	-6.5	108	0	1013.9	NA	0.0000		9999	850	0	0	0
2019/09/03 15:31:00	BASE	6.84	224	9.00	225	-6.5	100	-6.5	110	0	1013.9	NA	0.0000		9999	720	0	0	0
2019/09/03 15:32:00	BASE	5.84	222	9.00	225	-6.5	100	-6.5	111	0	1013.9	NA	0.0000		9999	850	0	0	0
2019/09/03 15:33:00	BASE	6.29	213	9.00	225	-6.6	100	-6.6	111	0	1013.8	NA	0.0000		9999	890	0	0	0
2019/09/03 15:34:00	BASE	6.22	210	9.00	225	-6.6	100	-6.6	109	0	1013.8	NA	0.0000		9999	920	0	0	0
2019/09/03 15:35:00	BASE	6.42	211	9.00	225	-6.6	100	-6.6	106	0	1013.8	NA	0.0000		9999	950	0	0	0
2019/09/03 15:36:00	BASE	7.00	206	9.00	225	-6.6	100	-6.6	107	0	1013.8	NA	0.0000		9999	850	0	0	0
2019/09/03 15:37:00	BASE	7.96	202	9.67	206	-6.6	100	-6.6	107	0	1013.8	NA	0.0000		9999	890	0	0	0
2019/09/03 15:38:00	BASE	8.06	211	9.67	206	-6.6	100	-6.6	109	0	1013.8	NA	0.0000		9999	820	0	0	0
2019/09/03 15:39:00	BASE	6.29	222	9.67	206	-6.6	100	-6.6	111	0	1013.8	NA	0.0000		9999	820	0	0	0
2019/09/03 15:40:00	BASE	5.10	214	9.67	206	-6.6	100	-6.6	112	0	1013.7	NA	0.0000		9999	890	0	0	0
2019/09/03 15:41:00	BASE	5.74	201	9.67	206	-6.6	100	-6.6	112	0	1013.7	NA	0.0000		9999	890	0	0	0
2019/09/03 15:42:00	BASE	6.33	201	9.67	206	-6.7	100	-6.7	110	0	1013.7	NA	0.0000		9999	850	0	0	0
2019/09/03 15:43:00	BASE	5.40	197	9.67	206	-6.7	100	-6.7	107	0	1013.8	NA	0.0000		9999	820	0	0	0
2019/09/03 15:44:00	BASE	4.39	194	9.67	206	-6.7	100	-6.7	108	0	1013.8	NA	0.0000		9999	790	0	0	0
2019/09/03 15:45:00	BASE	4.78	191	9.67	206	-6.6	100	-6.6	108	0	1013.8	NA	0.0000		9999	820	0	0	0
2019/09/03 15:46:00	BASE	5.85	187	9.67	206	-6.7	100	-6.7	108	0	1013.8	NA	0.0000		9999	820	0	0	0
2019/09/03 15:47:00	BASE	6.44	184	8.85	216	-6.7	100	-6.7	107	0	1013.8	NA	0.0000		9999	850	0	0	0
2019/09/03 15:48:00	BASE	7.36	202	9.26	224	-6.6	100	-6.6	106	0	1013.8	NA	0.0000		9999	850	0	0	0
2019/09/03 15:49:00	BASE	8.52	215	9.72	209	-6.6	100	-6.6	108	0	1013.8	NA	0.0000		9999	790	0	0	0
2019/09/03 15:50:00	BASE	8.79	213	9.72	209	-6.6	100	-6.6	110	0	1013.8	NA	0.0000		9999	790	0	0	0
2019/09/03 15:51:00	BASE	9.46	209	11.01	204	-6.6	100	-6.6	112	0	1013.7	NA	0.0000		9999	890	0	0	0
2019/09/03 15:52:00	BASE	9.87	204	11.01	204	-6.6	100	-6.6	116	0	1013.8	NA	0.0000		9999	890	0	0	0
2019/09/03 15:53:00	BASE	8.86	202	11.01	204	-6.7	100	-6.7	118	0	1013.8	NA	0.0000		9999	890	0	0	0
2019/09/03 15:54:00	BASE	7.44	195	11.01	204	-6.7	100	-6.7	121	0	1013.8	NA	0.0000		9999	980	0	0	0
2019/09/03 15:55:00	BASE	6.58	184	11.01	204	-6.7	100	-6.7	124	0	1013.8	NA	0.0000		9999	1020	0	0	0
2019/09/03 15:56:00	BASE	6.84	177	11.01	204	-6.7	100	-6.7	122	0	1013.8	NA	0.0000		9999	1020	0	0	0
2019/09/03 15:57:00	BASE	7.11	179	11.01	204	-6.8	100	-6.8	120	0	1013.8	NA	0.0000		9999	1080	0	0	0
2019/09/03 15:58:00	BASE	6.18	183	11.01	204	-6.8	100	-6.8	119	0	1013.9	NA	0.0000		9999	1020	0	0	0
2019/09/03 15:59:00	BASE	5.31	192	11.01	204	-6.8	100	-6.8	119	0	1013.8	NA	0.0000		9999	1020	0	0	0
2019/09/03 16:00:00	BASE	5.29	194	11.01	204	-6.7	100	-6.7	120	0	1013.8	NA	0.0000		9999	1020	0	0	0
2019/09/03 16:01:00	BASE	6.31	192	10.34	202	-6.7	100	-6.7	122	0	1013.8	NA	0.0000		9999	1150	0	0	0
2019/09/03 16:02:00	BASE	7.69	199	9.57	205	-6.7	100	-6.7	128	0	1013.8	NA	0.0000		9999	1280	0	0	0
2019/09/03 16:03:00	BASE	7.49	204	9.57	205	-6.7	100	-6.7	136	0	1013.8	NA	0.0000		9999	1250	0	0	0
2019/09/03 16:04:00	BASE	7.00	212	9.57	205	-6.7	100	-6.7	138	0	1013.8	NA	0.0000		9999	980	0	0	0
2019/09/03 16:05:00	BASE	6.75	214	9.57	205	-6.7	100	-6.7	137	0	1013.8	NA	0.0000		9999	980	0	0	0
2019/09/03 16:06:00	BASE	6.34	215	9.57	205	-6.7	100	-6.7	135	0	1013.8	NA	0.0000		9999	1080	0	0	0
2019/09/03 16:07:00	BASE	6.38	217	9.57	205	-6.7	100	-6.7	132	0	1013.8	NA	0.0000		9999	1150	0	0	0
2019/09/03 16:08:00	BASE	7.52	226	10.19	239	-6.7	100	-6.7	130	0	1013.7	NA	0.0000		9999	1080	0	0	0
2019/09/03 16:09:00	BASE	8.71	229	10.19	239	-6.6	100	-6.6	129	0	1013.7	NA	0.0000		9999	1050	0	0	0
2019/09/03 16:10:00	BASE	8.79	219	10.34	219	-6.6	100	-6.6	130	0	1013.7	NA	0.0000		9999	1050	0	0	0
2019/09/03 16:11:00	BASE	8.18	216	10.34	219	-6.6	100	-6.6	129	0	1013.7	NA	0.0000		9999	1020	0	0	0
2019/09/03 16:12:00	BASE	7.51	220	10.34	219	-6.6	100	-6.6	126	0	1013.7	NA	0.0000		9999	980	0	0	0
2019/09/03 16:13:00	BASE	7.74	219	10.34	219	-6.6	100	-6.6	124	0	1013.7	NA	0.0000		9999	980	0	0	0
2019/09/03 16:14:00	BASE	8.13	213	10.34	219	-6.6	100	-6.6	124	0	1013.7	NA	0.0000		9999	1020	0	0	0
2019/09/03 16:15:00	BASE	7.89	212	10.34	219	-6.6	100	-6.6	125	0	1013.6	NA	0.0000		9999	950	0	0	0
2019/09/03 16:16:00	BASE	7.93	220	10.34	219	-6.6	100	-6.6	125	0	1013.6	NA	0.0000		9999	890	0	0	0
2019/09/03 16:17:00	BASE	8.52	215	10.34	219	-6.6	100	-6.6	124	0	1013.6	NA	0.0000		9999	920	0	0	0
2019/09/03 16:18:00	BASE	8.28	202	10.34	219	-6.6	100	-6.6	126	0	1013.5	NA	0.0000		9999	890	0	0	0
2019/09/03 16:19:00	BASE	7.31	201	10.34	219	-6.6	100	-6.6	130	0	1013.5	NA	0.0000		9999	950	0	0	0
2019/09/03 16:20:01	BASE	7.98	217	9.62	236	-6.6	100	-6.6	133	0	1013.5	NA	0.0000		9999	920	0	0	0
2019/09/03 16:21:01	BASE	8.16	234	9.62	236	-6.6	100	-6.6	131	0	1013.5	NA	0.0000		9999	920	0	0	0
2019/09/03 16:22:01	BASE	6.91	236	9.62	236	-6.6	100	-6.6	128	0	1013.5	NA	0.0000		9999	850	0	0	0
2019/09/03 16:23:00	BASE	6.90	230	9.62	236	-6.6	100	-6.6	126	0	1013.5	NA	0.0000		9999	850	0	0	0
2019/09/03 16:24:00	BASE	7.13	217	9.62	236	-6.6	100	-6.6	124	0	1013.6	NA	0.0000		9999	890	0	0	0
2019/09/03 16:25:00	BASE	6.94	209	9.62	236	-6.6	100	-6.6	123	0	1013.6	NA	0.0000		9999	920	0	0	0
2019/09/03 16:26:00	BASE	7.83	205	9.62	236	-6.6	100	-6.6	124	0	1013.5	NA	0.0000		9999	1020	0	0	0
2019/09/03 16:27:00	BASE	8.93	202	10.13	201	-6.6	100	-6.6	128	0	1013.4	NA	0.0000		9999	1050	0	0	0
2019/09/03 16:28:00	BASE	8.08	201	10.13	201	-6.7	100	-6.7	132	0	1013.5	NA	0.0000		9999	950	21200	0	0
2019/09/03 16:29:00	BASE	6.72	203	10.13	201	-6.7	100	-6.7	133	0	1013.6	NA	0.0000		9999	950	0	0	0
2019/09/03 16:30:00	BASE	5.99	203	10.13	201	-6.7	100	-6.7	130	0	1013.5	NA	0.0000		9999	950	0	0	0
2019/09/03 16:31:00	BASE	5.76	192	10.13	201	-6.7	100	-6.7	124	0	1013.5	NA	0.0000		9999	980	0	0	0
2019/09/03 16:32:00	BASE	7.50	190	10.13	201	-6.7	100	-6.7	119	0	1013.5	NA	0.0000		9999	890	0	0	0
2019/09/03 16:33:00	BASE	8.82	197	10.13	201	-6.6	100	-6.6	117	0	1013.5	NA	0.0000		9999	890	0	0	0
2019/09/03 16:34:00	BASE	8.12	194	10.13	201	-6.6	100	-6.6	117	0	1013.5	NA	0.0000		9999	890	0	0	0
2019/09/03 16:35:00	BASE	7.18	196	10.13	201	-6.6	100	-6.6	118	0	1013.5	NA	0.0000		9999	890	0	0	0
2019/09/03 16:36:00	BASE	7.94	200	10.24	202	-6.6	100	-6.6	119	0	1013.4	NA	0.0000		9999	920	0	0	0
2019/09/03 16:37:00	BASE	8.13	202	10.24	202	-6.6	100	-6.6	120	0	1013.4	NA	0.0000		9999	920	0	0	0
2019/09/03 16:38:00	BASE	6.27	206	10.24	202	-6.7	100	-6.7	119	0	1013.4	NA	0.0000		9999	950	0	0	0
2019/09/03 16:39:00	BASE	5.10	212	10.24	202	-6.6	100	-6.6	119	0	1013.4	NA	0.0000		9999	850	0	0	0
2019/09/03 16:40:00	BASE	6.82	216	11.11	217	-6.6	100	-6.6	122	0	1013.4	NA	0.0000		9999	950	0	0	0
2019/09/03 16:41:00	BASE	9.59	215	11.63	218	-6.6	100	-6.6	125	0	1013.4	NA	0.0000		9999	1120	0	0	0
2019/09/03 16:42:00	BASE	10.37	217	11.63	218	-6.6	100	-6.6	130	0	1013.4	NA	0.0000		9999	980	0	0	0
2019/09/03 16:43:00	BASE	10.11	218	11.63	218	-6.6	100	-6.6	136	0	1013.4	NA	0.0000		9999	1020	0	0	0
2019/09/03 16:44:00	BASE	10.07	211	12.14	211	-6.6	100	-6.6	141	0	1013.5	NA	0.0000		9999	850	0	0	0
2019/09/03 16:45:00	BASE	9.52	201	12.14	211	-6.6	100	-6.6	137	0	1013.5	NA	0.0000		9999	950	0	0	0
2019/09/03 16:46:00	BASE	7.96	193	12.14	211	-6.7	100	-6.7	133	0	1013.5	NA	0.0000		9999	950	0	0	0
2019/09/03 16:47:00	BASE	7.95	196	12.14	211	-6.7	100	-6.7	134	0	1013.5	NA	0.0000		9999	950	0	0	0
2019/09/03 16:48:00	BASE	9.10	203	12.14	211	-6.7	100	-6.7	137	0	1013.4	NA	0.0000		9999	950	0	0	0
2019/09/03 16:49:00	BASE	8.75	202	12.14	211	-6.8	100	-6.8	146	0	1013.4	NA	0.0000		9999	1080	0	0	0
2019/09/03 16:50:00	BASE	7.62	203	12.14	211	-6.8	100	-6.8	159	0	1013.4	NA	0.0000		9999	1150	0	0	0
2019/09/03 16:51:00	BASE	6.98	201	12.14	211	-6.8	100	-6.8	163	0	1013.4	NA	0.0000		9999	1150	0	0	0
2019/09/03 16:52:00	BASE	6.79	199	12.14	211	-6.8	100	-6.8	155	0	1013.4	NA	0.0000		9999	1080	0	0	0
2019/09/03 16:53:00	BASE	7.20	204	12.14	211	-6.8	100	-6.8	149	0	1013.4	NA	0.0000		9999	1120	0	0	0
2019/09/03 16:54:00	BASE	7.19	204	11.42	205	-6.7	100	-6.7	148	0	1013.4	NA	0.0000		9999	1120	0	0	0
2019/09/03 16:55:00	BASE	7.18	195	11.42	205	-6.7	100	-6.7	154	0	1013.4	NA	0.0000		9999	1050	0	0	0
2019/09/03 16:56:00	BASE	6.97	183	11.42	205	-6.7	100	-6.7	158	0	1013.4	NA	0.0000		9999	1020	0	0	0
2019/09/03 16:57:00	BASE	6.21	179	11.11	203	-6.7	100	-6.7	151	0	1013.4	NA	0.0000		9999	1150	0	0	0
2019/09/03 16:58:00	BASE	6.17	184	10.08	204	-6.7	100	-6.7	144	0	1013.4	NA	0.0000		9999	1080	0	0	0
2019/09/03 16:59:00	BASE	6.68	201	8.49	182	-6.7	100	-6.7	142	0	1013.4	NA	0.0000		9999	980	0	0	0
2019/09/03 17:00:00	BASE	6.32	209	8.49	182	-6.7	100	-6.7	140	0	1013.4	NA	0.0000		9999	980	0	0	0
2019/09/03 17:01:00	BASE	5.10	200	8.49	182	-6.7	100	-6.7	139	0	1013.4	NA	0.0000		9999	980	0	0	0
2019/09/03 17:02:00	BASE	4.70	201	8.49	182	-6.7	100	-6.7	142	0	1013.4	NA	0.0000		9999	1020	0	0	0
2019/09/03 17:03:00	BASE	4.72	209	8.49	182	-6.7	100	-6.7	146	0	1013.4	NA	0.0000		9999	1050	0	0	0
2019/09/03 17:04:00	BASE	5.03	208	8.49	182	-6.6	100	-6.6	151	0	1013.4	NA	0.0000		9999	1120	0	0	0
2019/09/03 17:05:00	BASE	6.24	210	8.90	215	-6.6	100	-6.6	161	0	1013.4	NA	0.0000		9999	1050	0	0	0
2019/09/03 17:06:00	BASE	5.99	212	8.90	215	-6.6	100	-6.6	164	0	1013.4	NA	0.0000		9999	980	0	0	0
2019/09/03 17:07:00	BASE	5.07	213	8.90	215	-6.6	100	-6.6	160	0	1013.4	NA	0.0000		9999	1020	0	0	0
2019/09/03 17:08:00	BASE	5.26	216	8.90	215	-6.7	100	-6.7	155	0	1013.4	NA	0.0000		9999	1080	0	0	0
2019/09/03 17:09:00	BASE	6.39	225	8.90	215	-6.7	100	-6.7	154	0	1013.4	NA	0.0000		9999	1080	0	0	0
2019/09/03 17:10:00	BASE	7.24	232	8.90	215	-6.7	100	-6.7	155	0	1013.4	NA	0.0000		9999	1120	0	0	0
2019/09/03 17:11:00	BASE	6.61	233	8.90	215	-6.7	100	-6.7	163	0	1013.4	NA	0.0000		9999	1050	0	0	0
2019/09/03 17:12:00	BASE	5.92	232	8.90	215	-6.7	100	-6.7	167	0	1013.4	NA	0.0000		9999	1020	0	0	0
2019/09/03 17:13:00	BASE	5.48	225	8.90	215	-6.6	100	-6.6	167	0	1013.3	NA	0.0000		9999	1020	0	0	0
2019/09/03 17:14:00	BASE	5.09	214	8.90	215	-6.6	100	-6.6	158	0	1013.3	NA	0.0000		9999	1050	0	0	0
2019/09/03 17:15:00	BASE	4.94	211	8.18	234	-6.6	100	-6.6	151	0	1013.3	NA	0.0000		9999	1050	0	0	0
2019/09/03 17:16:00	BASE	5.72	219	8.49	231	-6.6	100	-6.6	149	0	1013.3	NA	0.0000		9999	1080	0	0	0
2019/09/03 17:17:00	BASE	7.27	222	8.80	225	-6.5	100	-6.5	154	0	1013.3	NA	0.0000		9999	1080	0	0	0
2019/09/03 17:18:00	BASE	7.61	226	8.80	225	-6.5	100	-6.5	165	0	1013.3	NA	0.0000		9999	1120	0	0	0
2019/09/03 17:19:00	BASE	7.05	228	8.80	225	-6.5	100	-6.5	168	0	1013.3	NA	0.0000		9999	1020	0	0	0
2019/09/03 17:20:00	BASE	6.32	222	8.80	225	-6.5	100	-6.5	166	0	1013.3	NA	0.0000		9999	1050	0	0	0
2019/09/03 17:21:00	BASE	5.34	210	8.80	225	-6.5	100	-6.5	165	0	1013.3	NA	0.0000		9999	1050	0	0	0
2019/09/03 17:22:00	BASE	4.59	206	8.80	225	-6.6	100	-6.6	166	0	1013.3	NA	0.0000		9999	1080	0	0	0
2019/09/03 17:23:00	BASE	4.25	215	8.80	225	-6.6	100	-6.6	165	0	1013.2	NA	0.0000		9999	1080	0	0	0
2019/09/03 17:24:00	BASE	4.37	228	8.80	225	-6.6	100	-6.6	159	0	1013.2	NA	0.0000		9999	1050	0	0	0
2019/09/03 17:25:00	BASE	4.66	227	8.80	225	-6.6	100	-6.6	149	0	1013.2	NA	0.0000		9999	1080	0	0	0
2019/09/03 17:26:00	BASE	5.03	221	8.80	225	-6.6	100	-6.6	143	0	1013.2	NA	0.0000		9999	1080	0	0	0
2019/09/03 17:27:00	BASE	5.53	220	7.97	227	-6.6	100	-6.6	138	0	1013.3	NA	0.0000		9999	1050	0	0	0
2019/09/03 17:28:01	BASE	7.01	217	8.85	216	-6.5	100	-6.5	146	0	1013.3	NA	0.0000		9999	1120	0	0	0
2019/09/03 17:29:01	BASE	7.63	217	8.85	216	-6.5	100	-6.5	157	0	1013.3	NA	0.0000		9999	1080	1610	0	0
2019/09/03 17:30:01	BASE	6.97	217	8.85	216	-6.6	100	-6.6	167	0	1013.3	NA	0.0000		9999	1120	0	0	0
2019/09/03 17:31:01	BASE	6.25	220	8.85	216	-6.6	100	-6.6	171	0	1013.3	NA	0.0000		9999	1150	20440	0	0
2019/09/03 17:32:00	BASE	5.47	220	8.85	216	-6.6	100	-6.6	175	0	1013.3	NA	0.0000		9999	1150	0	0	0
2019/09/03 17:33:00	BASE	5.67	224	8.85	216	-6.6	100	-6.6	169	0	1013.3	NA	0.0000		9999	1050	0	0	0
2019/09/03 17:34:00	BASE	6.71	230	8.85	216	-6.6	100	-6.6	156	0	1013.2	NA	0.0000		9999	1020	0	0	0
2019/09/03 17:35:00	BASE	6.89	223	8.85	216	-6.5	100	-6.5	151	0	1013.2	NA	0.0000		9999	1050	0	0	0
2019/09/03 17:36:00	BASE	6.21	216	8.85	216	-6.5	100	-6.5	156	0	1013.2	NA	0.0000		9999	1020	0	0	0
2019/09/03 17:37:00	BASE	6.02	222	8.85	216	-6.5	100	-6.5	151	0	1013.2	NA	0.0000		9999	1020	0	0	0
2019/09/03 17:38:00	BASE	6.45	226	9.62	219	-6.5	100	-6.5	145	0	1013.2	NA	0.0000		9999	1080	0	0	0
2019/09/03 17:39:00	BASE	8.04	222	10.34	219	-6.6	100	-6.6	138	0	1013.2	NA	0.0000		9999	1150	0	0	0
2019/09/03 17:40:00	BASE	8.15	217	10.34	219	-6.6	100	-6.6	146	0	1013.1	NA	0.0000		9999	1120	0	0	0
2019/09/03 17:41:00	BASE	6.09	222	10.34	219	-6.7	100	-6.7	151	0	1013.2	NA	0.0000		9999	1120	0	0	0
2019/09/03 17:42:00	BASE	5.56	219	10.34	219	-6.7	100	-6.7	144	0	1013.2	NA	0.0000		9999	1080	0	0	0
2019/09/03 17:43:00	BASE	6.25	205	10.34	219	-6.6	100	-6.6	142	0	1013.1	NA	0.0000		9999	1080	0	0	0
2019/09/03 17:44:00	BASE	6.46	206	10.34	219	-6.6	100	-6.6	146	0	1013.2	NA	0.0000		9999	1080	0	0	0
2019/09/03 17:45:00	BASE	6.06	214	10.34	219	-6.6	100	-6.6	147	0	1013.1	NA	0.0000		9999	1080	0	0	0
2019/09/03 17:46:00	BASE	5.76	215	10.34	219	-6.6	100	-6.6	143	0	1013.0	NA	0.0000		9999	1020	0	0	0
2019/09/03 17:47:00	BASE	5.68	218	10.34	219	-6.6	100	-6.6	136	0	1013.0	NA	0.0000		9999	1050	0	0	0
2019/09/03 17:48:00	BASE	6.91	225	10.34	219	-6.6	100	-6.6	130	0	1013.0	NA	0.0000		9999	1120	0	0	0
2019/09/03 17:49:00	BASE	8.61	230	9.52	230	-6.6	100	-6.6	138	0	1013.0	NA	0.0000		9999	1120	0	0	0
2019/09/03 17:50:00	BASE	8.71	229	9.52	230	-6.6	100	-6.6	156	0	1013.0	NA	0.0000		9999	1210	0	0	0
2019/09/03 17:51:00	BASE	8.34	229	9.52	230	-6.6	100	-6.6	150	0	1013.0	NA	0.0000		9999	1150	0	0	0
2019/09/03 17:52:00	BASE	7.91	228	9.52	230	-6.6	100	-6.6	138	0	1013.0	NA	0.0000		9999	1120	0	0	0
2019/09/03 17:53:00	BASE	7.21	228	9.52	230	-6.6	100	-6.6	138	0	1012.9	NA	0.0000		9999	1080	0	0	0
2019/09/03 17:54:00	BASE	6.42	225	9.52	230	-6.6	100	-6.6	134	0	1013.0	NA	0.0000		9999	1050	0	0	0
2019/09/03 17:55:00	BASE	6.29	217	9.52	230	-6.6	100	-6.6	127	0	1012.9	NA	0.0000		9999	1020	0	0	0
2019/09/03 17:56:00	BASE	5.92	216	9.52	230	-6.6	100	-6.6	127	0	1012.9	NA	0.0000		9999	920	0	0	0
2019/09/03 17:57:00	BASE	5.06	223	9.52	230	-6.6	100	-6.6	127	0	1012.9	NA	0.0000		9999	980	0	0	0
2019/09/03 17:58:00	BASE	5.09	219	9.52	230	-6.6	100	-6.6	123	0	1012.9	NA	0.0000		9999	1050	0	0	0
2019/09/03 17:59:00	BASE	5.65	202	9.21	229	-6.6	100	-6.6	118	0	1013.0	NA	0.0000		9999	1020	0	0	0
2019/09/03 18:00:00	BASE	5.58	197	9.21	229	-6.6	100	-6.6	113	0	1013.0	NA	0.0000		9999	890	0	0	0
2019/09/03 18:01:00	BASE	4.73	203	8.54	223	-6.6	100	-6.6	113	0	1013.1	NA	0.0000		9999	890	0	0	0
2019/09/03 18:02:00	BASE	3.62	201	7.51	229	-6.6	100	-6.6	116	0	1013.0	NA	0.0000		9999	890	0	0	0
2019/09/03 18:03:00	BASE	3.86	192	7.15	215	-6.6	100	-6.6	122	0	1013.0	NA	0.0000		9999	850	22050	0	0
2019/09/03 18:04:00	BASE	5.09	199	7.15	215	-6.6	100	-6.6	124	0	1013.1	NA	0.0000		9999	920	0	0	0
2019/09/03 18:05:00	BASE	6.04	219	7.15	229	-6.6	100	-6.6	122	0	1013.1	NA	0.0000		9999	980	0	0	0
2019/09/03 18:06:00	BASE	6.53	230	7.15	229	-6.6	100	-6.6	118	0	1013.0	NA	0.0000		9999	920	21590	0	0
2019/09/03 18:07:00	BASE	6.27	222	7.87	228	-6.6	100	-6.6	115	0	1013.0	NA	0.0000		9999	890	0	0	0
2019/09/03 18:08:00	BASE	5.89	209	7.87	228	-6.5	100	-6.5	114	0	1013.0	NA	0.0000		9999	920	0	0	0
2019/09/03 18:09:00	BASE	5.81	198	7.87	228	-6.5	100	-6.5	112	0	1013.0	NA	0.0000		9999	950	0	0	0
2019/09/03 18:10:00	BASE	5.89	192	7.87	228	-6.6	100	-6.6	113	0	1013.0	NA	0.0000		9999	920	0	0	0
2019/09/03 18:11:00	BASE	5.72	197	7.87	228	-6.6	100	-6.6	112	0	1013.0	NA	0.0000		9999	980	0	0	0
2019/09/03 18:12:00	BASE	5.62	196	7.87	228	-6.6	100	-6.6	109	0	1013.0	NA	0.0000		9999	980	23000	0	0
2019/09/03 18:13:00	BASE	6.00	199	7.87	228	-6.6	100	-6.6	108	0	1013.0	NA	0.0000		9999	850	0	0	0
2019/09/03 18:14:00	BASE	6.24	207	7.87	228	-6.6	100	-6.6	107	0	1013.0	NA	0.0000		9999	820	0	0	0
2019/09/03 18:15:00	BASE	5.89	206	7.87	228	-6.6	100	-6.6	108	0	1013.0	NA	0.0000		9999	820	0	0	0
2019/09/03 18:16:00	BASE	5.19	205	7.87	228	-6.6	100	-6.6	110	0	1013.0	NA	0.0000		9999	820	0	0	0
2019/09/03 18:17:00	BASE	4.26	202	7.00	197	-6.6	100	-6.6	107	0	1013.0	NA	0.0000		9999	820	0	0	0
2019/09/03 18:18:00	BASE	3.50	202	7.00	197	-6.6	100	-6.6	105	0	1013.0	NA	0.0000		9999	820	0	0	0
2019/09/03 18:19:00	BASE	3.51	203	7.00	197	-6.6	100	-6.6	102	0	1013.0	NA	0.0000		9999	890	0	0	0
2019/09/03 18:20:00	BASE	4.90	204	7.10	203	-6.5	100	-6.5	99	0	1013.0	NA	0.0000		9999	820	0	0	0
2019/09/03 18:21:00	BASE	5.50	213	7.10	203	-6.5	100	-6.5	98	0	1013.0	NA	0.0000		9999	890	0	0	0
2019/09/03 18:22:00	BASE	5.70	217	7.31	214	-6.5	100	-6.5	97	0	1013.0	NA	0.0000		9999	920	0	0	0
2019/09/03 18:23:00	BASE	6.98	209	8.28	208	-6.5	100	-6.5	95	0	1013.0	NA	0.0000		9999	890	0	0	0
2019/09/03 18:24:00	BASE	6.99	202	8.28	208	-6.4	100	-6.4	95	0	1012.9	NA	0.0000		9999	750	0	0	0
2019/09/03 18:25:01	BASE	6.65	205	8.44	219	-6.5	100	-6.5	96	0	1012.9	NA	0.0000		9999	820	0	0	0
2019/09/03 18:26:01	BASE	6.48	206	8.44	219	-6.5	100	-6.5	98	0	1013.0	NA	0.0000		9999	850	0	0	0
2019/09/03 18:27:01	BASE	6.17	203	8.44	219	-6.5	100	-6.5	98	0	1012.9	NA	0.0000		9999	850	0	0	0
2019/09/03 18:28:01	BASE	6.87	216	8.59	224	-6.5	100	-6.5	97	0	1012.9	NA	0.0000		9999	850	0	0	0
2019/09/03 18:29:01	BASE	7.55	225	11.01	222	-6.5	100	-6.5	94	0	1012.9	NA	0.0000		9999	790	0	0	0
2019/09/03 18:30:01	BASE	8.27	212	11.06	213	-6.5	100	-6.5	91	0	1012.9	NA	0.0000		9999	820	0	0	0
2019/09/03 18:31:01	BASE	7.70	202	11.06	213	-6.5	100	-6.5	88	0	1012.9	NA	0.0000		9999	850	0	0	0
2019/09/03 18:32:01	BASE	6.43	207	11.06	213	-6.4	100	-6.4	85	0	1012.9	NA	0.0000		9999	820	0	0	0
2019/09/03 18:33:01	BASE	7.16	207	11.06	213	-6.4	100	-6.4	84	0	1012.9	NA	0.0000		9999	820	0	0	0
2019/09/03 18:34:01	BASE	8.16	209	11.06	213	-6.4	100	-6.4	82	0	1012.9	NA	0.0000		9999	750	0	0	0
2019/09/03 18:35:01	BASE	9.06	210	11.06	213	-6.4	100	-6.4	82	0	1012.8	NA	0.0000		9999	790	0	0	0
2019/09/03 18:36:01	BASE	9.38	205	11.06	213	-6.5	100	-6.5	82	0	1012.9	NA	0.0000		9999	790	0	0	0
2019/09/03 18:37:01	BASE	8.05	200	11.06	213	-6.5	100	-6.5	83	0	1012.9	NA	0.0000		9999	790	0	0	0
2019/09/03 18:38:01	BASE	6.53	196	11.06	213	-6.6	100	-6.6	85	0	1012.9	NA	0.0000		9999	690	0	0	0
2019/09/03 18:39:01	BASE	6.31	196	11.06	213	-6.6	100	-6.6	85	0	1012.9	NA	0.0000		9999	720	0	0	0
2019/09/03 18:40:01	BASE	5.91	195	10.34	205	-6.7	100	-6.7	84	0	1012.9	NA	0.0000		9999	790	0	0	0
2019/09/03 18:41:01	BASE	5.25	197	10.34	205	-6.7	100	-6.7	83	0	1012.9	NA	0.0000		9999	820	0	0	0
2019/09/03 18:42:00	BASE	5.03	194	10.34	205	-6.7	100	-6.7	84	0	1013.0	NA	0.0000		9999	720	0	0	0
2019/09/03 18:43:00	BASE	5.03	192	10.34	205	-6.7	100	-6.7	84	0	1013.0	NA	0.0000		9999	720	0	0	0
2019/09/03 18:44:00	BASE	6.26	200	10.34	205	-6.7	100	-6.7	84	0	1013.0	NA	0.0000		9999	750	0	0	0
2019/09/03 18:45:00	BASE	7.57	212	9.83	209	-6.6	100	-6.6	82	0	1012.9	NA	0.0000		9999	690	0	0	0
2019/09/03 18:46:00	BASE	6.90	213	8.54	219	-6.6	100	-6.6	79	0	1013.0	NA	0.0000		9999	720	0	0	0
2019/09/03 18:47:00	BASE	5.91	207	8.54	219	-6.6	100	-6.6	76	0	1013.0	NA	0.0000		9999	720	0	0	0
2019/09/03 18:48:00	BASE	6.14	205	8.54	219	-6.6	100	-6.6	74	0	1013.0	NA	0.0000		9999	620	0	0	0
2019/09/03 18:49:00	BASE	6.92	205	9.31	209	-6.6	100	-6.6	73	0	1013.0	NA	0.0000		9999	790	0	0	0
2019/09/03 18:50:00	BASE	8.66	212	10.44	214	-6.6	100	-6.6	74	0	1013.0	NA	0.0000		9999	750	0	0	0
2019/09/03 18:51:00	BASE	9.55	223	10.44	214	-6.6	100	-6.6	78	0	1013.0	NA	0.0000		9999	850	0	0	0
2019/09/03 18:52:00	BASE	8.63	228	10.44	214	-6.6	100	-6.6	82	0	1013.1	NA	0.0000		9999	820	0	0	0
2019/09/03 18:53:00	BASE	7.63	219	10.44	214	-6.6	100	-6.6	84	0	1013.0	NA	0.0000		9999	820	0	0	0
2019/09/03 18:54:00	BASE	7.42	211	10.44	214	-6.6	100	-6.6	82	0	1013.0	NA	0.0000		9999	790	0	0	0
2019/09/03 18:55:00	BASE	7.89	212	10.44	214	-6.6	100	-6.6	78	0	1013.0	NA	0.0000		9999	820	0	0	0
2019/09/03 18:56:00	BASE	7.68	203	10.44	214	-6.6	100	-6.6	75	0	1013.0	NA	0.0000		9999	750	0	0	0
2019/09/03 18:57:00	BASE	6.57	190	10.44	214	-6.6	100	-6.6	72	0	1013.0	NA	0.0000		9999	790	0	0	0
2019/09/03 18:58:00	BASE	5.55	183	10.44	214	-6.6	100	-6.6	71	0	1013.0	NA	0.0000		9999	850	0	0	0
2019/09/03 18:59:00	BASE	5.03	180	10.44	214	-6.6	100	-6.6	69	0	1013.0	NA	0.0000		9999	890	0	0	0
2019/09/03 19:00:00	BASE	5.00	178	9.83	227	-6.6	100	-6.6	68	0	1013.0	NA	0.0000		9999	850	0	0	0
2019/09/03 19:01:00	BASE	5.22	184	9.31	209	-6.6	100	-6.6	67	0	1013.0	NA	0.0000		9999	890	0	0	0
2019/09/03 19:02:00	BASE	5.83	198	9.31	209	-6.6	100	-6.6	67	0	1013.0	NA	0.0000		9999	920	0	0	0
2019/09/03 19:03:00	BASE	6.26	200	9.31	209	-6.6	100	-6.6	68	0	1013.0	NA	0.0000		9999	890	0	0	0
2019/09/03 19:04:00	BASE	5.83	196	9.31	209	-6.5	100	-6.5	68	0	1013.0	NA	0.0000		9999	850	0	0	0
2019/09/03 19:05:00	BASE	5.56	197	8.18	200	-6.5	100	-6.5	68	0	1013.0	NA	0.0000		9999	790	0	0	0
2019/09/03 19:06:00	BASE	6.32	203	7.92	203	-6.5	100	-6.5	70	0	1012.9	NA	0.0000		9999	750	0	0	0
2019/09/03 19:07:00	BASE	6.88	210	7.92	203	-6.5	100	-6.5	71	0	1013.0	NA	0.0000		9999	720	0	0	0
2019/09/03 19:08:00	BASE	6.39	213	7.92	203	-6.5	100	-6.5	72	0	1013.0	NA	0.0000		9999	890	0	0	0
2019/09/03 19:09:01	BASE	5.37	214	7.92	203	-6.5	100	-6.5	72	0	1013.0	NA	0.0000		9999	920	0	0	0
2019/09/03 19:10:00	BASE	4.93	209	7.92	203	-6.5	100	-6.5	72	0	1012.9	NA	0.0000		9999	890	0	0	0
2019/09/03 19:11:00	BASE	5.36	204	7.92	203	-6.5	100	-6.5	71	0	1012.9	NA	0.0000		9999	850	0	0	0
2019/09/03 19:12:00	BASE	5.52	206	7.92	203	-6.5	100	-6.5	71	0	1012.9	NA	0.0000		9999	820	0	0	0
2019/09/03 19:13:00	BASE	6.34	206	8.28	204	-6.5	100	-6.5	72	0	1012.9	NA	0.0000		9999	850	0	0	0
2019/09/03 19:14:00	BASE	7.06	209	8.69	213	-6.4	100	-6.4	73	0	1012.9	NA	0.0000		9999	1020	0	0	0
2019/09/03 19:15:00	BASE	5.50	209	8.69	213	-6.4	100	-6.4	74	0	1012.9	NA	0.0000		9999	950	0	0	0
2019/09/03 19:16:00	BASE	4.69	205	8.69	213	-6.4	100	-6.4	78	0	1012.9	NA	0.0000		9999	980	0	0	0
2019/09/03 19:17:00	BASE	6.19	210	8.69	213	-6.4	100	-6.4	81	0	1012.9	NA	0.0000		9999	1080	0	0	0
2019/09/03 19:18:01	BASE	7.05	208	8.69	213	-6.4	100	-6.4	81	0	1012.9	NA	0.0000		9999	1150	0	0	0
2019/09/03 19:19:01	BASE	6.71	198	8.69	213	-6.4	100	-6.4	78	0	1012.9	NA	0.0000		9999	1020	0	0	0
2019/09/03 19:20:01	BASE	5.94	190	8.69	213	-6.4	100	-6.4	75	0	1013.0	NA	0.0000		9999	1050	0	0	0
2019/09/03 19:21:01	BASE	5.56	186	8.69	213	-6.4	100	-6.4	71	0	1013.0	NA	0.0000		9999	1050	0	0	0
2019/09/03 19:22:01	BASE	5.13	185	8.69	213	-6.4	100	-6.4	66	0	1013.0	NA	0.0000		9999	1050	0	0	0
2019/09/03 19:23:01	BASE	4.89	193	8.69	213	-6.4	100	-6.4	62	0	1013.0	NA	0.0000		9999	1020	0	0	0
2019/09/03 19:24:01	BASE	5.18	201	8.49	211	-6.4	100	-6.4	60	0	1013.0	NA	0.0000		9999	920	0	0	0
2019/09/03 19:25:01	BASE	5.44	202	8.49	211	-6.3	100	-6.3	59	0	1013.0	NA	0.0000		9999	950	0	0	0
2019/09/03 19:26:01	BASE	5.24	206	8.49	211	-6.3	100	-6.3	58	0	1013.0	NA	0.0000		9999	920	0	0	0
2019/09/03 19:27:01	BASE	4.97	205	7.82	194	-6.3	100	-6.3	57	0	1013.0	NA	0.0000		9999	950	0	0	0
2019/09/03 19:28:01	BASE	6.29	200	8.28	200	-6.2	100	-6.2	55	0	1013.0	NA	0.0000		9999	1020	0	0	0
2019/09/03 19:29:01	BASE	7.74	197	9.21	196	-6.2	100	-6.2	55	0	1013.0	NA	0.0000		9999	980	0	0	0
2019/09/03 19:30:01	BASE	8.54	190	9.67	190	-6.2	100	-6.2	55	0	1013.0	NA	0.0000		9999	1020	0	0	0
2019/09/03 19:31:01	BASE	8.50	186	9.67	190	-6.1	100	-6.1	55	0	1013.0	NA	0.0000		9999	1050	0	0	0
2019/09/03 19:32:01	BASE	7.80	187	9.67	190	-6.1	100	-6.1	53	0	1013.0	NA	0.0000		9999	1080	0	0	0
2019/09/03 19:33:01	BASE	6.90	185	9.67	190	-6.1	100	-6.1	52	0	1013.0	NA	0.0000		9999	1050	0	0	0
2019/09/03 19:34:01	BASE	5.80	182	9.67	190	-6.1	100	-6.1	51	0	1013.0	NA	0.0000		9999	1050	0	0	0
2019/09/03 19:35:01	BASE	5.78	181	9.67	190	-6.1	100	-6.1	50	0	1013.0	NA	0.0000		9999	1080	0	0	0
2019/09/03 19:36:01	BASE	6.45	180	9.67	190	-6.1	100	-6.1	49	0	1013.1	NA	0.0000		9999	1080	0	0	0
2019/09/03 19:37:01	BASE	6.36	182	9.67	190	-6.1	100	-6.1	48	0	1013.2	NA	0.0000		9999	1020	0	0	0
2019/09/03 19:38:01	BASE	5.75	188	9.67	190	-6.1	100	-6.1	48	0	1013.1	NA	0.0000		9999	1020	0	0	0
2019/09/03 19:39:01	BASE	5.01	197	9.67	190	-6.1	100	-6.1	47	0	1013.2	NA	0.0000		9999	1020	0	0	0
2019/09/03 19:40:01	BASE	5.13	195	9.21	191	-6.1	100	-6.1	48	0	1013.1	NA	0.0000		9999	1080	0	0	0
2019/09/03 19:41:01	BASE	5.70	191	8.39	184	-6.0	100	-6.0	47	0	1013.1	NA	0.0000		9999	1080	0	0	0
2019/09/03 19:42:01	BASE	5.69	194	7.82	171	-6.0	100	-6.0	47	0	1013.0	NA	0.0000		9999	1080	0	0	0
2019/09/03 19:43:01	BASE	5.61	189	7.82	192	-5.9	100	-5.9	46	0	1013.0	NA	0.0000		9999	1050	0	0	0
2019/09/03 19:44:01	BASE	6.36	186	8.54	190	-5.9	100	-5.9	46	0	1013.0	NA	0.0000		9999	1050	0	0	0
2019/09/03 19:45:01	BASE	7.36	192	8.54	190	-5.9	100	-5.9	46	0	1013.0	NA	0.0000		9999	980	0	0	0
2019/09/03 19:46:01	BASE	7.33	195	8.54	190	-5.9	100	-5.9	46	0	1013.0	NA	0.0000		9999	1020	0	0	0
2019/09/03 19:47:01	BASE	6.35	204	8.54	190	-5.9	100	-5.9	46	0	1013.0	NA	0.0000		9999	980	0	0	0
2019/09/03 19:48:01	BASE	5.78	212	8.54	190	-5.9	100	-5.9	46	0	1013.0	NA	0.0000		9999	980	0	0	0
2019/09/03 19:49:01	BASE	5.78	210	8.54	190	-5.9	100	-5.9	46	0	1012.9	NA	0.0000		9999	980	0	0	0
2019/09/03 19:50:01	BASE	4.94	208	8.54	190	-5.9	100	-5.9	46	0	1012.9	NA	0.0000		9999	1020	0	0	0
2019/09/03 19:51:01	BASE	4.52	210	8.54	190	-5.9	100	-5.9	45	0	1012.9	NA	0.0000		9999	980	0	0	0
2019/09/03 19:52:01	BASE	5.00	218	8.54	190	-5.9	100	-5.9	46	0	1012.9	NA	0.0000		9999	980	0	0	0
2019/09/03 19:53:01	BASE	5.24	224	8.54	190	-5.9	100	-5.9	46	0	1012.8	NA	0.0000		9999	950	0	0	0
2019/09/03 19:54:01	BASE	4.96	223	8.08	194	-5.9	100	-5.9	46	0	1012.8	NA	0.0000		9999	980	0	0	0
2019/09/03 19:55:01	BASE	4.64	223	8.08	194	-5.9	100	-5.9	45	0	1012.8	NA	0.0000		9999	920	0	0	0
2019/09/03 19:56:01	BASE	4.13	231	6.89	207	-5.9	100	-5.9	45	0	1012.8	NA	0.0000		9999	980	0	0	0
2019/09/03 19:57:01	BASE	3.80	238	6.74	214	-5.9	100	-5.9	45	0	1012.8	NA	0.0000		9999	980	0	0	0
2019/09/03 19:58:01	BASE	3.85	236	6.33	216	-5.9	100	-5.9	45	0	1012.8	NA	0.0000		9999	980	0	0	0
2019/09/03 19:59:01	BASE	4.42	238	6.33	216	-5.9	100	-5.9	44	0	1012.8	NA	0.0000		9999	890	0	0	0
2019/09/03 20:00:01	BASE	5.60	240	7.00	232	-5.9	100	-5.9	43	0	1012.8	NA	0.0000		9999	920	0	0	0
2019/09/03 20:01:01	BASE	6.66	240	7.72	230	-5.9	100	-5.9	42	0	1012.8	NA	0.0000		9999	890	0	0	0
2019/09/03 20:02:01	BASE	7.08	237	7.82	228	-5.8	100	-5.8	41	0	1012.8	NA	0.0000		9999	890	0	0	0
2019/09/03 20:03:01	BASE	6.58	230	7.82	228	-5.8	100	-5.8	42	0	1012.8	NA	0.0000		9999	890	0	0	0
2019/09/03 20:04:01	BASE	6.27	226	7.82	228	-5.8	100	-5.8	42	0	1012.8	NA	0.0000		9999	980	0	0	0
2019/09/03 20:05:01	BASE	6.34	225	7.82	228	-5.8	100	-5.8	41	0	1012.8	NA	0.0000		9999	950	0	0	0
2019/09/03 20:06:01	BASE	6.68	221	8.54	206	-5.9	100	-5.9	40	0	1012.8	NA	0.0000		9999	1150	0	0	0
2019/09/03 20:07:01	BASE	7.07	209	8.54	206	-5.9	100	-5.9	38	0	1012.8	NA	0.0000		9999	1210	0	0	0
2019/09/03 20:08:01	BASE	6.68	204	8.54	206	-5.9	100	-5.9	37	0	1012.8	NA	0.0000		9999	1150	0	0	0
2019/09/03 20:09:01	BASE	6.10	204	8.54	206	-5.9	100	-5.9	37	0	1012.8	NA	0.0000		9999	1050	21980	0	0
2019/09/03 20:10:01	BASE	6.12	203	8.54	206	-5.9	100	-5.9	39	0	1012.8	NA	0.0000		9999	1150	0	0	0
2019/09/03 20:11:01	BASE	6.34	213	8.54	206	-6.0	100	-6.0	40	0	1012.8	NA	0.0000		9999	1310	0	0	0
2019/09/03 20:12:01	BASE	6.78	219	8.54	206	-5.9	100	-5.9	40	0	1012.8	NA	0.0000		9999	1440	0	0	0
2019/09/03 20:13:00	BASE	7.53	214	8.54	206	-5.9	100	-5.9	38	0	1012.8	NA	0.0000		9999	1250	0	0	0
2019/09/03 20:14:01	BASE	7.51	213	8.54	206	-5.9	100	-5.9	37	0	1012.8	NA	0.0000		9999	1250	0	0	0
2019/09/03 20:15:01	BASE	6.51	213	8.54	206	-5.9	100	-5.9	36	0	1012.8	NA	0.0000		9999	1180	0	0	0
2019/09/03 20:16:01	BASE	5.59	222	8.49	215	-5.9	100	-5.9	36	0	1012.8	NA	0.0000		9999	1050	0	0	0
2019/09/03 20:17:00	BASE	4.91	230	8.49	215	-5.9	100	-5.9	35	0	1012.9	NA	0.0000		9999	1120	0	0	0
2019/09/03 20:18:01	BASE	4.95	221	8.49	215	-5.9	100	-5.9	34	0	1012.9	NA	0.0000		9999	1080	0	0	0
2019/09/03 20:19:00	BASE	5.92	207	8.49	215	-5.9	100	-5.9	34	0	1012.9	NA	0.0000		9999	1280	0	0	0
2019/09/03 20:20:01	BASE	7.08	206	8.49	215	-5.9	100	-5.9	34	0	1012.9	NA	0.0000		9999	1250	0	0	0
2019/09/03 20:21:01	BASE	7.10	209	8.49	215	-5.8	100	-5.8	34	0	1012.9	NA	0.0000		9999	1280	0	0	0
2019/09/03 20:22:01	BASE	7.04	206	8.49	215	-5.8	100	-5.8	33	0	1012.9	NA	0.0000		9999	1180	0	0	0
2019/09/03 20:23:00	BASE	7.57	209	8.39	215	-5.8	100	-5.8	33	0	1012.9	NA	0.0000		9999	1250	0	0	0
2019/09/03 20:24:01	BASE	7.49	211	8.39	215	-5.8	100	-5.8	33	0	1012.9	NA	0.0000		9999	1210	0	0	0
2019/09/03 20:25:00	BASE	7.21	215	8.39	215	-5.8	100	-5.8	33	0	1012.9	NA	0.0000		9999	1210	0	0	0
2019/09/03 20:26:01	BASE	6.74	219	8.39	215	-5.8	100	-5.8	32	0	1012.9	NA	0.0000		9999	1210	0	0	0
2019/09/03 20:27:01	BASE	7.02	218	8.39	215	-5.8	100	-5.8	31	0	1012.9	NA	0.0000		9999	1250	0	0	0
2019/09/03 20:28:01	BASE	7.41	215	8.39	215	-5.8	100	-5.8	31	0	1012.9	NA	0.0000		9999	1250	0	0	0
2019/09/03 20:29:00	BASE	6.93	212	8.39	215	-5.8	100	-5.8	31	0	1012.9	NA	0.0000		9999	1180	0	0	0
2019/09/03 20:30:00	BASE	6.50	209	8.39	215	-5.8	100	-5.8	31	0	1012.9	NA	0.0000		9999	1150	0	0	0
2019/09/03 20:31:00	BASE	6.65	212	8.39	215	-5.7	100	-5.7	30	0	1012.9	NA	0.0000		9999	1150	0	0	0
2019/09/03 20:32:01	BASE	7.06	210	8.39	215	-5.7	100	-5.7	28	0	1012.9	NA	0.0000		9999	1210	0	0	0
2019/09/03 20:33:00	BASE	7.15	208	8.33	219	-5.7	100	-5.7	27	0	1012.8	NA	0.0000		9999	1280	0	0	0
2019/09/03 20:34:01	BASE	7.18	211	8.33	219	-5.7	100	-5.7	28	0	1012.8	NA	0.0000		9999	1280	0	0	0
2019/09/03 20:35:00	BASE	7.64	209	8.54	204	-5.7	100	-5.7	28	0	1012.8	NA	0.0000		9999	1150	0	0	0
2019/09/03 20:36:00	BASE	8.20	207	9.47	210	-5.7	100	-5.7	27	0	1012.8	NA	0.0000		9999	1180	0	0	0
2019/09/03 20:37:01	BASE	8.33	207	9.52	203	-5.7	100	-5.7	26	0	1012.8	NA	0.0000		9999	1150	0	0	0
2019/09/03 20:38:00	BASE	7.47	204	9.52	203	-5.7	100	-5.7	25	0	1012.8	NA	0.0000		9999	1250	0	0	0
2019/09/03 20:39:00	BASE	7.07	200	9.52	203	-5.8	100	-5.8	25	0	1012.8	NA	0.0000		9999	1210	0	0	0
2019/09/03 20:40:00	BASE	6.76	198	9.52	203	-5.8	100	-5.8	25	0	1012.9	NA	0.0000		9999	1250	0	0	0
2019/09/03 20:41:00	BASE	6.52	197	9.52	203	-5.8	100	-5.8	24	0	1012.9	NA	0.0000		9999	1180	0	0	0
2019/09/03 20:42:01	BASE	6.90	202	9.52	203	-5.8	100	-5.8	24	0	1012.8	NA	0.0000		9999	1150	0	0	0
2019/09/03 20:43:01	BASE	6.57	208	9.52	203	-5.8	100	-5.8	23	0	1012.8	NA	0.0000		9999	1150	0	0	0
2019/09/03 20:44:00	BASE	6.51	222	9.52	203	-5.8	100	-5.8	22	0	1012.8	NA	0.0000		9999	1120	0	0	0
2019/09/03 20:45:00	BASE	7.49	235	9.52	203	-5.8	100	-5.8	22	0	1012.8	NA	0.0000		9999	1050	0	0	0
2019/09/03 20:46:00	BASE	8.02	232	9.52	203	-5.8	100	-5.8	21	0	1012.8	NA	0.0000		9999	1120	0	0	0
2019/09/03 20:47:00	BASE	7.40	227	8.85	235	-5.8	100	-5.8	20	0	1012.8	NA	0.0000		9999	1120	0	0	0
2019/09/03 20:48:01	BASE	6.52	228	8.85	235	-5.8	100	-5.8	19	0	1012.8	NA	0.0000		9999	1120	0	0	0
2019/09/03 20:49:00	BASE	6.55	226	8.85	235	-5.8	100	-5.8	18	0	1012.8	NA	0.0000		9999	1280	0	0	0
2019/09/03 20:50:00	BASE	7.20	217	8.85	235	-5.8	100	-5.8	17	0	1012.8	NA	0.0000		9999	1180	0	0	0
2019/09/03 20:51:00	BASE	7.17	202	8.85	235	-5.8	100	-5.8	17	0	1012.8	NA	0.0000		9999	1280	0	0	0
2019/09/03 20:52:01	BASE	6.46	196	8.85	235	-5.8	100	-5.8	15	0	1012.8	NA	0.0000		9999	1150	0	0	0
2019/09/03 20:53:00	BASE	6.14	199	8.85	235	-5.8	100	-5.8	13	0	1012.8	NA	0.0000		9999	1210	0	0	0
2019/09/03 20:54:00	BASE	6.89	201	8.85	235	-5.8	100	-5.8	12	0	1012.8	NA	0.0000		9999	1210	0	0	0
2019/09/03 20:55:00	BASE	7.09	200	8.49	212	-5.8	100	-5.8	12	0	1012.8	NA	0.0000		9999	1180	0	0	0
2019/09/03 20:56:00	BASE	7.09	202	8.49	212	-5.8	100	-5.8	11	0	1012.8	NA	0.0000		9999	1180	0	0	0
2019/09/03 20:57:00	BASE	7.70	209	8.90	210	-5.8	100	-5.8	11	0	1012.8	NA	0.0000		9999	1080	0	0	0
2019/09/03 20:58:00	BASE	8.26	210	9.41	212	-5.8	100	-5.8	10	0	1012.8	NA	0.0000		9999	1180	0	0	0
2019/09/03 20:59:00	BASE	8.34	209	9.41	212	-5.8	100	-5.8	10	0	1012.7	NA	0.0000		9999	1210	0	0	0
2019/09/03 21:00:01	BASE	8.52	208	10.60	208	-5.8	100	-5.8	9	0	1012.7	NA	0.0000		9999	1210	0	0	0
2019/09/03 21:01:01	BASE	9.16	207	10.70	205	-5.8	100	-5.8	9	0	1012.7	NA	0.0000		9999	1280	0	0	0
2019/09/03 21:02:01	BASE	9.04	205	10.70	205	-5.8	100	-5.8	8	0	1012.7	NA	0.0000		9999	1180	0	0	0
2019/09/03 21:03:01	BASE	8.19	206	10.70	205	-5.8	100	-5.8	8	0	1012.7	NA	0.0000		9999	1180	0	0	0
2019/09/03 21:04:01	BASE	7.26	208	10.70	205	-5.8	100	-5.8	7	0	1012.7	NA	0.0000		9999	1150	0	0	0
2019/09/03 21:05:01	BASE	6.51	209	10.70	205	-5.8	100	-5.8	7	0	1012.7	NA	0.0000		9999	1180	0	0	0
2019/09/03 21:06:01	BASE	6.66	211	10.70	205	-5.8	100	-5.8	6	0	1012.7	NA	0.0000		9999	1180	0	0	0
2019/09/03 21:07:01	BASE	6.96	210	10.70	205	-5.8	100	-5.8	6	0	1012.7	NA	0.0000		9999	1250	0	0	0
2019/09/03 21:08:01	BASE	6.92	211	10.70	205	-5.8	100	-5.8	6	0	1012.7	NA	0.0000		9999	1180	0	0	0
2019/09/03 21:09:01	BASE	6.74	223	10.70	205	-5.8	100	-5.8	6	0	1012.7	NA	0.0000		9999	1180	0	0	0
2019/09/03 21:10:01	BASE	6.25	227	10.70	205	-5.8	100	-5.8	6	0	1012.7	NA	0.0000		9999	1150	0	0	0
2019/09/03 21:11:01	BASE	5.40	225	9.57	210	-5.8	100	-5.8	5	0	1012.7	NA	0.0000		9999	1210	0	0	0
2019/09/03 21:12:01	BASE	4.64	225	8.75	208	-5.8	100	-5.8	5	0	1012.7	NA	0.0000		9999	1180	0	0	0
2019/09/03 21:13:01	BASE	4.29	224	8.54	211	-5.8	100	-5.8	4	0	1012.7	NA	0.0000		9999	1180	0	0	0
2019/09/03 21:14:01	BASE	4.53	226	8.54	211	-5.8	100	-5.8	4	0	1012.7	NA	0.0000		9999	1120	0	0	0
2019/09/03 21:15:01	BASE	5.67	225	8.54	211	-5.8	100	-5.8	4	0	1012.7	NA	0.0000		9999	1120	0	0	0
2019/09/03 21:16:01	BASE	5.63	217	8.44	206	-5.8	100	-5.8	4	0	1012.8	NA	0.0000		9999	1250	0	0	0
2019/09/03 21:17:01	BASE	5.29	213	7.82	225	-5.8	100	-5.8	3	0	1012.7	NA	0.0000		9999	1180	0	0	0
2019/09/03 21:18:01	BASE	6.17	213	7.82	213	-5.8	100	-5.8	3	0	1012.7	NA	0.0000		9999	1120	0	0	0
2019/09/03 21:19:01	BASE	6.99	211	8.13	215	-5.7	100	-5.7	3	0	1012.8	NA	0.0000		9999	1150	0	0	0
2019/09/03 21:20:01	BASE	7.06	214	8.13	215	-5.7	100	-5.7	2	0	1012.8	NA	0.0000		9999	1250	0	0	0
2019/09/03 21:21:01	BASE	6.75	216	8.13	215	-5.7	100	-5.7	2	0	1012.8	NA	0.0000		9999	1180	0	0	0
2019/09/03 21:22:01	BASE	6.93	212	8.13	215	-5.7	100	-5.7	2	0	1012.8	NA	0.0000		9999	1120	0	0	0
2019/09/03 21:23:01	BASE	6.69	212	8.13	215	-5.7	100	-5.7	1	0	1012.7	NA	0.0000		9999	1250	0	0	0
2019/09/03 21:24:01	BASE	5.99	216	8.13	215	-5.8	100	-5.8	1	0	1012.7	NA	0.0000		9999	1250	0	0	0
2019/09/03 21:25:01	BASE	5.57	214	8.13	215	-5.8	100	-5.8	1	0	1012.8	NA	0.0000		9999	1150	0	0	0
2019/09/03 21:26:01	BASE	5.30	207	8.13	215	-5.8	100	-5.8	1	0	1012.7	NA	0.0000		9999	1080	0	0	0
2019/09/03 21:27:01	BASE	4.55	201	8.13	215	-5.8	100	-5.8	1	0	1012.7	NA	0.0000		9999	1080	0	0	0
2019/09/03 21:28:01	BASE	3.90	195	8.13	215	-5.8	100	-5.8	1	0	1012.7	NA	0.0000		9999	1020	0	0	0
2019/09/03 21:29:01	BASE	4.50	198	8.08	210	-5.8	100	-5.8	1	0	1012.7	NA	0.0000		9999	1050	0	0	0
2019/09/03 21:30:01	BASE	4.89	202	8.08	210	-5.8	100	-5.8	0	0	1012.7	NA	0.0000		9999	1020	0	0	0
2019/09/03 21:31:01	BASE	4.40	204	7.92	210	-5.8	100	-5.8	0	0	1012.7	NA	0.0000		9999	1080	0	0	0
2019/09/03 21:32:01	BASE	4.33	208	6.84	207	-5.8	100	-5.8	0	0	1012.7	NA	0.0000		9999	1120	0	0	0
2019/09/03 21:33:01	BASE	5.50	209	7.15	210	-5.8	100	-5.8	0	0	1012.7	NA	0.0000		9999	1180	0	0	0
2019/09/03 21:34:01	BASE	6.32	208	7.36	202	-5.9	100	-5.9	0	0	1012.6	NA	0.0000		9999	1410	0	0	0
2019/09/03 21:35:01	BASE	6.19	207	7.36	202	-5.9	100	-5.9	0	0	1012.6	NA	0.0000		9999	1250	0	0	0
2019/09/03 21:36:01	BASE	5.44	206	7.36	202	-5.9	100	-5.9	0	0	1012.6	NA	0.0000		9999	1180	0	0	0
2019/09/03 21:37:01	BASE	5.43	208	7.36	202	-6.0	100	-6.0	0	0	1012.7	NA	0.0000		9999	1250	0	0	0
2019/09/03 21:38:01	BASE	5.95	210	7.36	202	-6.0	100	-6.0	0	0	1012.7	NA	0.0000		9999	1210	0	0	0
2019/09/03 21:39:01	BASE	5.49	206	7.36	202	-6.0	100	-6.0	0	0	1012.7	NA	0.0000		9999	1120	0	0	0
2019/09/03 21:40:01	BASE	4.83	201	7.36	202	-6.0	100	-6.0	0	0	1012.7	NA	0.0000		9999	1180	0	0	0
2019/09/03 21:41:01	BASE	4.02	195	7.36	202	-6.0	100	-6.0	0	0	1012.7	NA	0.0000		9999	1150	0	0	0
2019/09/03 21:42:01	BASE	4.35	194	7.36	202	-6.0	100	-6.0	0	0	1012.7	NA	0.0000		9999	1120	0	0	0
2019/09/03 21:43:01	BASE	5.45	199	7.36	202	-6.0	100	-6.0	0	0	1012.7	NA	0.0000		9999	1120	0	0	0
2019/09/03 21:44:01	BASE	5.53	201	6.94	209	-6.0	100	-6.0	0	0	1012.7	NA	0.0000		9999	1150	0	0	0
2019/09/03 21:45:01	BASE	4.76	197	6.94	209	-6.0	100	-6.0	0	0	1012.7	NA	0.0000		9999	1080	0	0	0
2019/09/03 21:46:01	BASE	3.92	198	6.94	209	-6.0	100	-6.0	0	0	1012.7	NA	0.0000		9999	1080	0	0	0
2019/09/03 21:47:01	BASE	3.45	212	6.94	209	-6.0	100	-6.0	0	0	1012.6	NA	0.0000		9999	1050	0	0	0
2019/09/03 21:48:01	BASE	3.00	221	6.38	201	-6.0	100	-6.0	0	0	1012.6	NA	0.0000		9999	1180	0	0	0
2019/09/03 21:49:01	BASE	3.34	219	6.38	201	-6.0	100	-6.0	0	0	1012.6	NA	0.0000		9999	1150	0	0	0
2019/09/03 21:50:01	BASE	5.31	221	7.41	223	-6.0	100	-6.0	0	0	1012.6	NA	0.0000		9999	1210	0	0	0
2019/09/03 21:51:01	BASE	7.19	225	8.18	225	-6.0	100	-6.0	0	0	1012.6	NA	0.0000		9999	1350	0	0	0
2019/09/03 21:52:01	BASE	7.87	232	8.85	240	-6.0	100	-6.0	0	0	1012.5	NA	0.0000		9999	0	0	0	0
2019/09/03 21:53:01	BASE	7.28	235	8.85	240	-6.0	100	-6.0	0	0	1012.6	NA	0.0000		9999	1570	0	0	0
2019/09/03 21:54:01	BASE	6.42	228	8.85	240	-6.0	100	-6.0	0	0	1012.6	NA	0.0000		9999	1210	0	0	0
2019/09/03 21:55:00	BASE	6.07	224	8.85	240	-6.1	100	-6.1	0	0	1012.6	NA	0.0000		9999	1080	0	0	0
2019/09/03 21:56:01	BASE	5.65	220	8.85	240	-6.1	100	-6.1	0	0	1012.6	NA	0.0000		9999	980	0	0	0
2019/09/03 21:57:00	BASE	5.33	219	8.85	240	-6.0	100	-6.0	0	0	1012.6	NA	0.0000		9999	1050	0	0	0
2019/09/03 21:58:01	BASE	5.03	220	8.85	240	-6.0	100	-6.0	0	0	1012.6	NA	0.0000		9999	1080	0	0	0
2019/09/03 21:59:00	BASE	5.00	214	8.85	240	-5.9	100	-5.9	0	0	1012.6	NA	0.0000		9999	1120	0	0	0
2019/09/03 22:00:00	BASE	4.98	208	8.85	240	-5.9	100	-5.9	0	0	1012.6	NA	0.0000		9999	1080	0	0	0
2019/09/03 22:01:00	BASE	4.93	198	8.85	240	-5.9	100	-5.9	0	0	1012.7	NA	0.0000		9999	1080	0	0	0
2019/09/03 22:02:01	BASE	4.88	194	7.72	238	-5.9	100	-5.9	0	0	1012.7	NA	0.0000		9999	1050	0	0	0
2019/09/03 22:03:00	BASE	5.61	200	6.94	194	-5.9	100	-5.9	0	0	1012.7	NA	0.0000		9999	1020	0	0	0
2019/09/03 22:04:01	BASE	6.35	195	6.94	194	-5.9	100	-5.9	0	0	1012.8	NA	0.0000		9999	1020	0	0	0
2019/09/03 22:05:00	BASE	6.38	190	7.25	196	-5.9	100	-5.9	0	0	1012.8	NA	0.0000		9999	1020	0	0	0
2019/09/03 22:06:01	BASE	6.57	191	7.25	196	-5.9	100	-5.9	0	0	1012.8	NA	0.0000		9999	980	0	0	0
2019/09/03 22:07:00	BASE	5.79	196	7.25	196	-5.9	100	-5.9	0	0	1012.8	NA	0.0000		9999	1050	0	0	0
2019/09/03 22:08:00	BASE	4.89	205	7.25	196	-5.9	100	-5.9	0	0	1012.8	NA	0.0000		9999	1050	0	0	0
2019/09/03 22:09:00	BASE	4.36	205	7.25	196	-5.9	100	-5.9	0	0	1012.8	NA	0.0000		9999	1080	0	0	0
2019/09/03 22:10:00	BASE	4.48	200	7.25	196	-5.9	100	-5.9	0	0	1012.8	NA	0.0000		9999	1080	0	0	0
2019/09/03 22:11:00	BASE	6.33	199	8.64	209	-5.9	100	-5.9	0	0	1012.8	NA	0.0000		9999	1120	0	0	0
2019/09/03 22:12:01	BASE	7.36	206	8.95	209	-5.9	100	-5.9	0	0	1012.8	NA	0.0000		9999	1120	0	0	0
2019/09/03 22:13:00	BASE	6.24	212	8.95	209	-5.9	100	-5.9	0	0	1012.8	NA	0.0000		9999	1020	0	0	0
2019/09/03 22:14:00	BASE	5.68	214	8.95	209	-5.9	100	-5.9	0	0	1012.8	NA	0.0000		9999	1050	0	0	0
2019/09/03 22:15:00	BASE	6.00	222	8.95	209	-5.9	100	-5.9	0	0	1012.7	NA	0.0000		9999	1080	0	0	0
2019/09/03 22:16:01	BASE	5.03	236	8.95	209	-5.9	100	-5.9	0	0	1012.7	NA	0.0000		9999	1020	0	0	0
2019/09/03 22:17:00	BASE	3.83	238	8.95	209	-5.9	100	-5.9	0	0	1012.7	NA	0.0000		9999	1080	0	0	0
2019/09/03 22:18:00	BASE	4.32	228	8.95	209	-5.9	100	-5.9	0	0	1012.8	NA	0.0000		9999	1210	0	0	0
2019/09/03 22:19:00	BASE	5.84	215	8.95	209	-5.9	100	-5.9	0	0	1012.8	NA	0.0000		9999	1250	0	0	0
2019/09/03 22:20:00	BASE	7.00	208	8.95	209	-5.9	100	-5.9	0	0	1012.8	NA	0.0000		9999	1150	0	0	0
2019/09/03 22:21:00	BASE	7.11	209	8.95	209	-5.9	100	-5.9	0	0	1012.8	NA	0.0000		9999	1150	0	0	0
2019/09/03 22:22:00	BASE	6.53	205	8.39	213	-5.9	100	-5.9	0	0	1012.8	NA	0.0000		9999	1080	0	0	0
2019/09/03 22:23:00	BASE	5.93	207	8.39	213	-5.9	100	-5.9	0	0	1012.8	NA	0.0000		9999	1250	0	0	0
2019/09/03 22:24:00	BASE	5.54	216	8.39	213	-5.9	100	-5.9	0	0	1012.8	NA	0.0000		9999	1150	0	0	0
2019/09/03 22:25:00	BASE	5.14	217	8.39	213	-5.9	100	-5.9	0	0	1012.8	NA	0.0000		9999	1120	0	0	0
2019/09/03 22:26:00	BASE	4.75	208	8.39	213	-5.9	100	-5.9	0	0	1012.8	NA	0.0000		9999	1150	0	0	0
2019/09/03 22:27:00	BASE	4.49	199	8.39	213	-5.9	100	-5.9	0	0	1012.9	NA	0.0000		9999	1310	0	0	0
2019/09/03 22:28:00	BASE	4.21	194	8.39	213	-5.9	100	-5.9	0	0	1012.8	NA	0.0000		9999	1210	0	0	0
2019/09/03 22:29:00	BASE	4.32	194	8.39	213	-5.9	100	-5.9	0	0	1012.8	NA	0.0000		9999	1150	0	0	0
2019/09/03 22:30:00	BASE	4.39	195	8.08	214	-5.9	100	-5.9	0	0	1012.8	NA	0.0000		9999	1120	0	0	0
2019/09/03 22:31:00	BASE	4.94	195	6.48	185	-6.0	100	-6.0	0	0	1012.8	NA	0.0000		9999	1350	0	0	0
2019/09/03 22:32:00	BASE	5.43	198	6.48	185	-6.0	100	-6.0	0	0	1012.8	NA	0.0000		9999	1250	0	0	0
2019/09/03 22:33:00	BASE	4.71	205	6.48	185	-6.0	100	-6.0	0	0	1012.8	NA	0.0000		9999	1280	0	0	0
2019/09/03 22:34:00	BASE	4.68	207	6.48	185	-5.9	100	-5.9	0	0	1012.8	NA	0.0000		9999	1210	0	0	0
2019/09/03 22:35:00	BASE	5.01	206	6.48	185	-5.9	100	-5.9	0	0	1012.8	NA	0.0000		9999	1280	0	0	0
2019/09/03 22:36:00	BASE	5.41	215	6.48	223	-5.9	100	-5.9	0	0	1012.8	NA	0.0000		9999	1250	0	0	0
2019/09/03 22:37:00	BASE	5.49	225	6.48	223	-5.9	100	-5.9	0	0	1012.8	NA	0.0000		9999	1180	0	0	0
2019/09/03 22:38:00	BASE	5.23	221	6.48	223	-5.8	100	-5.8	0	0	1012.9	NA	0.0000		9999	1180	0	0	0
2019/09/03 22:39:00	BASE	5.33	213	6.48	223	-5.8	100	-5.8	0	0	1012.9	NA	0.0000		9999	1250	1870	0	0
2019/09/03 22:40:00	BASE	4.44	200	6.48	223	-5.8	100	-5.8	0	0	1012.9	NA	0.0000		9999	1310	0	0	0
2019/09/03 22:41:00	BASE	3.30	195	6.48	223	-5.8	100	-5.8	0	0	1012.9	NA	0.0000		9999	1280	1900	0	0
2019/09/03 22:42:00	BASE	3.24	201	6.48	223	-5.8	100	-5.8	0	0	1012.9	NA	0.0000		9999	1210	0	0	0
2019/09/03 22:43:00	BASE	3.60	207	6.48	223	-5.8	100	-5.8	0	0	1012.9	NA	0.0000		9999	1250	0	0	0
2019/09/03 22:44:00	BASE	3.78	206	6.48	223	-5.8	100	-5.8	0	0	1012.9	NA	0.0000		9999	1180	0	0	0
2019/09/03 22:45:00	BASE	4.28	197	6.48	223	-5.8	100	-5.8	0	0	1012.9	NA	0.0000		9999	1250	0	0	0
2019/09/03 22:46:00	BASE	4.66	197	5.97	212	-5.8	100	-5.8	0	0	1012.9	NA	0.0000		9999	1210	0	0	0
2019/09/03 22:47:00	BASE	4.11	202	5.97	212	-5.8	100	-5.8	0	0	1012.9	NA	0.0000		9999	1150	0	0	0
2019/09/03 22:48:00	BASE	3.73	201	5.66	206	-5.8	100	-5.8	0	0	1012.9	NA	0.0000		9999	1050	0	0	0
2019/09/03 22:49:01	BASE	3.45	189	5.56	212	-5.8	100	-5.8	0	0	1012.9	NA	0.0000		9999	1180	0	0	0
2019/09/03 22:50:00	BASE	3.46	169	5.56	212	-5.8	100	-5.8	0	0	1012.8	NA	0.0000		9999	1310	0	0	0
2019/09/03 22:51:00	BASE	3.81	157	5.56	212	-5.8	100	-5.8	0	0	1012.9	NA	0.0000		9999	1350	0	0	0
2019/09/03 22:52:00	BASE	3.91	158	5.56	212	-5.9	100	-5.9	0	0	1012.9	NA	0.0000		9999	1210	0	0	0
2019/09/03 22:53:00	BASE	3.82	167	5.56	212	-5.9	100	-5.9	0	0	1012.9	NA	0.0000		9999	1120	0	0	0
2019/09/03 22:54:00	BASE	3.67	183	5.56	212	-5.9	100	-5.9	0	0	1012.8	NA	0.0000		9999	1150	0	0	0
2019/09/03 22:55:00	BASE	3.61	190	5.56	212	-5.9	100	-5.9	0	0	1012.8	NA	0.0000		9999	1180	0	0	0
2019/09/03 22:56:00	BASE	3.23	184	4.58	174	-5.9	100	-5.9	0	0	1012.8	NA	0.0000		9999	1180	0	0	0
2019/09/03 22:57:00	BASE	2.80	182	4.58	174	-5.9	100	-5.9	0	0	1012.8	NA	0.0000		9999	1180	0	0	0
2019/09/03 22:58:00	BASE	3.01	190	4.58	174	-5.9	100	-5.9	0	0	1012.8	NA	0.0000		9999	1180	0	0	0
2019/09/03 22:59:00	BASE	3.16	202	4.58	174	-5.9	100	-5.9	0	0	1012.9	NA	0.0000		9999	1180	0	0	0
2019/09/03 23:00:00	BASE	3.17	212	5.04	210	-5.9	100	-5.9	0	0	1012.9	NA	0.0000		9999	1180	0	0	0
2019/09/03 23:01:00	BASE	4.62	226	6.28	242	-5.8	100	-5.8	0	0	1012.9	NA	0.0000		9999	1180	0	0	0
2019/09/03 23:02:00	BASE	5.91	229	6.38	222	-5.8	100	-5.8	0	0	1012.9	NA	0.0000		9999	1210	0	0	0
2019/09/03 23:03:00	BASE	6.09	218	6.79	214	-5.8	100	-5.8	0	0	1012.9	NA	0.0000		9999	1250	0	0	0
2019/09/03 23:04:00	BASE	6.03	210	6.79	214	-5.8	100	-5.8	0	0	1012.8	NA	0.0000		9999	1210	0	0	0
2019/09/03 23:05:00	BASE	5.87	206	6.79	214	-5.7	100	-5.7	0	0	1012.8	NA	0.0000		9999	1150	0	0	0
2019/09/03 23:06:00	BASE	5.44	203	6.79	214	-5.7	100	-5.7	0	0	1012.8	NA	0.0000		9999	1150	0	0	0
2019/09/03 23:07:00	BASE	4.87	203	6.79	214	-5.7	100	-5.7	0	0	1012.8	NA	0.0000		9999	1150	0	0	0
2019/09/03 23:08:00	BASE	5.13	205	6.79	214	-5.7	100	-5.7	0	0	1012.8	NA	0.0000		9999	1210	0	0	0
2019/09/03 23:09:00	BASE	5.26	210	6.79	214	-5.8	100	-5.8	0	0	1012.8	NA	0.0000		9999	1180	0	0	0
2019/09/03 23:10:00	BASE	4.76	218	6.79	214	-5.8	100	-5.8	0	0	1012.8	NA	0.0000		9999	1210	0	0	0
2019/09/03 23:11:00	BASE	4.39	218	6.79	214	-5.8	100	-5.8	0	0	1012.9	NA	0.0000		9999	1180	0	0	0
2019/09/03 23:12:00	BASE	3.96	215	6.79	214	-5.8	100	-5.8	0	0	1012.9	NA	0.0000		9999	1150	0	0	0
2019/09/03 23:13:00	BASE	3.68	212	6.38	202	-5.8	100	-5.8	0	0	1012.9	NA	0.0000		9999	1150	0	0	0
2019/09/03 23:14:00	BASE	3.50	203	6.28	203	-5.8	100	-5.8	0	0	1013.0	NA	0.0000		9999	1150	0	0	0
2019/09/03 23:15:00	BASE	3.41	204	6.28	203	-5.8	100	-5.8	0	0	1013.0	NA	0.0000		9999	1250	0	0	0
2019/09/03 23:16:00	BASE	3.66	205	6.28	203	-5.8	100	-5.8	0	0	1012.9	NA	0.0000		9999	1180	0	0	0
2019/09/03 23:17:00	BASE	4.25	198	6.28	203	-5.9	100	-5.9	0	0	1012.9	NA	0.0000		9999	1180	0	0	0
2019/09/03 23:18:01	BASE	4.48	202	5.56	224	-5.9	100	-5.9	0	0	1012.9	NA	0.0000		9999	1250	0	0	0
2019/09/03 23:19:00	BASE	4.10	205	5.35	201	-5.9	100	-5.9	0	0	1012.9	NA	0.0000		9999	1180	0	0	0
2019/09/03 23:20:00	BASE	3.60	200	5.35	201	-5.9	100	-5.9	0	0	1012.9	NA	0.0000		9999	1180	0	0	0
2019/09/03 23:21:01	BASE	3.12	196	5.35	201	-5.9	100	-5.9	0	0	1012.9	NA	0.0000		9999	1180	0	0	0
2019/09/03 23:22:01	BASE	3.30	199	5.35	201	-6.0	100	-6.0	0	0	1012.8	NA	0.0000		9999	1150	0	0	0
2019/09/03 23:23:00	BASE	3.52	208	5.35	201	-6.0	100	-6.0	0	0	1012.9	NA	0.0000		9999	1280	0	0	0
2019/09/03 23:24:01	BASE	3.17	210	5.35	201	-6.0	100	-6.0	0	0	1012.9	NA	0.0000		9999	1250	0	0	0
2019/09/03 23:25:00	BASE	2.77	204	5.35	201	-6.0	100	-6.0	0	0	1012.9	NA	0.0000		9999	1210	0	0	0
2019/09/03 23:26:01	BASE	2.45	206	5.35	201	-5.9	100	-5.9	0	0	1012.9	NA	0.0000		9999	1180	0	0	0
2019/09/03 23:27:01	BASE	2.19	208	4.58	210	-5.9	100	-5.9	0	0	1012.9	NA	0.0000		9999	1120	0	0	0
2019/09/03 23:28:01	BASE	2.07	206	4.27	202	-5.9	100	-5.9	0	0	1012.9	NA	0.0000		9999	1250	0	0	0
2019/09/03 23:29:00	BASE	3.09	212	5.92	200	-6.0	100	-6.0	0	0	1012.9	NA	0.0000		9999	1280	0	0	0
2019/09/03 23:30:00	BASE	5.04	209	6.58	204	-6.0	100	-6.0	0	0	1013.0	NA	0.0000		9999	1350	1840	0	0
2019/09/03 23:31:00	BASE	5.77	206	6.58	204	-6.0	100	-6.0	0	0	1013.0	NA	0.0000		9999	1350	0	0	0
2019/09/03 23:32:01	BASE	5.50	207	6.58	204	-6.0	100	-6.0	0	0	1013.0	NA	0.0000		9999	1250	0	0	0
2019/09/03 23:33:00	BASE	5.07	205	6.58	204	-6.0	100	-6.0	0	0	1013.0	NA	0.0000		9999	1210	0	0	0
2019/09/03 23:34:01	BASE	5.13	207	6.58	204	-5.9	100	-5.9	0	0	1013.0	NA	0.0000		9999	1210	0	0	0
2019/09/03 23:35:00	BASE	5.42	210	6.58	204	-5.9	100	-5.9	0	0	1013.0	NA	0.0000		9999	1310	0	0	0
2019/09/03 23:36:01	BASE	5.10	206	6.58	204	-5.9	100	-5.9	0	0	1012.9	NA	0.0000		9999	1210	0	0	0
2019/09/03 23:37:01	BASE	5.03	204	6.58	204	-5.9	100	-5.9	0	0	1012.9	NA	0.0000		9999	1710	0	0	0
2019/09/03 23:38:01	BASE	5.12	207	6.58	204	-5.9	100	-5.9	0	0	1012.9	NA	0.0000		9999	1610	0	0	0
2019/09/03 23:39:00	BASE	4.95	206	6.58	204	-5.9	100	-5.9	0	0	1012.9	NA	0.0000		9999	1350	0	0	0
2019/09/03 23:40:00	BASE	4.17	201	6.17	213	-6.0	100	-6.0	0	0	1012.9	NA	0.0000		9999	1510	0	0	0
2019/09/03 23:41:00	BASE	3.54	205	6.07	219	-6.0	100	-6.0	0	0	1012.9	NA	0.0000		9999	1440	0	0	0
2019/09/03 23:42:00	BASE	3.29	204	6.07	219	-6.0	100	-6.0	0	0	1012.9	NA	0.0000		9999	1380	0	0	0
2019/09/03 23:43:00	BASE	3.45	196	6.07	219	-6.0	100	-6.0	0	0	1012.9	NA	0.0000		9999	1310	0	0	0
2019/09/03 23:44:01	BASE	3.93	198	5.81	201	-6.0	100	-6.1	0	0	1012.9	NA	0.0000		9999	1380	0	0	0
2019/09/03 23:45:00	BASE	3.83	196	5.81	201	-6.0	99	-6.1	0	0	1012.9	NA	0.0000		9999	1440	0	0	0
2019/09/03 23:46:01	BASE	3.47	190	5.81	201	-6.1	99	-6.2	0	0	1012.9	NA	0.0000		9999	1540	0	0	0
2019/09/03 23:47:00	BASE	3.23	193	5.81	201	-6.1	99	-6.2	0	0	1012.9	NA	0.0000		9999	1380	0	0	0
2019/09/03 23:48:00	BASE	3.01	195	5.81	201	-6.1	99	-6.2	0	0	1012.9	NA	0.0000		9999	1380	0	0	0
2019/09/03 23:49:00	BASE	3.01	188	4.68	207	-6.1	99	-6.2	0	0	1012.9	NA	0.0000		9999	1410	0	0	0
2019/09/03 23:50:00	BASE	3.00	179	4.68	207	-6.1	99	-6.2	0	0	1012.9	NA	0.0000		9999	1350	0	0	0
2019/09/03 23:51:00	BASE	2.66	170	4.68	207	-6.1	99	-6.3	0	0	1012.9	NA	0.0000		9999	1250	0	0	0
2019/09/03 23:52:00	BASE	2.53	172	4.68	207	-6.1	99	-6.3	0	0	1012.9	NA	0.0000		9999	1310	0	0	0
2019/09/03 23:53:00	BASE	2.04	169	4.53	208	-6.2	98	-6.4	0	0	1012.9	NA	0.0000		9999	1310	0	0	0
2019/09/03 23:54:00	BASE	1.54	170	4.22	195	-6.2	98	-6.4	0	0	1012.9	NA	0.0000		9999	1350	0	0	0
2019/09/03 23:55:00	BASE	1.72	175	3.81	184	-6.2	98	-6.4	0	0	1013.0	NA	0.0000		9999	1380	0	0	0
2019/09/03 23:56:00	BASE	2.24	178	3.65	201	-6.2	99	-6.4	0	0	1012.9	NA	0.0000		9999	1410	0	0	0
2019/09/03 23:57:00	BASE	2.93	188	4.32	189	-6.2	99	-6.3	0	0	1012.9	NA	0.0000		9999	1280	0	0	0
2019/09/03 23:58:00	BASE	3.14	189	4.32	189	-6.1	99	-6.3	0	0	1012.9	NA	0.0000		9999	1280	0	0	0
2019/09/03 23:59:00	BASE	3.28	189	4.68	208	-6.1	99	-6.3	0	0	1012.9	NA	0.0000		9999	1310	0	0	0